<?xml version="1.0" encoding="UTF-8" standalone="no" ?><gpx xmlns="http://www.topografix.com/GPX/1/1" xmlns:gpxx="http://www.garmin.com/xmlschemas/GpxExtensions/v3" xmlns:wptx1="http://www.garmin.com/xmlschemas/WaypointExtension/v1" xmlns:gpxtpx="http://www.garmin.com/xmlschemas/TrackPointExtension/v1" creator="GuideVTT.com" version="1.1" xmlns:xsi="http://www.w3.org/2001/XMLSchema-instance" xsi:schemaLocation="http://www.topografix.com/GPX/1/1 http://www.topografix.com/GPX/1/1/gpx.xsd http://www.garmin.com/xmlschemas/GpxExtensions/v3 http://www8.garmin.com/xmlschemas/GpxExtensionsv3.xsd http://www.garmin.com/xmlschemas/WaypointExtension/v1 http://www8.garmin.com/xmlschemas/WaypointExtensionv1.xsd http://www.garmin.com/xmlschemas/TrackPointExtension/v1 http://www.garmin.com/xmlschemas/TrackPointExtensionv1.xsd">
<metadata><link href="http://www.garmin.com"><text>Garmin International</text></link><time>2013-06-22T15:13:50Z</time></metadata>
<trk><name>col_de_jable.gpx</name><extensions><gpxx:TrackExtension><gpxx:DisplayColor>Cyan</gpxx:DisplayColor></gpxx:TrackExtension></extensions><trkseg>
<trkpt lat="46.46785708" lon="7.12638683"><ele>892.06897</ele><time>2010-10-07T12:10:59Z</time></trkpt>
<trkpt lat="46.46774501" lon="7.12639379"><ele>891.560974</ele><time>2010-10-07T12:11:06Z</time></trkpt>
<trkpt lat="46.46761107" lon="7.12636378"><ele>890.901001</ele><time>2010-10-07T12:11:09Z</time></trkpt>
<trkpt lat="46.46730604" lon="7.12638976"><ele>889.03302</ele><time>2010-10-07T12:11:14Z</time></trkpt>
<trkpt lat="46.46684101" lon="7.12652177"><ele>887.325012</ele><time>2010-10-07T12:11:20Z</time></trkpt>
<trkpt lat="46.46676105" lon="7.12653979"><ele>887.099976</ele><time>2010-10-07T12:11:21Z</time></trkpt>
<trkpt lat="46.46631202" lon="7.12644675"><ele>886.669983</ele><time>2010-10-07T12:11:27Z</time></trkpt>
<trkpt lat="46.46601404" lon="7.12633376"><ele>886.942993</ele><time>2010-10-07T12:11:32Z</time></trkpt>
<trkpt lat="46.46601404" lon="7.12633376"><ele>886.942993</ele><time>2010-10-07T12:11:34Z</time></trkpt>
<trkpt lat="46.46557206" lon="7.12612279"><ele>888.112</ele><time>2010-10-07T12:11:41Z</time></trkpt>
<trkpt lat="46.46542102" lon="7.12595482"><ele>888.963013</ele><time>2010-10-07T12:11:45Z</time></trkpt>
<trkpt lat="46.46536402" lon="7.12586380"><ele>889.731018</ele><time>2010-10-07T12:11:47Z</time></trkpt>
<trkpt lat="46.46526201" lon="7.12561478"><ele>890.848022</ele><time>2010-10-07T12:11:52Z</time></trkpt>
<trkpt lat="46.46523402" lon="7.12543483"><ele>890.979004</ele><time>2010-10-07T12:12:01Z</time></trkpt>
<trkpt lat="46.46519806" lon="7.12519185"><ele>891.510986</ele><time>2010-10-07T12:12:02Z</time></trkpt>
<trkpt lat="46.46516403" lon="7.12495884"><ele>894.70697</ele><time>2010-10-07T12:12:08Z</time></trkpt>
<trkpt lat="46.46511600" lon="7.12473581"><ele>894.666992</ele><time>2010-10-07T12:12:14Z</time></trkpt>
<trkpt lat="46.46505205" lon="7.12459382"><ele>896.890015</ele><time>2010-10-07T12:12:18Z</time></trkpt>
<trkpt lat="46.46490100" lon="7.12437188"><ele>898.062012</ele><time>2010-10-07T12:12:26Z</time></trkpt>
<trkpt lat="46.46475105" lon="7.12423282"><ele>899.703979</ele><time>2010-10-07T12:12:33Z</time></trkpt>
<trkpt lat="46.46461199" lon="7.12415990"><ele>901.21698</ele><time>2010-10-07T12:12:39Z</time></trkpt>
<trkpt lat="46.46447101" lon="7.12412084"><ele>902.466003</ele><time>2010-10-07T12:12:45Z</time></trkpt>
<trkpt lat="46.46433203" lon="7.12411783"><ele>903.200989</ele><time>2010-10-07T12:12:51Z</time></trkpt>
<trkpt lat="46.46409499" lon="7.12415789"><ele>904.697998</ele><time>2010-10-07T12:13:00Z</time></trkpt>
<trkpt lat="46.46385200" lon="7.12418588"><ele>906.577026</ele><time>2010-10-07T12:13:09Z</time></trkpt>
<trkpt lat="46.46364203" lon="7.12413584"><ele>908.351013</ele><time>2010-10-07T12:13:17Z</time></trkpt>
<trkpt lat="46.46347397" lon="7.12403786"><ele>909.780029</ele><time>2010-10-07T12:13:24Z</time></trkpt>
<trkpt lat="46.46337498" lon="7.12413684"><ele>910.504028</ele><time>2010-10-07T12:13:28Z</time></trkpt>
<trkpt lat="46.46345100" lon="7.12429182"><ele>911.317993</ele><time>2010-10-07T12:13:31Z</time></trkpt>
<trkpt lat="46.46368201" lon="7.12439081"><ele>913.103027</ele><time>2010-10-07T12:13:39Z</time></trkpt>
<trkpt lat="46.46374202" lon="7.12467285"><ele>914.267029</ele><time>2010-10-07T12:13:45Z</time></trkpt>
<trkpt lat="46.46377404" lon="7.12497484"><ele>914.830994</ele><time>2010-10-07T12:13:52Z</time></trkpt>
<trkpt lat="46.46381302" lon="7.12533080"><ele>916.320984</ele><time>2010-10-07T12:14:00Z</time></trkpt>
<trkpt lat="46.46386498" lon="7.12581182"><ele>917.353027</ele><time>2010-10-07T12:14:09Z</time></trkpt>
<trkpt lat="46.46393002" lon="7.12627080"><ele>917.882996</ele><time>2010-10-07T12:14:17Z</time></trkpt>
<trkpt lat="46.46406103" lon="7.12669172"><ele>917.677979</ele><time>2010-10-07T12:14:24Z</time></trkpt>
<trkpt lat="46.46410001" lon="7.12680479"><ele>917.677979</ele><time>2010-10-07T12:14:26Z</time></trkpt>
<trkpt lat="46.46424502" lon="7.12722571"><ele>918.922974</ele><time>2010-10-07T12:14:33Z</time></trkpt>
<trkpt lat="46.46439002" lon="7.12764772"><ele>919.021973</ele><time>2010-10-07T12:14:41Z</time></trkpt>
<trkpt lat="46.46445297" lon="7.12783271"><ele>921.497986</ele><time>2010-10-07T12:14:45Z</time></trkpt>
<trkpt lat="46.46459496" lon="7.12824466"><ele>923.513</ele><time>2010-10-07T12:14:54Z</time></trkpt>
<trkpt lat="46.46475002" lon="7.12869467"><ele>924.867981</ele><time>2010-10-07T12:15:03Z</time></trkpt>
<trkpt lat="46.46494901" lon="7.12926965"><ele>926.377014</ele><time>2010-10-07T12:15:14Z</time></trkpt>
<trkpt lat="46.46505202" lon="7.12957566"><ele>925.810974</ele><time>2010-10-07T12:15:19Z</time></trkpt>
<trkpt lat="46.46520902" lon="7.13003665"><ele>923.617981</ele><time>2010-10-07T12:15:24Z</time></trkpt>
<trkpt lat="46.46538202" lon="7.13057659"><ele>922.419983</ele><time>2010-10-07T12:15:29Z</time></trkpt>
<trkpt lat="46.46550900" lon="7.13134862"><ele>920.674011</ele><time>2010-10-07T12:15:35Z</time></trkpt>
<trkpt lat="46.46559098" lon="7.13207254"><ele>921.625</ele><time>2010-10-07T12:15:41Z</time></trkpt>
<trkpt lat="46.46569499" lon="7.13302351"><ele>921.880005</ele><time>2010-10-07T12:15:50Z</time></trkpt>
<trkpt lat="46.46579800" lon="7.13384851"><ele>920.591003</ele><time>2010-10-07T12:15:58Z</time></trkpt>
<trkpt lat="46.46587897" lon="7.13465649"><ele>919.325012</ele><time>2010-10-07T12:16:05Z</time></trkpt>
<trkpt lat="46.46602901" lon="7.13541243"><ele>917.679993</ele><time>2010-10-07T12:16:12Z</time></trkpt>
<trkpt lat="46.46620595" lon="7.13593443"><ele>917.491028</ele><time>2010-10-07T12:16:17Z</time></trkpt>
<trkpt lat="46.46643695" lon="7.13633742"><ele>918.260986</ele><time>2010-10-07T12:16:22Z</time></trkpt>
<trkpt lat="46.46672001" lon="7.13700233"><ele>917.986023</ele><time>2010-10-07T12:16:30Z</time></trkpt>
<trkpt lat="46.46698002" lon="7.13784938"><ele>917.911011</ele><time>2010-10-07T12:16:39Z</time></trkpt>
<trkpt lat="46.46717297" lon="7.13839636"><ele>918.862</ele><time>2010-10-07T12:16:46Z</time></trkpt>
<trkpt lat="46.46730297" lon="7.13881628"><ele>919.659973</ele><time>2010-10-07T12:16:53Z</time></trkpt>
<trkpt lat="46.46731999" lon="7.13885534"><ele>919.713013</ele><time>2010-10-07T12:16:54Z</time></trkpt>
<trkpt lat="46.46736500" lon="7.13896732"><ele>919.732971</ele><time>2010-10-07T12:16:57Z</time></trkpt>
<trkpt lat="46.46752702" lon="7.13936829"><ele>917.994995</ele><time>2010-10-07T12:17:03Z</time></trkpt>
<trkpt lat="46.46756097" lon="7.13945328"><ele>917.835022</ele><time>2010-10-07T12:17:04Z</time></trkpt>
<trkpt lat="46.46776096" lon="7.13975829"><ele>916.51001</ele><time>2010-10-07T12:17:08Z</time></trkpt>
<trkpt lat="46.46811501" lon="7.14025624"><ele>914.245972</ele><time>2010-10-07T12:17:14Z</time></trkpt>
<trkpt lat="46.46835700" lon="7.14106020"><ele>911.659973</ele><time>2010-10-07T12:17:21Z</time></trkpt>
<trkpt lat="46.46838600" lon="7.14116522"><ele>911.439026</ele><time>2010-10-07T12:17:22Z</time></trkpt>
<trkpt lat="46.46841400" lon="7.14126622"><ele>911.11499</ele><time>2010-10-07T12:17:23Z</time></trkpt>
<trkpt lat="46.46856202" lon="7.14170617"><ele>910.528015</ele><time>2010-10-07T12:17:28Z</time></trkpt>
<trkpt lat="46.46868197" lon="7.14196818"><ele>910.658997</ele><time>2010-10-07T12:17:31Z</time></trkpt>
<trkpt lat="46.46886997" lon="7.14251315"><ele>911.182983</ele><time>2010-10-07T12:17:37Z</time></trkpt>
<trkpt lat="46.46889302" lon="7.14275815"><ele>911.60498</ele><time>2010-10-07T12:17:40Z</time></trkpt>
<trkpt lat="46.46887500" lon="7.14322416"><ele>913.091003</ele><time>2010-10-07T12:17:46Z</time></trkpt>
<trkpt lat="46.46883602" lon="7.14347511"><ele>914.278015</ele><time>2010-10-07T12:17:51Z</time></trkpt>
<trkpt lat="46.46880995" lon="7.14369412"><ele>914.955017</ele><time>2010-10-07T12:17:54Z</time></trkpt>
<trkpt lat="46.46878095" lon="7.14406810"><ele>916.486023</ele><time>2010-10-07T12:17:59Z</time></trkpt>
<trkpt lat="46.46880802" lon="7.14432910"><ele>918.018005</ele><time>2010-10-07T12:18:03Z</time></trkpt>
<trkpt lat="46.46891397" lon="7.14469605"><ele>917.815979</ele><time>2010-10-07T12:18:09Z</time></trkpt>
<trkpt lat="46.46903601" lon="7.14491506"><ele>916.713013</ele><time>2010-10-07T12:18:12Z</time></trkpt>
<trkpt lat="46.46913701" lon="7.14524211"><ele>915.216003</ele><time>2010-10-07T12:18:15Z</time></trkpt>
<trkpt lat="46.46931797" lon="7.14598405"><ele>914.820007</ele><time>2010-10-07T12:18:22Z</time></trkpt>
<trkpt lat="46.46952199" lon="7.14665005"><ele>914.015991</ele><time>2010-10-07T12:18:29Z</time></trkpt>
<trkpt lat="46.46966498" lon="7.14713602"><ele>914.671021</ele><time>2010-10-07T12:18:35Z</time></trkpt>
<trkpt lat="46.46977898" lon="7.14758301"><ele>915.577026</ele><time>2010-10-07T12:18:42Z</time></trkpt>
<trkpt lat="46.46988995" lon="7.14807593"><ele>916.289978</ele><time>2010-10-07T12:18:51Z</time></trkpt>
<trkpt lat="46.46997696" lon="7.14852292"><ele>916.317017</ele><time>2010-10-07T12:18:58Z</time></trkpt>
<trkpt lat="46.47003596" lon="7.14898793"><ele>917.013977</ele><time>2010-10-07T12:19:05Z</time></trkpt>
<trkpt lat="46.47005398" lon="7.14937893"><ele>917.150024</ele><time>2010-10-07T12:19:11Z</time></trkpt>
<trkpt lat="46.47005993" lon="7.14951890"><ele>917.070984</ele><time>2010-10-07T12:19:13Z</time></trkpt>
<trkpt lat="46.47007401" lon="7.14980790"><ele>916.987</ele><time>2010-10-07T12:19:17Z</time></trkpt>
<trkpt lat="46.47009094" lon="7.15023586"><ele>917.336975</ele><time>2010-10-07T12:19:23Z</time></trkpt>
<trkpt lat="46.47010201" lon="7.15059484"><ele>917.888</ele><time>2010-10-07T12:19:28Z</time></trkpt>
<trkpt lat="46.47010896" lon="7.15090186"><ele>918.892029</ele><time>2010-10-07T12:19:33Z</time></trkpt>
<trkpt lat="46.47010896" lon="7.15096388"><ele>919.036987</ele><time>2010-10-07T12:19:34Z</time></trkpt>
<trkpt lat="46.47010896" lon="7.15108885"><ele>919.213013</ele><time>2010-10-07T12:19:36Z</time></trkpt>
<trkpt lat="46.47010896" lon="7.15128188"><ele>919.867981</ele><time>2010-10-07T12:19:39Z</time></trkpt>
<trkpt lat="46.47010100" lon="7.15162284"><ele>920.723999</ele><time>2010-10-07T12:19:44Z</time></trkpt>
<trkpt lat="46.47007099" lon="7.15198484"><ele>921.786011</ele><time>2010-10-07T12:19:49Z</time></trkpt>
<trkpt lat="46.47006294" lon="7.15206078"><ele>922.033997</ele><time>2010-10-07T12:19:50Z</time></trkpt>
<trkpt lat="46.47001198" lon="7.15255982"><ele>923.60199</ele><time>2010-10-07T12:19:57Z</time></trkpt>
<trkpt lat="46.46999496" lon="7.15275880"><ele>923.778015</ele><time>2010-10-07T12:20:00Z</time></trkpt>
<trkpt lat="46.46997995" lon="7.15296976"><ele>924.20697</ele><time>2010-10-07T12:20:03Z</time></trkpt>
<trkpt lat="46.46997199" lon="7.15323177"><ele>924.632019</ele><time>2010-10-07T12:20:07Z</time></trkpt>
<trkpt lat="46.46996294" lon="7.15352571"><ele>925.393005</ele><time>2010-10-07T12:20:11Z</time></trkpt>
<trkpt lat="46.46995296" lon="7.15390975"><ele>926.41803</ele><time>2010-10-07T12:20:17Z</time></trkpt>
<trkpt lat="46.46993896" lon="7.15412876"><ele>927.794983</ele><time>2010-10-07T12:20:21Z</time></trkpt>
<trkpt lat="46.46990996" lon="7.15428676"><ele>929.070007</ele><time>2010-10-07T12:20:25Z</time></trkpt>
<trkpt lat="46.46985296" lon="7.15454767"><ele>930.788025</ele><time>2010-10-07T12:20:31Z</time></trkpt>
<trkpt lat="46.46980191" lon="7.15473768"><ele>932.150024</ele><time>2010-10-07T12:20:36Z</time></trkpt>
<trkpt lat="46.46973595" lon="7.15490372"><ele>932.908997</ele><time>2010-10-07T12:20:41Z</time></trkpt>
<trkpt lat="46.46966998" lon="7.15505367"><ele>934.088989</ele><time>2010-10-07T12:20:47Z</time></trkpt>
<trkpt lat="46.46962698" lon="7.15517470"><ele>935.062012</ele><time>2010-10-07T12:20:51Z</time></trkpt>
<trkpt lat="46.46957291" lon="7.15541969"><ele>936.28302</ele><time>2010-10-07T12:20:57Z</time></trkpt>
<trkpt lat="46.46961692" lon="7.15566468"><ele>936.786011</ele><time>2010-10-07T12:21:02Z</time></trkpt>
<trkpt lat="46.46964894" lon="7.15576962"><ele>937.599976</ele><time>2010-10-07T12:21:06Z</time></trkpt>
<trkpt lat="46.46975790" lon="7.15596567"><ele>938.44397</ele><time>2010-10-07T12:21:11Z</time></trkpt>
<trkpt lat="46.46985195" lon="7.15612165"><ele>939.369995</ele><time>2010-10-07T12:21:16Z</time></trkpt>
<trkpt lat="46.46995898" lon="7.15634561"><ele>940.770996</ele><time>2010-10-07T12:21:23Z</time></trkpt>
<trkpt lat="46.47004197" lon="7.15651860"><ele>942.026001</ele><time>2010-10-07T12:21:29Z</time></trkpt>
<trkpt lat="46.47012796" lon="7.15675664"><ele>943.882019</ele><time>2010-10-07T12:21:38Z</time></trkpt>
<trkpt lat="46.47020298" lon="7.15689058"><ele>945.338013</ele><time>2010-10-07T12:21:44Z</time></trkpt>
<trkpt lat="46.47028295" lon="7.15702862"><ele>946.820984</ele><time>2010-10-07T12:21:50Z</time></trkpt>
<trkpt lat="46.47037993" lon="7.15718963"><ele>948.710999</ele><time>2010-10-07T12:21:57Z</time></trkpt>
<trkpt lat="46.47047690" lon="7.15731561"><ele>950.723022</ele><time>2010-10-07T12:22:05Z</time></trkpt>
<trkpt lat="46.47060691" lon="7.15745659"><ele>953.374023</ele><time>2010-10-07T12:22:14Z</time></trkpt>
<trkpt lat="46.47070095" lon="7.15757762"><ele>955.27002</ele><time>2010-10-07T12:22:22Z</time></trkpt>
<trkpt lat="46.47074194" lon="7.15764761"><ele>956.08197</ele><time>2010-10-07T12:22:26Z</time></trkpt>
<trkpt lat="46.47077698" lon="7.15772656"><ele>956.838013</ele><time>2010-10-07T12:22:30Z</time></trkpt>
<trkpt lat="46.47080891" lon="7.15800458"><ele>958.359985</ele><time>2010-10-07T12:22:39Z</time></trkpt>
<trkpt lat="46.47078192" lon="7.15820859"><ele>959.966003</ele><time>2010-10-07T12:22:46Z</time></trkpt>
<trkpt lat="46.47070992" lon="7.15839558"><ele>960.992004</ele><time>2010-10-07T12:22:53Z</time></trkpt>
<trkpt lat="46.47055292" lon="7.15859254"><ele>961.905029</ele><time>2010-10-07T12:23:02Z</time></trkpt>
<trkpt lat="46.47035796" lon="7.15870854"><ele>962.315979</ele><time>2010-10-07T12:23:10Z</time></trkpt>
<trkpt lat="46.47019895" lon="7.15888254"><ele>963.231018</ele><time>2010-10-07T12:23:18Z</time></trkpt>
<trkpt lat="46.47010993" lon="7.15902553"><ele>963.565979</ele><time>2010-10-07T12:23:24Z</time></trkpt>
<trkpt lat="46.47014597" lon="7.15926650"><ele>962.841003</ele><time>2010-10-07T12:23:29Z</time></trkpt>
<trkpt lat="46.47001890" lon="7.15967351"><ele>960.987976</ele><time>2010-10-07T12:23:35Z</time></trkpt>
<trkpt lat="46.46998889" lon="7.15980451"><ele>960.382019</ele><time>2010-10-07T12:23:37Z</time></trkpt>
<trkpt lat="46.46996291" lon="7.16000047"><ele>959.408997</ele><time>2010-10-07T12:23:40Z</time></trkpt>
<trkpt lat="46.46997992" lon="7.16015151"><ele>958.98999</ele><time>2010-10-07T12:23:42Z</time></trkpt>
<trkpt lat="46.47005092" lon="7.16056246"><ele>957.744995</ele><time>2010-10-07T12:23:47Z</time></trkpt>
<trkpt lat="46.47017790" lon="7.16122444"><ele>955.344971</ele><time>2010-10-07T12:23:54Z</time></trkpt>
<trkpt lat="46.47028695" lon="7.16179045"><ele>951.888977</ele><time>2010-10-07T12:23:59Z</time></trkpt>
<trkpt lat="46.47032391" lon="7.16195741"><ele>950.312988</ele><time>2010-10-07T12:24:01Z</time></trkpt>
<trkpt lat="46.47039893" lon="7.16204340"><ele>949.528015</ele><time>2010-10-07T12:24:04Z</time></trkpt>
<trkpt lat="46.47043095" lon="7.16206545"><ele>949.119995</ele><time>2010-10-07T12:24:05Z</time></trkpt>
<trkpt lat="46.47073396" lon="7.16214239"><ele>946.18103</ele><time>2010-10-07T12:24:10Z</time></trkpt>
<trkpt lat="46.47089196" lon="7.16219042"><ele>945.203003</ele><time>2010-10-07T12:24:12Z</time></trkpt>
<trkpt lat="46.47097092" lon="7.16221640"><ele>944.682007</ele><time>2010-10-07T12:24:13Z</time></trkpt>
<trkpt lat="46.47111693" lon="7.16234540"><ele>942.750977</ele><time>2010-10-07T12:24:16Z</time></trkpt>
<trkpt lat="46.47111291" lon="7.16242242"><ele>942.528015</ele><time>2010-10-07T12:24:17Z</time></trkpt>
<trkpt lat="46.47108089" lon="7.16304040"><ele>942.281006</ele><time>2010-10-07T12:24:25Z</time></trkpt>
<trkpt lat="46.47103889" lon="7.16343634"><ele>942.366028</ele><time>2010-10-07T12:24:31Z</time></trkpt>
<trkpt lat="46.47101492" lon="7.16356240"><ele>942.518005</ele><time>2010-10-07T12:24:34Z</time></trkpt>
<trkpt lat="46.47097393" lon="7.16370732"><ele>943.052002</ele><time>2010-10-07T12:24:38Z</time></trkpt>
<trkpt lat="46.47088491" lon="7.16402632"><ele>943.570984</ele><time>2010-10-07T12:24:45Z</time></trkpt>
<trkpt lat="46.47086890" lon="7.16407937"><ele>943.708008</ele><time>2010-10-07T12:24:46Z</time></trkpt>
<trkpt lat="46.47071191" lon="7.16437935"><ele>941.854004</ele><time>2010-10-07T12:24:51Z</time></trkpt>
<trkpt lat="46.47066195" lon="7.16445436"><ele>941.557983</ele><time>2010-10-07T12:24:52Z</time></trkpt>
<trkpt lat="46.47049489" lon="7.16484628"><ele>939.478027</ele><time>2010-10-07T12:24:56Z</time></trkpt>
<trkpt lat="46.47049791" lon="7.16504233"><ele>937.260986</ele><time>2010-10-07T12:24:58Z</time></trkpt>
<trkpt lat="46.47067695" lon="7.16550332"><ele>934.275024</ele><time>2010-10-07T12:25:03Z</time></trkpt>
<trkpt lat="46.47086688" lon="7.16553131"><ele>935.689026</ele><time>2010-10-07T12:25:06Z</time></trkpt>
<trkpt lat="46.47102388" lon="7.16559728"><ele>937.564026</ele><time>2010-10-07T12:25:10Z</time></trkpt>
<trkpt lat="46.47105288" lon="7.16562628"><ele>938.11499</ele><time>2010-10-07T12:25:11Z</time></trkpt>
<trkpt lat="46.47111088" lon="7.16568428"><ele>938.875977</ele><time>2010-10-07T12:25:13Z</time></trkpt>
<trkpt lat="46.47120593" lon="7.16584529"><ele>940.434998</ele><time>2010-10-07T12:25:17Z</time></trkpt>
<trkpt lat="46.47124290" lon="7.16601225"><ele>941.523987</ele><time>2010-10-07T12:25:21Z</time></trkpt>
<trkpt lat="46.47124592" lon="7.16614124"><ele>941.927979</ele><time>2010-10-07T12:25:24Z</time></trkpt>
<trkpt lat="46.47121691" lon="7.16620025"><ele>942.27002</ele><time>2010-10-07T12:25:26Z</time></trkpt>
<trkpt lat="46.47116092" lon="7.16652923"><ele>943.320007</ele><time>2010-10-07T12:25:33Z</time></trkpt>
<trkpt lat="46.47121188" lon="7.16677523"><ele>943.744995</ele><time>2010-10-07T12:25:38Z</time></trkpt>
<trkpt lat="46.47130492" lon="7.16715022"><ele>944.442017</ele><time>2010-10-07T12:25:45Z</time></trkpt>
<trkpt lat="46.47139695" lon="7.16748825"><ele>945.075012</ele><time>2010-10-07T12:25:51Z</time></trkpt>
<trkpt lat="46.47158487" lon="7.16811117"><ele>946.234009</ele><time>2010-10-07T12:26:02Z</time></trkpt>
<trkpt lat="46.47176995" lon="7.16873920"><ele>947.463013</ele><time>2010-10-07T12:26:13Z</time></trkpt>
<trkpt lat="46.47193993" lon="7.16934712"><ele>948.080017</ele><time>2010-10-07T12:26:23Z</time></trkpt>
<trkpt lat="46.47208695" lon="7.16980115"><ele>948.601013</ele><time>2010-10-07T12:26:30Z</time></trkpt>
<trkpt lat="46.47229189" lon="7.17036607"><ele>949.320007</ele><time>2010-10-07T12:26:38Z</time></trkpt>
<trkpt lat="46.47245693" lon="7.17076713"><ele>950.914001</ele><time>2010-10-07T12:26:45Z</time></trkpt>
<trkpt lat="46.47262389" lon="7.17125410"><ele>953.140015</ele><time>2010-10-07T12:26:55Z</time></trkpt>
<trkpt lat="46.47275490" lon="7.17172707"><ele>955.098022</ele><time>2010-10-07T12:27:05Z</time></trkpt>
<trkpt lat="46.47286688" lon="7.17220600"><ele>957.085022</ele><time>2010-10-07T12:27:15Z</time></trkpt>
<trkpt lat="46.47298691" lon="7.17272306"><ele>958.903992</ele><time>2010-10-07T12:27:26Z</time></trkpt>
<trkpt lat="46.47306989" lon="7.17306402"><ele>960.213013</ele><time>2010-10-07T12:27:33Z</time></trkpt>
<trkpt lat="46.47320493" lon="7.17354001"><ele>961.133972</ele><time>2010-10-07T12:27:42Z</time></trkpt>
<trkpt lat="46.47327894" lon="7.17374000"><ele>961.419983</ele><time>2010-10-07T12:27:46Z</time></trkpt>
<trkpt lat="46.47344993" lon="7.17416796"><ele>962.367004</ele><time>2010-10-07T12:27:54Z</time></trkpt>
<trkpt lat="46.47371991" lon="7.17465493"><ele>963.182007</ele><time>2010-10-07T12:28:04Z</time></trkpt>
<trkpt lat="46.47395393" lon="7.17509497"><ele>964.023987</ele><time>2010-10-07T12:28:13Z</time></trkpt>
<trkpt lat="46.47415594" lon="7.17552494"><ele>964.867004</ele><time>2010-10-07T12:28:21Z</time></trkpt>
<trkpt lat="46.47432291" lon="7.17614493"><ele>965.991028</ele><time>2010-10-07T12:28:31Z</time></trkpt>
<trkpt lat="46.47441393" lon="7.17642789"><ele>967.296021</ele><time>2010-10-07T12:28:37Z</time></trkpt>
<trkpt lat="46.47448090" lon="7.17663391"><ele>968.591003</ele><time>2010-10-07T12:28:43Z</time></trkpt>
<trkpt lat="46.47457587" lon="7.17692886"><ele>970.505005</ele><time>2010-10-07T12:28:52Z</time></trkpt>
<trkpt lat="46.47467293" lon="7.17723085"><ele>971.429016</ele><time>2010-10-07T12:29:00Z</time></trkpt>
<trkpt lat="46.47476287" lon="7.17757986"><ele>971.23999</ele><time>2010-10-07T12:29:07Z</time></trkpt>
<trkpt lat="46.47485792" lon="7.17798687"><ele>970.789001</ele><time>2010-10-07T12:29:13Z</time></trkpt>
<trkpt lat="46.47507090" lon="7.17872780"><ele>969.598999</ele><time>2010-10-07T12:29:22Z</time></trkpt>
<trkpt lat="46.47517291" lon="7.17941777"><ele>969.187012</ele><time>2010-10-07T12:29:29Z</time></trkpt>
<trkpt lat="46.47525991" lon="7.17984473"><ele>970.317017</ele><time>2010-10-07T12:29:34Z</time></trkpt>
<trkpt lat="46.47542789" lon="7.18021872"><ele>971.705017</ele><time>2010-10-07T12:29:40Z</time></trkpt>
<trkpt lat="46.47564188" lon="7.18070175"><ele>973.379028</ele><time>2010-10-07T12:29:49Z</time></trkpt>
<trkpt lat="46.47577993" lon="7.18111371"><ele>975.362976</ele><time>2010-10-07T12:29:58Z</time></trkpt>
<trkpt lat="46.47587691" lon="7.18149272"><ele>976.71698</ele><time>2010-10-07T12:30:06Z</time></trkpt>
<trkpt lat="46.47597388" lon="7.18191172"><ele>978.416016</ele><time>2010-10-07T12:30:15Z</time></trkpt>
<trkpt lat="46.47608788" lon="7.18240263"><ele>980.257996</ele><time>2010-10-07T12:30:26Z</time></trkpt>
<trkpt lat="46.47619089" lon="7.18284861"><ele>981.747009</ele><time>2010-10-07T12:30:36Z</time></trkpt>
<trkpt lat="46.47626993" lon="7.18318966"><ele>983.007996</ele><time>2010-10-07T12:30:44Z</time></trkpt>
<trkpt lat="46.47636289" lon="7.18359063"><ele>984.46698</ele><time>2010-10-07T12:30:54Z</time></trkpt>
<trkpt lat="46.47644989" lon="7.18396361"><ele>984.690002</ele><time>2010-10-07T12:31:02Z</time></trkpt>
<trkpt lat="46.47657193" lon="7.18426259"><ele>985.078003</ele><time>2010-10-07T12:31:08Z</time></trkpt>
<trkpt lat="46.47682490" lon="7.18454161"><ele>986.197998</ele><time>2010-10-07T12:31:16Z</time></trkpt>
<trkpt lat="46.47712288" lon="7.18484955"><ele>986.822021</ele><time>2010-10-07T12:31:25Z</time></trkpt>
<trkpt lat="46.47734793" lon="7.18518859"><ele>987.31897</ele><time>2010-10-07T12:31:33Z</time></trkpt>
<trkpt lat="46.47750191" lon="7.18564958"><ele>989.804993</ele><time>2010-10-07T12:31:42Z</time></trkpt>
<trkpt lat="46.47757894" lon="7.18592550"><ele>991.083008</ele><time>2010-10-07T12:31:48Z</time></trkpt>
<trkpt lat="46.47767592" lon="7.18627250"><ele>992.107971</ele><time>2010-10-07T12:31:56Z</time></trkpt>
<trkpt lat="46.47780391" lon="7.18658949"><ele>992.512024</ele><time>2010-10-07T12:32:03Z</time></trkpt>
<trkpt lat="46.47798890" lon="7.18689751"><ele>991.645996</ele><time>2010-10-07T12:32:09Z</time></trkpt>
<trkpt lat="46.47826391" lon="7.18725650"><ele>990.307983</ele><time>2010-10-07T12:32:14Z</time></trkpt>
<trkpt lat="46.47852593" lon="7.18763552"><ele>991.375</ele><time>2010-10-07T12:32:19Z</time></trkpt>
<trkpt lat="46.47873388" lon="7.18818644"><ele>992.182983</ele><time>2010-10-07T12:32:26Z</time></trkpt>
<trkpt lat="46.47887495" lon="7.18880047"><ele>991.255981</ele><time>2010-10-07T12:32:33Z</time></trkpt>
<trkpt lat="46.47899791" lon="7.18940738"><ele>989.744995</ele><time>2010-10-07T12:32:39Z</time></trkpt>
<trkpt lat="46.47918491" lon="7.19010239"><ele>986.89801</ele><time>2010-10-07T12:32:45Z</time></trkpt>
<trkpt lat="46.47947090" lon="7.19055038"><ele>984.585022</ele><time>2010-10-07T12:32:49Z</time></trkpt>
<trkpt lat="46.47966293" lon="7.19093334"><ele>983.900024</ele><time>2010-10-07T12:32:52Z</time></trkpt>
<trkpt lat="46.47978992" lon="7.19159934"><ele>983.616028</ele><time>2010-10-07T12:32:57Z</time></trkpt>
<trkpt lat="46.47994087" lon="7.19243733"><ele>980.830017</ele><time>2010-10-07T12:33:03Z</time></trkpt>
<trkpt lat="46.48016492" lon="7.19353624"><ele>975.870972</ele><time>2010-10-07T12:33:10Z</time></trkpt>
<trkpt lat="46.48029987" lon="7.19416226"><ele>974.54303</ele><time>2010-10-07T12:33:14Z</time></trkpt>
<trkpt lat="46.48050791" lon="7.19455025"><ele>974.703003</ele><time>2010-10-07T12:33:18Z</time></trkpt>
<trkpt lat="46.48097495" lon="7.19528121"><ele>974.052002</ele><time>2010-10-07T12:33:28Z</time></trkpt>
<trkpt lat="46.48106791" lon="7.19543116"><ele>973.791016</ele><time>2010-10-07T12:33:30Z</time></trkpt>
<trkpt lat="46.48133688" lon="7.19616119"><ele>972.780029</ele><time>2010-10-07T12:33:38Z</time></trkpt>
<trkpt lat="46.48152790" lon="7.19683516"><ele>971.906982</ele><time>2010-10-07T12:33:45Z</time></trkpt>
<trkpt lat="46.48173494" lon="7.19729011"><ele>970.455994</ele><time>2010-10-07T12:33:50Z</time></trkpt>
<trkpt lat="46.48192093" lon="7.19758313"><ele>968.258972</ele><time>2010-10-07T12:33:53Z</time></trkpt>
<trkpt lat="46.48234095" lon="7.19799107"><ele>963.719971</ele><time>2010-10-07T12:33:58Z</time></trkpt>
<trkpt lat="46.48275293" lon="7.19831108"><ele>960.190979</ele><time>2010-10-07T12:34:03Z</time></trkpt>
<trkpt lat="46.48282091" lon="7.19837905"><ele>959.369019</ele><time>2010-10-07T12:34:04Z</time></trkpt>
<trkpt lat="46.48294194" lon="7.19852707"><ele>957.895996</ele><time>2010-10-07T12:34:06Z</time></trkpt>
<trkpt lat="46.48308393" lon="7.19884809"><ele>955.481018</ele><time>2010-10-07T12:34:09Z</time></trkpt>
<trkpt lat="46.48328191" lon="7.19988204"><ele>949.106018</ele><time>2010-10-07T12:34:16Z</time></trkpt>
<trkpt lat="46.48338090" lon="7.20037203"><ele>947.768982</ele><time>2010-10-07T12:34:19Z</time></trkpt>
<trkpt lat="46.48352389" lon="7.20109402"><ele>947.747009</ele><time>2010-10-07T12:34:24Z</time></trkpt>
<trkpt lat="46.48367795" lon="7.20153196"><ele>948.476013</ele><time>2010-10-07T12:34:28Z</time></trkpt>
<trkpt lat="46.48389488" lon="7.20168895"><ele>948.883972</ele><time>2010-10-07T12:34:31Z</time></trkpt>
<trkpt lat="46.48392790" lon="7.20181400"><ele>949.297974</ele><time>2010-10-07T12:34:34Z</time></trkpt>
<trkpt lat="46.48398691" lon="7.20212194"><ele>947.539001</ele><time>2010-10-07T12:34:39Z</time></trkpt>
<trkpt lat="46.48402488" lon="7.20277897"><ele>948.15802</ele><time>2010-10-07T12:34:48Z</time></trkpt>
<trkpt lat="46.48411188" lon="7.20331288"><ele>948.028992</ele><time>2010-10-07T12:34:56Z</time></trkpt>
<trkpt lat="46.48416494" lon="7.20373187"><ele>947.810974</ele><time>2010-10-07T12:35:02Z</time></trkpt>
<trkpt lat="46.48420793" lon="7.20428187"><ele>948.008972</ele><time>2010-10-07T12:35:10Z</time></trkpt>
<trkpt lat="46.48421791" lon="7.20442184"><ele>948.091003</ele><time>2010-10-07T12:35:12Z</time></trkpt>
<trkpt lat="46.48421187" lon="7.20459987"><ele>948.242981</ele><time>2010-10-07T12:35:14Z</time></trkpt>
<trkpt lat="46.48411288" lon="7.20483782"><ele>949.189026</ele><time>2010-10-07T12:35:19Z</time></trkpt>
<trkpt lat="46.48409888" lon="7.20508885"><ele>951.195007</ele><time>2010-10-07T12:35:24Z</time></trkpt>
<trkpt lat="46.48409687" lon="7.20515783"><ele>951.919006</ele><time>2010-10-07T12:35:26Z</time></trkpt>
<trkpt lat="46.48409092" lon="7.20530283"><ele>952.421021</ele><time>2010-10-07T12:35:30Z</time></trkpt>
<trkpt lat="46.48408589" lon="7.20544280"><ele>952.473999</ele><time>2010-10-07T12:35:33Z</time></trkpt>
<trkpt lat="46.48407993" lon="7.20560281"><ele>952.815979</ele><time>2010-10-07T12:35:36Z</time></trkpt>
<trkpt lat="46.48407792" lon="7.20564379"><ele>953.142029</ele><time>2010-10-07T12:35:37Z</time></trkpt>
<trkpt lat="46.48410189" lon="7.20585585"><ele>954.817993</ele><time>2010-10-07T12:35:42Z</time></trkpt>
<trkpt lat="46.48412092" lon="7.20611283"><ele>956.757996</ele><time>2010-10-07T12:35:49Z</time></trkpt>
<trkpt lat="46.48412092" lon="7.20628976"><ele>958.062012</ele><time>2010-10-07T12:35:55Z</time></trkpt>
<trkpt lat="46.48419594" lon="7.20653576"><ele>958.817017</ele><time>2010-10-07T12:36:02Z</time></trkpt>
<trkpt lat="46.48428093" lon="7.20678981"><ele>959.362</ele><time>2010-10-07T12:36:08Z</time></trkpt>
<trkpt lat="46.48436592" lon="7.20702877"><ele>959.030029</ele><time>2010-10-07T12:36:14Z</time></trkpt>
<trkpt lat="46.48441890" lon="7.20711577"><ele>958.789978</ele><time>2010-10-07T12:36:18Z</time></trkpt>
<trkpt lat="46.48441890" lon="7.20711577"><ele>958.731995</ele><time>2010-10-07T12:36:19Z</time></trkpt>
<trkpt lat="46.48448687" lon="7.20720872"><ele>958.552002</ele><time>2010-10-07T12:36:27Z</time></trkpt>
<trkpt lat="46.48457287" lon="7.20736579"><ele>958.979004</ele><time>2010-10-07T12:36:32Z</time></trkpt>
<trkpt lat="46.48460389" lon="7.20751775"><ele>958.336975</ele><time>2010-10-07T12:36:36Z</time></trkpt>
<trkpt lat="46.48462886" lon="7.20772670"><ele>956.84198</ele><time>2010-10-07T12:36:39Z</time></trkpt>
<trkpt lat="46.48475786" lon="7.20805375"><ele>954.991028</ele><time>2010-10-07T12:36:42Z</time></trkpt>
<trkpt lat="46.48498493" lon="7.20849270"><ele>952.565979</ele><time>2010-10-07T12:36:48Z</time></trkpt>
<trkpt lat="46.48512993" lon="7.20878169"><ele>952.560974</ele><time>2010-10-07T12:36:52Z</time></trkpt>
<trkpt lat="46.48517092" lon="7.20884774"><ele>952.554993</ele><time>2010-10-07T12:36:54Z</time></trkpt>
<trkpt lat="46.48524686" lon="7.20897271"><ele>952.392029</ele><time>2010-10-07T12:37:02Z</time></trkpt>
<trkpt lat="46.48529187" lon="7.20906566"><ele>952.385986</ele><time>2010-10-07T12:37:07Z</time></trkpt>
<trkpt lat="46.48529187" lon="7.20906566"><ele>952.307983</ele><time>2010-10-07T12:37:08Z</time></trkpt>
<trkpt lat="46.48530990" lon="7.20910472"><ele>952.190002</ele><time>2010-10-07T12:37:37Z</time></trkpt>
<trkpt lat="46.48549388" lon="7.20950570"><ele>952.44397</ele><time>2010-10-07T12:38:04Z</time></trkpt>
<trkpt lat="46.48588490" lon="7.20972563"><ele>952.653992</ele><time>2010-10-07T12:38:10Z</time></trkpt>
<trkpt lat="46.48603091" lon="7.20989268"><ele>952.848999</ele><time>2010-10-07T12:38:19Z</time></trkpt>
<trkpt lat="46.48613292" lon="7.21009669"><ele>953.059998</ele><time>2010-10-07T12:38:25Z</time></trkpt>
<trkpt lat="46.48625588" lon="7.21039767"><ele>954.203003</ele><time>2010-10-07T12:38:34Z</time></trkpt>
<trkpt lat="46.48632989" lon="7.21066664"><ele>955.609985</ele><time>2010-10-07T12:38:41Z</time></trkpt>
<trkpt lat="46.48628991" lon="7.21080267"><ele>956.481995</ele><time>2010-10-07T12:38:45Z</time></trkpt>
<trkpt lat="46.48627189" lon="7.21086260"><ele>957.010986</ele><time>2010-10-07T12:38:47Z</time></trkpt>
<trkpt lat="46.48626694" lon="7.21105361"><ele>958.254028</ele><time>2010-10-07T12:38:53Z</time></trkpt>
<trkpt lat="46.48629988" lon="7.21121865"><ele>959.254028</ele><time>2010-10-07T12:38:57Z</time></trkpt>
<trkpt lat="46.48632889" lon="7.21136960"><ele>960.231018</ele><time>2010-10-07T12:39:01Z</time></trkpt>
<trkpt lat="46.48630592" lon="7.21152558"><ele>961.539001</ele><time>2010-10-07T12:39:05Z</time></trkpt>
<trkpt lat="46.48628790" lon="7.21175658"><ele>963.411987</ele><time>2010-10-07T12:39:11Z</time></trkpt>
<trkpt lat="46.48625990" lon="7.21202655"><ele>965.633972</ele><time>2010-10-07T12:39:19Z</time></trkpt>
<trkpt lat="46.48623593" lon="7.21221857"><ele>967.442017</ele><time>2010-10-07T12:39:25Z</time></trkpt>
<trkpt lat="46.48618790" lon="7.21243154"><ele>968.869995</ele><time>2010-10-07T12:39:32Z</time></trkpt>
<trkpt lat="46.48617893" lon="7.21245954"><ele>968.877014</ele><time>2010-10-07T12:39:33Z</time></trkpt>
<trkpt lat="46.48609192" lon="7.21273454"><ele>969.593994</ele><time>2010-10-07T12:39:41Z</time></trkpt>
<trkpt lat="46.48606594" lon="7.21281559"><ele>969.549011</ele><time>2010-10-07T12:39:43Z</time></trkpt>
<trkpt lat="46.48613785" lon="7.21358250"><ele>970.596985</ele><time>2010-10-07T12:39:50Z</time></trkpt>
<trkpt lat="46.48616191" lon="7.21370152"><ele>974.403992</ele><time>2010-10-07T12:39:57Z</time></trkpt>
<trkpt lat="46.48620792" lon="7.21393352"><ele>975.755981</ele><time>2010-10-07T12:40:04Z</time></trkpt>
<trkpt lat="46.48623793" lon="7.21408447"><ele>976.239014</ele><time>2010-10-07T12:40:11Z</time></trkpt>
<trkpt lat="46.48626693" lon="7.21422646"><ele>975.174011</ele><time>2010-10-07T12:40:16Z</time></trkpt>
<trkpt lat="46.48626886" lon="7.21436249"><ele>972.812988</ele><time>2010-10-07T12:40:20Z</time></trkpt>
<trkpt lat="46.48627288" lon="7.21454848"><ele>969.763</ele><time>2010-10-07T12:40:23Z</time></trkpt>
<trkpt lat="46.48627791" lon="7.21482750"><ele>967.723022</ele><time>2010-10-07T12:40:26Z</time></trkpt>
<trkpt lat="46.48628285" lon="7.21514742"><ele>967.244019</ele><time>2010-10-07T12:40:30Z</time></trkpt>
<trkpt lat="46.48628587" lon="7.21527549"><ele>966.492981</ele><time>2010-10-07T12:40:32Z</time></trkpt>
<trkpt lat="46.48628788" lon="7.21540642"><ele>965.911011</ele><time>2010-10-07T12:40:36Z</time></trkpt>
<trkpt lat="46.48628788" lon="7.21540642"><ele>967.096008</ele><time>2010-10-07T12:40:38Z</time></trkpt>
<trkpt lat="46.48624488" lon="7.21559944"><ele>977.815002</ele><time>2010-10-07T12:41:05Z</time></trkpt>
<trkpt lat="46.48624488" lon="7.21559944"><ele>977.629028</ele><time>2010-10-07T12:41:08Z</time></trkpt>
<trkpt lat="46.48673288" lon="7.21647339"><ele>977.237</ele><time>2010-10-07T12:42:23Z</time></trkpt>
<trkpt lat="46.48659290" lon="7.21658143"><ele>979.398987</ele><time>2010-10-07T12:42:29Z</time></trkpt>
<trkpt lat="46.48648686" lon="7.21666944"><ele>981.674011</ele><time>2010-10-07T12:42:35Z</time></trkpt>
<trkpt lat="46.48642391" lon="7.21674638"><ele>983.89502</ele><time>2010-10-07T12:42:39Z</time></trkpt>
<trkpt lat="46.48639885" lon="7.21678242"><ele>985.098999</ele><time>2010-10-07T12:42:41Z</time></trkpt>
<trkpt lat="46.48638385" lon="7.21682240"><ele>985.745972</ele><time>2010-10-07T12:42:43Z</time></trkpt>
<trkpt lat="46.48636692" lon="7.21687939"><ele>986.590027</ele><time>2010-10-07T12:42:46Z</time></trkpt>
<trkpt lat="46.48633389" lon="7.21698936"><ele>988.122986</ele><time>2010-10-07T12:42:52Z</time></trkpt>
<trkpt lat="46.48632392" lon="7.21705038"><ele>988.195007</ele><time>2010-10-07T12:42:55Z</time></trkpt>
<trkpt lat="46.48629785" lon="7.21724340"><ele>988.062988</ele><time>2010-10-07T12:43:02Z</time></trkpt>
<trkpt lat="46.48627689" lon="7.21737038"><ele>988.549011</ele><time>2010-10-07T12:43:08Z</time></trkpt>
<trkpt lat="46.48627287" lon="7.21747935"><ele>988.997986</ele><time>2010-10-07T12:43:13Z</time></trkpt>
<trkpt lat="46.48625987" lon="7.21758537"><ele>989.676025</ele><time>2010-10-07T12:43:18Z</time></trkpt>
<trkpt lat="46.48626985" lon="7.21763139"><ele>989.861023</ele><time>2010-10-07T12:43:20Z</time></trkpt>
<trkpt lat="46.48629189" lon="7.21768536"><ele>990.177002</ele><time>2010-10-07T12:43:23Z</time></trkpt>
<trkpt lat="46.48626390" lon="7.21786238"><ele>990.166992</ele><time>2010-10-07T12:43:29Z</time></trkpt>
<trkpt lat="46.48628091" lon="7.21800738"><ele>989.906006</ele><time>2010-10-07T12:43:33Z</time></trkpt>
<trkpt lat="46.48628887" lon="7.21812934"><ele>989.304016</ele><time>2010-10-07T12:43:35Z</time></trkpt>
<trkpt lat="46.48628988" lon="7.21842135"><ele>986.653992</ele><time>2010-10-07T12:43:39Z</time></trkpt>
<trkpt lat="46.48620488" lon="7.21878528"><ele>984.86499</ele><time>2010-10-07T12:43:43Z</time></trkpt>
<trkpt lat="46.48610388" lon="7.21908031"><ele>983.567993</ele><time>2010-10-07T12:43:46Z</time></trkpt>
<trkpt lat="46.48604185" lon="7.21927132"><ele>983.380981</ele><time>2010-10-07T12:43:48Z</time></trkpt>
<trkpt lat="46.48590187" lon="7.21959728"><ele>985.432007</ele><time>2010-10-07T12:43:53Z</time></trkpt>
<trkpt lat="46.48588385" lon="7.21967632"><ele>986.241028</ele><time>2010-10-07T12:43:55Z</time></trkpt>
<trkpt lat="46.48591386" lon="7.21994528"><ele>987.023987</ele><time>2010-10-07T12:44:00Z</time></trkpt>
<trkpt lat="46.48593783" lon="7.22002030"><ele>987.966003</ele><time>2010-10-07T12:44:02Z</time></trkpt>
<trkpt lat="46.48598083" lon="7.22015030"><ele>989.872009</ele><time>2010-10-07T12:44:06Z</time></trkpt>
<trkpt lat="46.48597588" lon="7.22021525"><ele>990.440002</ele><time>2010-10-07T12:44:08Z</time></trkpt>
<trkpt lat="46.48585585" lon="7.22035925"><ele>989.862976</ele><time>2010-10-07T12:44:13Z</time></trkpt>
<trkpt lat="46.48583682" lon="7.22050928"><ele>990.244995</ele><time>2010-10-07T12:44:16Z</time></trkpt>
<trkpt lat="46.48585283" lon="7.22059025"><ele>990.978027</ele><time>2010-10-07T12:44:18Z</time></trkpt>
<trkpt lat="46.48585182" lon="7.22080322"><ele>990.854004</ele><time>2010-10-07T12:44:23Z</time></trkpt>
<trkpt lat="46.48584587" lon="7.22085426"><ele>990.309998</ele><time>2010-10-07T12:44:24Z</time></trkpt>
<trkpt lat="46.48591888" lon="7.22115726"><ele>986.299988</ele><time>2010-10-07T12:44:28Z</time></trkpt>
<trkpt lat="46.48605282" lon="7.22151624"><ele>983.164978</ele><time>2010-10-07T12:44:33Z</time></trkpt>
<trkpt lat="46.48599784" lon="7.22162520"><ele>981.559021</ele><time>2010-10-07T12:44:37Z</time></trkpt>
<trkpt lat="46.48595886" lon="7.22172218"><ele>980.489014</ele><time>2010-10-07T12:44:39Z</time></trkpt>
<trkpt lat="46.48594687" lon="7.22178521"><ele>980.187012</ele><time>2010-10-07T12:44:40Z</time></trkpt>
<trkpt lat="46.48598987" lon="7.22215316"><ele>979.090027</ele><time>2010-10-07T12:44:46Z</time></trkpt>
<trkpt lat="46.48609389" lon="7.22239715"><ele>981.671021</ele><time>2010-10-07T12:44:53Z</time></trkpt>
<trkpt lat="46.48613882" lon="7.22254014"><ele>983.840027</ele><time>2010-10-07T12:44:57Z</time></trkpt>
<trkpt lat="46.48609883" lon="7.22274817"><ele>985.697998</ele><time>2010-10-07T12:45:04Z</time></trkpt>
<trkpt lat="46.48603287" lon="7.22294916"><ele>988.205994</ele><time>2010-10-07T12:45:10Z</time></trkpt>
<trkpt lat="46.48598283" lon="7.22309910"><ele>990.533997</ele><time>2010-10-07T12:45:16Z</time></trkpt>
<trkpt lat="46.48592189" lon="7.22324913"><ele>992.481018</ele><time>2010-10-07T12:45:24Z</time></trkpt>
<trkpt lat="46.48593086" lon="7.22337217"><ele>992.984009</ele><time>2010-10-07T12:45:30Z</time></trkpt>
<trkpt lat="46.48591283" lon="7.22346512"><ele>993.103027</ele><time>2010-10-07T12:45:34Z</time></trkpt>
<trkpt lat="46.48590881" lon="7.22349714"><ele>993.427002</ele><time>2010-10-07T12:45:36Z</time></trkpt>
<trkpt lat="46.48587084" lon="7.22359613"><ele>994.065002</ele><time>2010-10-07T12:45:40Z</time></trkpt>
<trkpt lat="46.48588081" lon="7.22366109"><ele>994.598999</ele><time>2010-10-07T12:45:44Z</time></trkpt>
<trkpt lat="46.48594485" lon="7.22379209"><ele>995.252014</ele><time>2010-10-07T12:45:52Z</time></trkpt>
<trkpt lat="46.48598986" lon="7.22388110"><ele>995.705017</ele><time>2010-10-07T12:45:58Z</time></trkpt>
<trkpt lat="46.48602582" lon="7.22395914"><ele>995.825989</ele><time>2010-10-07T12:46:02Z</time></trkpt>
<trkpt lat="46.48612288" lon="7.22413314"><ele>996.372986</ele><time>2010-10-07T12:46:11Z</time></trkpt>
<trkpt lat="46.48617686" lon="7.22424310"><ele>996.268982</ele><time>2010-10-07T12:46:15Z</time></trkpt>
<trkpt lat="46.48627284" lon="7.22445105"><ele>995.93103</ele><time>2010-10-07T12:46:20Z</time></trkpt>
<trkpt lat="46.48637484" lon="7.22464106"><ele>995.729004</ele><time>2010-10-07T12:46:25Z</time></trkpt>
<trkpt lat="46.48645581" lon="7.22483510"><ele>996.440979</ele><time>2010-10-07T12:46:30Z</time></trkpt>
<trkpt lat="46.48650284" lon="7.22500206"><ele>996.768982</ele><time>2010-10-07T12:46:35Z</time></trkpt>
<trkpt lat="46.48651784" lon="7.22526206"><ele>997.780029</ele><time>2010-10-07T12:46:42Z</time></trkpt>
<trkpt lat="46.48654382" lon="7.22549406"><ele>997.554993</ele><time>2010-10-07T12:46:47Z</time></trkpt>
<trkpt lat="46.48657282" lon="7.22585606"><ele>997.820984</ele><time>2010-10-07T12:46:53Z</time></trkpt>
<trkpt lat="46.48654784" lon="7.22604900"><ele>998.130981</ele><time>2010-10-07T12:46:57Z</time></trkpt>
<trkpt lat="46.48645983" lon="7.22627706"><ele>998.283997</ele><time>2010-10-07T12:47:02Z</time></trkpt>
<trkpt lat="46.48642287" lon="7.22638401"><ele>997.625</ele><time>2010-10-07T12:47:04Z</time></trkpt>
<trkpt lat="46.48629487" lon="7.22667301"><ele>996.242981</ele><time>2010-10-07T12:47:08Z</time></trkpt>
<trkpt lat="46.48609881" lon="7.22716299"><ele>994.015015</ele><time>2010-10-07T12:47:15Z</time></trkpt>
<trkpt lat="46.48607182" lon="7.22728796"><ele>993.283997</ele><time>2010-10-07T12:47:17Z</time></trkpt>
<trkpt lat="46.48602279" lon="7.22759598"><ele>991.218994</ele><time>2010-10-07T12:47:21Z</time></trkpt>
<trkpt lat="46.48601080" lon="7.22777392"><ele>990.502014</ele><time>2010-10-07T12:47:23Z</time></trkpt>
<trkpt lat="46.48601382" lon="7.22784994"><ele>990.453979</ele><time>2010-10-07T12:47:24Z</time></trkpt>
<trkpt lat="46.48603284" lon="7.22819191"><ele>988.656006</ele><time>2010-10-07T12:47:29Z</time></trkpt>
<trkpt lat="46.48604382" lon="7.22825695"><ele>987.96698</ele><time>2010-10-07T12:47:30Z</time></trkpt>
<trkpt lat="46.48607484" lon="7.22851092"><ele>985.473999</ele><time>2010-10-07T12:47:34Z</time></trkpt>
<trkpt lat="46.48609478" lon="7.22884090"><ele>983.534973</ele><time>2010-10-07T12:47:38Z</time></trkpt>
<trkpt lat="46.48609780" lon="7.22946893"><ele>980.812988</ele><time>2010-10-07T12:47:44Z</time></trkpt>
<trkpt lat="46.48604784" lon="7.22987585"><ele>979.723999</ele><time>2010-10-07T12:47:49Z</time></trkpt>
<trkpt lat="46.48597483" lon="7.23006385"><ele>977.843994</ele><time>2010-10-07T12:47:54Z</time></trkpt>
<trkpt lat="46.48596385" lon="7.23010484"><ele>977.137024</ele><time>2010-10-07T12:47:58Z</time></trkpt>
<trkpt lat="46.48595078" lon="7.23014390"><ele>976.950012</ele><time>2010-10-07T12:48:03Z</time></trkpt>
<trkpt lat="46.48587182" lon="7.23037783"><ele>976.52301</ele><time>2010-10-07T12:48:08Z</time></trkpt>
<trkpt lat="46.48586880" lon="7.23043482"><ele>976.554016</ele><time>2010-10-07T12:48:09Z</time></trkpt>
<trkpt lat="46.48593879" lon="7.23077084"><ele>976.744995</ele><time>2010-10-07T12:48:15Z</time></trkpt>
<trkpt lat="46.48603283" lon="7.23105380"><ele>977.309021</ele><time>2010-10-07T12:48:21Z</time></trkpt>
<trkpt lat="46.48611682" lon="7.23148084"><ele>977.606018</ele><time>2010-10-07T12:48:29Z</time></trkpt>
<trkpt lat="46.48612981" lon="7.23195180"><ele>977.56897</ele><time>2010-10-07T12:48:37Z</time></trkpt>
<trkpt lat="46.48610684" lon="7.23245277"><ele>977.536011</ele><time>2010-10-07T12:48:45Z</time></trkpt>
<trkpt lat="46.48604481" lon="7.23277077"><ele>977.528992</ele><time>2010-10-07T12:48:50Z</time></trkpt>
<trkpt lat="46.48594682" lon="7.23323678"><ele>977.276001</ele><time>2010-10-07T12:48:57Z</time></trkpt>
<trkpt lat="46.48590977" lon="7.23336871"><ele>977.164978</ele><time>2010-10-07T12:48:59Z</time></trkpt>
<trkpt lat="46.48583383" lon="7.23362568"><ele>977.166016</ele><time>2010-10-07T12:49:03Z</time></trkpt>
<trkpt lat="46.48578480" lon="7.23375970"><ele>977.494019</ele><time>2010-10-07T12:49:05Z</time></trkpt>
<trkpt lat="46.48570181" lon="7.23419571"><ele>977.986023</ele><time>2010-10-07T12:49:12Z</time></trkpt>
<trkpt lat="46.48568379" lon="7.23425774"><ele>978.017029</ele><time>2010-10-07T12:49:13Z</time></trkpt>
<trkpt lat="46.48565680" lon="7.23466567"><ele>978.598022</ele><time>2010-10-07T12:49:20Z</time></trkpt>
<trkpt lat="46.48569879" lon="7.23484570"><ele>978.471985</ele><time>2010-10-07T12:49:24Z</time></trkpt>
<trkpt lat="46.48570181" lon="7.23515163"><ele>978.758972</ele><time>2010-10-07T12:49:29Z</time></trkpt>
<trkpt lat="46.48569083" lon="7.23526068"><ele>978.937988</ele><time>2010-10-07T12:49:31Z</time></trkpt>
<trkpt lat="46.48558479" lon="7.23571563"><ele>979.929016</ele><time>2010-10-07T12:49:38Z</time></trkpt>
<trkpt lat="46.48553282" lon="7.23593464"><ele>980.80603</ele><time>2010-10-07T12:49:42Z</time></trkpt>
<trkpt lat="46.48547080" lon="7.23617158"><ele>982.103027</ele><time>2010-10-07T12:49:48Z</time></trkpt>
<trkpt lat="46.48539980" lon="7.23647265"><ele>982.945984</ele><time>2010-10-07T12:49:55Z</time></trkpt>
<trkpt lat="46.48534774" lon="7.23671261"><ele>983.909973</ele><time>2010-10-07T12:50:01Z</time></trkpt>
<trkpt lat="46.48529276" lon="7.23696062"><ele>984.333984</ele><time>2010-10-07T12:50:07Z</time></trkpt>
<trkpt lat="46.48526476" lon="7.23727258"><ele>985.419983</ele><time>2010-10-07T12:50:15Z</time></trkpt>
<trkpt lat="46.48525881" lon="7.23752856"><ele>984.630981</ele><time>2010-10-07T12:50:19Z</time></trkpt>
<trkpt lat="46.48522176" lon="7.23790455"><ele>984.538025</ele><time>2010-10-07T12:50:24Z</time></trkpt>
<trkpt lat="46.48520977" lon="7.23797454"><ele>984.469971</ele><time>2010-10-07T12:50:25Z</time></trkpt>
<trkpt lat="46.48514573" lon="7.23818752"><ele>984.367004</ele><time>2010-10-07T12:50:28Z</time></trkpt>
<trkpt lat="46.48502176" lon="7.23840753"><ele>985.638977</ele><time>2010-10-07T12:50:33Z</time></trkpt>
<trkpt lat="46.48490978" lon="7.23855655"><ele>986.976013</ele><time>2010-10-07T12:50:39Z</time></trkpt>
<trkpt lat="46.48476879" lon="7.23872653"><ele>987.29303</ele><time>2010-10-07T12:50:46Z</time></trkpt>
<trkpt lat="46.48463174" lon="7.23894453"><ele>986.088989</ele><time>2010-10-07T12:50:51Z</time></trkpt>
<trkpt lat="46.48460174" lon="7.23899147"><ele>985.762024</ele><time>2010-10-07T12:50:52Z</time></trkpt>
<trkpt lat="46.48447978" lon="7.23929547"><ele>984.155029</ele><time>2010-10-07T12:50:57Z</time></trkpt>
<trkpt lat="46.48446578" lon="7.23935246"><ele>983.747009</ele><time>2010-10-07T12:50:59Z</time></trkpt>
<trkpt lat="46.48445379" lon="7.23946846"><ele>983.299011</ele><time>2010-10-07T12:51:03Z</time></trkpt>
<trkpt lat="46.48442177" lon="7.23961849"><ele>982.648987</ele><time>2010-10-07T12:51:09Z</time></trkpt>
<trkpt lat="46.48444373" lon="7.23977649"><ele>981.61499</ele><time>2010-10-07T12:51:13Z</time></trkpt>
<trkpt lat="46.48440978" lon="7.23982351"><ele>982.11499</ele><time>2010-10-07T12:51:16Z</time></trkpt>
<trkpt lat="46.48440777" lon="7.23982644"><ele>982.234985</ele><time>2010-10-07T12:51:17Z</time></trkpt>
<trkpt lat="46.48432974" lon="7.23986449"><ele>983.107971</ele><time>2010-10-07T12:51:24Z</time></trkpt>
<trkpt lat="46.48426872" lon="7.23985544"><ele>983.799011</ele><time>2010-10-07T12:51:28Z</time></trkpt>
<trkpt lat="46.48424776" lon="7.23987044"><ele>984.546021</ele><time>2010-10-07T12:51:31Z</time></trkpt>
<trkpt lat="46.48425975" lon="7.23993448"><ele>985.560974</ele><time>2010-10-07T12:51:36Z</time></trkpt>
<trkpt lat="46.48425472" lon="7.23999843"><ele>986.794006</ele><time>2010-10-07T12:51:41Z</time></trkpt>
<trkpt lat="46.48425371" lon="7.24006749"><ele>987.906982</ele><time>2010-10-07T12:51:46Z</time></trkpt>
<trkpt lat="46.48425874" lon="7.24014645"><ele>989.219971</ele><time>2010-10-07T12:51:52Z</time></trkpt>
<trkpt lat="46.48421775" lon="7.24025147"><ele>990.578979</ele><time>2010-10-07T12:52:00Z</time></trkpt>
<trkpt lat="46.48418976" lon="7.24030645"><ele>991.744995</ele><time>2010-10-07T12:52:06Z</time></trkpt>
<trkpt lat="46.48415078" lon="7.24028349"><ele>992.716003</ele><time>2010-10-07T12:52:12Z</time></trkpt>
<trkpt lat="46.48415078" lon="7.24028147"><ele>992.755981</ele><time>2010-10-07T12:52:13Z</time></trkpt>
<trkpt lat="46.48413871" lon="7.24021342"><ele>993.356018</ele><time>2010-10-07T12:52:20Z</time></trkpt>
<trkpt lat="46.48411675" lon="7.24013748"><ele>993.794983</ele><time>2010-10-07T12:52:35Z</time></trkpt>
<trkpt lat="46.48408079" lon="7.23994344"><ele>995.176025</ele><time>2010-10-07T12:52:42Z</time></trkpt>
<trkpt lat="46.48404575" lon="7.23975947"><ele>995.570007</ele><time>2010-10-07T12:52:50Z</time></trkpt>
<trkpt lat="46.48398976" lon="7.23965445"><ele>993.992981</ele><time>2010-10-07T12:52:54Z</time></trkpt>
<trkpt lat="46.48384274" lon="7.23958245"><ele>995.039978</ele><time>2010-10-07T12:52:59Z</time></trkpt>
<trkpt lat="46.48372774" lon="7.23950550"><ele>996.974976</ele><time>2010-10-07T12:53:04Z</time></trkpt>
<trkpt lat="46.48358877" lon="7.23950651"><ele>998.900024</ele><time>2010-10-07T12:53:10Z</time></trkpt>
<trkpt lat="46.48357871" lon="7.23951849"><ele>999.273987</ele><time>2010-10-07T12:53:11Z</time></trkpt>
<trkpt lat="46.48349875" lon="7.23957046"><ele>1000.190979</ele><time>2010-10-07T12:53:23Z</time></trkpt>
<trkpt lat="46.48351274" lon="7.23955847"><ele>1000.505981</ele><time>2010-10-07T12:53:25Z</time></trkpt>
<trkpt lat="46.48352473" lon="7.23955546"><ele>1001.64801</ele><time>2010-10-07T12:53:45Z</time></trkpt>
<trkpt lat="46.48347578" lon="7.23960047"><ele>1002.823975</ele><time>2010-10-07T12:53:53Z</time></trkpt>
<trkpt lat="46.48347176" lon="7.23963449"><ele>1003.463013</ele><time>2010-10-07T12:53:58Z</time></trkpt>
<trkpt lat="46.48348575" lon="7.23967649"><ele>1003.567993</ele><time>2010-10-07T12:54:03Z</time></trkpt>
<trkpt lat="46.48345072" lon="7.23980749"><ele>1004.421021</ele><time>2010-10-07T12:54:08Z</time></trkpt>
<trkpt lat="46.48338877" lon="7.23997244"><ele>1006.166992</ele><time>2010-10-07T12:54:17Z</time></trkpt>
<trkpt lat="46.48330571" lon="7.24009146"><ele>1007.005981</ele><time>2010-10-07T12:54:24Z</time></trkpt>
<trkpt lat="46.48320671" lon="7.24023646"><ele>1007.817993</ele><time>2010-10-07T12:54:32Z</time></trkpt>
<trkpt lat="46.48312474" lon="7.24039847"><ele>1007.422974</ele><time>2010-10-07T12:54:38Z</time></trkpt>
<trkpt lat="46.48309171" lon="7.24057842"><ele>1007.424988</ele><time>2010-10-07T12:54:43Z</time></trkpt>
<trkpt lat="46.48310470" lon="7.24085543"><ele>1006.698975</ele><time>2010-10-07T12:54:49Z</time></trkpt>
<trkpt lat="46.48304376" lon="7.24107143"><ele>1006.450012</ele><time>2010-10-07T12:54:54Z</time></trkpt>
<trkpt lat="46.48300470" lon="7.24118843"><ele>1005.09198</ele><time>2010-10-07T12:54:58Z</time></trkpt>
<trkpt lat="46.48297470" lon="7.24127937"><ele>1004.973999</ele><time>2010-10-07T12:55:00Z</time></trkpt>
<trkpt lat="46.48294276" lon="7.24160240"><ele>1001.908997</ele><time>2010-10-07T12:55:04Z</time></trkpt>
<trkpt lat="46.48300369" lon="7.24227234"><ele>999.570007</ele><time>2010-10-07T12:55:11Z</time></trkpt>
<trkpt lat="46.48306169" lon="7.24290431"><ele>998.348999</ele><time>2010-10-07T12:55:17Z</time></trkpt>
<trkpt lat="46.48306773" lon="7.24316833"><ele>997.984985</ele><time>2010-10-07T12:55:20Z</time></trkpt>
<trkpt lat="46.48307670" lon="7.24332833"><ele>998.090027</ele><time>2010-10-07T12:55:22Z</time></trkpt>
<trkpt lat="46.48310771" lon="7.24358732"><ele>998.015991</ele><time>2010-10-07T12:55:26Z</time></trkpt>
<trkpt lat="46.48313872" lon="7.24393231"><ele>998.387024</ele><time>2010-10-07T12:55:32Z</time></trkpt>
<trkpt lat="46.48317376" lon="7.24412626"><ele>998.437012</ele><time>2010-10-07T12:55:36Z</time></trkpt>
<trkpt lat="46.48317971" lon="7.24436228"><ele>998.715027</ele><time>2010-10-07T12:55:41Z</time></trkpt>
<trkpt lat="46.48316470" lon="7.24458129"><ele>998.947998</ele><time>2010-10-07T12:55:45Z</time></trkpt>
<trkpt lat="46.48315774" lon="7.24480022"><ele>999.060974</ele><time>2010-10-07T12:55:49Z</time></trkpt>
<trkpt lat="46.48314768" lon="7.24502024"><ele>999</ele><time>2010-10-07T12:55:53Z</time></trkpt>
<trkpt lat="46.48312472" lon="7.24532223"><ele>999.088013</ele><time>2010-10-07T12:55:58Z</time></trkpt>
<trkpt lat="46.48315170" lon="7.24554719"><ele>999.112</ele><time>2010-10-07T12:56:02Z</time></trkpt>
<trkpt lat="46.48321272" lon="7.24578522"><ele>999.229004</ele><time>2010-10-07T12:56:06Z</time></trkpt>
<trkpt lat="46.48327475" lon="7.24599820"><ele>998.919006</ele><time>2010-10-07T12:56:09Z</time></trkpt>
<trkpt lat="46.48342370" lon="7.24654619"><ele>997.91803</ele><time>2010-10-07T12:56:16Z</time></trkpt>
<trkpt lat="46.48348069" lon="7.24707021"><ele>996.794006</ele><time>2010-10-07T12:56:22Z</time></trkpt>
<trkpt lat="46.48357868" lon="7.24739214"><ele>996.348999</ele><time>2010-10-07T12:56:26Z</time></trkpt>
<trkpt lat="46.48365872" lon="7.24761115"><ele>996.171021</ele><time>2010-10-07T12:56:30Z</time></trkpt>
<trkpt lat="46.48371270" lon="7.24780510"><ele>996.325989</ele><time>2010-10-07T12:56:36Z</time></trkpt>
<trkpt lat="46.48378068" lon="7.24805915"><ele>996.153015</ele><time>2010-10-07T12:56:41Z</time></trkpt>
<trkpt lat="46.48382175" lon="7.24834312"><ele>996.382996</ele><time>2010-10-07T12:56:46Z</time></trkpt>
<trkpt lat="46.48386969" lon="7.24856515"><ele>996.370972</ele><time>2010-10-07T12:56:50Z</time></trkpt>
<trkpt lat="46.48392568" lon="7.24877108"><ele>996.406006</ele><time>2010-10-07T12:56:54Z</time></trkpt>
<trkpt lat="46.48405267" lon="7.24921212"><ele>995.310974</ele><time>2010-10-07T12:57:01Z</time></trkpt>
<trkpt lat="46.48407874" lon="7.24929007"><ele>994.971985</ele><time>2010-10-07T12:57:02Z</time></trkpt>
<trkpt lat="46.48413272" lon="7.24946407"><ele>994.424988</ele><time>2010-10-07T12:57:04Z</time></trkpt>
<trkpt lat="46.48431569" lon="7.25009202"><ele>993.036011</ele><time>2010-10-07T12:57:11Z</time></trkpt>
<trkpt lat="46.48432869" lon="7.25017609"><ele>992.984009</ele><time>2010-10-07T12:57:12Z</time></trkpt>
<trkpt lat="46.48444067" lon="7.25065401"><ele>992.822998</ele><time>2010-10-07T12:57:18Z</time></trkpt>
<trkpt lat="46.48448274" lon="7.25087302"><ele>992.926025</ele><time>2010-10-07T12:57:21Z</time></trkpt>
<trkpt lat="46.48460973" lon="7.25126905"><ele>993.211975</ele><time>2010-10-07T12:57:27Z</time></trkpt>
<trkpt lat="46.48472171" lon="7.25155402"><ele>993.713989</ele><time>2010-10-07T12:57:32Z</time></trkpt>
<trkpt lat="46.48481374" lon="7.25194896"><ele>994.338989</ele><time>2010-10-07T12:57:39Z</time></trkpt>
<trkpt lat="46.48484970" lon="7.25219396"><ele>994.299988</ele><time>2010-10-07T12:57:43Z</time></trkpt>
<trkpt lat="46.48492070" lon="7.25243794"><ele>994.447021</ele><time>2010-10-07T12:57:47Z</time></trkpt>
<trkpt lat="46.48503369" lon="7.25270892"><ele>995.22699</ele><time>2010-10-07T12:57:52Z</time></trkpt>
<trkpt lat="46.48515271" lon="7.25311794"><ele>995.416992</ele><time>2010-10-07T12:58:00Z</time></trkpt>
<trkpt lat="46.48514273" lon="7.25320696"><ele>995.539001</ele><time>2010-10-07T12:58:03Z</time></trkpt>
<trkpt lat="46.48513972" lon="7.25323797"><ele>995.536987</ele><time>2010-10-07T12:58:07Z</time></trkpt>
<trkpt lat="46.48512873" lon="7.25329295"><ele>995.632019</ele><time>2010-10-07T12:58:13Z</time></trkpt>
<trkpt lat="46.48512169" lon="7.25346595"><ele>995.146973</ele><time>2010-10-07T12:58:18Z</time></trkpt>
<trkpt lat="46.48512773" lon="7.25363894"><ele>994.236023</ele><time>2010-10-07T12:58:21Z</time></trkpt>
<trkpt lat="46.48518774" lon="7.25384789"><ele>992.89502</ele><time>2010-10-07T12:58:24Z</time></trkpt>
<trkpt lat="46.48522169" lon="7.25392190"><ele>992.411987</ele><time>2010-10-07T12:58:25Z</time></trkpt>
<trkpt lat="46.48544272" lon="7.25439186"><ele>991.638</ele><time>2010-10-07T12:58:32Z</time></trkpt>
<trkpt lat="46.48560172" lon="7.25470391"><ele>991.953003</ele><time>2010-10-07T12:58:38Z</time></trkpt>
<trkpt lat="46.48567373" lon="7.25486090"><ele>991.463013</ele><time>2010-10-07T12:58:41Z</time></trkpt>
<trkpt lat="46.48573869" lon="7.25497991"><ele>991.104004</ele><time>2010-10-07T12:58:43Z</time></trkpt>
<trkpt lat="46.48590473" lon="7.25530185"><ele>990.788025</ele><time>2010-10-07T12:58:48Z</time></trkpt>
<trkpt lat="46.48605074" lon="7.25572881"><ele>991.065979</ele><time>2010-10-07T12:58:54Z</time></trkpt>
<trkpt lat="46.48613968" lon="7.25632483"><ele>990.893005</ele><time>2010-10-07T12:59:02Z</time></trkpt>
<trkpt lat="46.48614269" lon="7.25655683"><ele>990.908997</ele><time>2010-10-07T12:59:05Z</time></trkpt>
<trkpt lat="46.48624168" lon="7.25697381"><ele>991.252014</ele><time>2010-10-07T12:59:11Z</time></trkpt>
<trkpt lat="46.48627269" lon="7.25703181"><ele>991.335999</ele><time>2010-10-07T12:59:12Z</time></trkpt>
<trkpt lat="46.48649867" lon="7.25742181"><ele>991.655029</ele><time>2010-10-07T12:59:19Z</time></trkpt>
<trkpt lat="46.48674770" lon="7.25787375"><ele>992.078979</ele><time>2010-10-07T12:59:28Z</time></trkpt>
<trkpt lat="46.48695071" lon="7.25828972"><ele>992.278015</ele><time>2010-10-07T12:59:36Z</time></trkpt>
<trkpt lat="46.48712874" lon="7.25864871"><ele>992.734009</ele><time>2010-10-07T12:59:43Z</time></trkpt>
<trkpt lat="46.48729370" lon="7.25899973"><ele>993.179016</ele><time>2010-10-07T12:59:50Z</time></trkpt>
<trkpt lat="46.48743267" lon="7.25932469"><ele>993.434998</ele><time>2010-10-07T12:59:58Z</time></trkpt>
<trkpt lat="46.48751574" lon="7.25945468"><ele>993.656006</ele><time>2010-10-07T13:00:02Z</time></trkpt>
<trkpt lat="46.48767474" lon="7.25977268"><ele>994.034973</ele><time>2010-10-07T13:00:10Z</time></trkpt>
<trkpt lat="46.48784372" lon="7.26010166"><ele>994.202026</ele><time>2010-10-07T13:00:18Z</time></trkpt>
<trkpt lat="46.48793768" lon="7.26033769"><ele>995.060974</ele><time>2010-10-07T13:00:25Z</time></trkpt>
<trkpt lat="46.48790968" lon="7.26057765"><ele>995.093994</ele><time>2010-10-07T13:00:30Z</time></trkpt>
<trkpt lat="46.48787574" lon="7.26101969"><ele>995.234985</ele><time>2010-10-07T13:00:38Z</time></trkpt>
<trkpt lat="46.48783969" lon="7.26147364"><ele>995.723022</ele><time>2010-10-07T13:00:45Z</time></trkpt>
<trkpt lat="46.48772167" lon="7.26176264"><ele>996.028015</ele><time>2010-10-07T13:00:50Z</time></trkpt>
<trkpt lat="46.48763173" lon="7.26182960"><ele>996.301025</ele><time>2010-10-07T13:00:52Z</time></trkpt>
<trkpt lat="46.48724566" lon="7.26197762"><ele>997.489014</ele><time>2010-10-07T13:01:01Z</time></trkpt>
<trkpt lat="46.48695270" lon="7.26216561"><ele>998.625977</ele><time>2010-10-07T13:01:09Z</time></trkpt>
<trkpt lat="46.48664165" lon="7.26240960"><ele>1000.258972</ele><time>2010-10-07T13:01:18Z</time></trkpt>
<trkpt lat="46.48644869" lon="7.26255661"><ele>1000.807007</ele><time>2010-10-07T13:01:24Z</time></trkpt>
<trkpt lat="46.48623470" lon="7.26272659"><ele>1001.822021</ele><time>2010-10-07T13:01:31Z</time></trkpt>
<trkpt lat="46.48598969" lon="7.26284661"><ele>1003.013</ele><time>2010-10-07T13:01:38Z</time></trkpt>
<trkpt lat="46.48577369" lon="7.26284853"><ele>1004.403015</ele><time>2010-10-07T13:01:44Z</time></trkpt>
<trkpt lat="46.48553665" lon="7.26275759"><ele>1005.866028</ele><time>2010-10-07T13:01:51Z</time></trkpt>
<trkpt lat="46.48528770" lon="7.26275256"><ele>1007.466003</ele><time>2010-10-07T13:01:59Z</time></trkpt>
<trkpt lat="46.48508167" lon="7.26283260"><ele>1008.71698</ele><time>2010-10-07T13:02:06Z</time></trkpt>
<trkpt lat="46.48477162" lon="7.26296251"><ele>1010.203003</ele><time>2010-10-07T13:02:17Z</time></trkpt>
<trkpt lat="46.48455268" lon="7.26300056"><ele>1011.630981</ele><time>2010-10-07T13:02:24Z</time></trkpt>
<trkpt lat="46.48431363" lon="7.26300257"><ele>1013.007996</ele><time>2010-10-07T13:02:32Z</time></trkpt>
<trkpt lat="46.48404666" lon="7.26301355"><ele>1014.66803</ele><time>2010-10-07T13:02:41Z</time></trkpt>
<trkpt lat="46.48392462" lon="7.26299553"><ele>1015.257996</ele><time>2010-10-07T13:02:45Z</time></trkpt>
<trkpt lat="46.48368766" lon="7.26300852"><ele>1016.677002</ele><time>2010-10-07T13:02:53Z</time></trkpt>
<trkpt lat="46.48345464" lon="7.26303651"><ele>1017.788025</ele><time>2010-10-07T13:03:01Z</time></trkpt>
<trkpt lat="46.48325263" lon="7.26310055"><ele>1019.223999</ele><time>2010-10-07T13:03:09Z</time></trkpt>
<trkpt lat="46.48313067" lon="7.26317849"><ele>1020.106018</ele><time>2010-10-07T13:03:17Z</time></trkpt>
<trkpt lat="46.48306764" lon="7.26322752"><ele>1020.46698</ele><time>2010-10-07T13:03:25Z</time></trkpt>
<trkpt lat="46.48306663" lon="7.26322752"><ele>1020.390991</ele><time>2010-10-07T13:03:26Z</time></trkpt>
<trkpt lat="46.48297460" lon="7.26329449"><ele>1021.077026</ele><time>2010-10-07T13:03:40Z</time></trkpt>
<trkpt lat="46.48289363" lon="7.26337152"><ele>1021.552002</ele><time>2010-10-07T13:03:45Z</time></trkpt>
<trkpt lat="46.48278265" lon="7.26343656"><ele>1022.302002</ele><time>2010-10-07T13:03:51Z</time></trkpt>
<trkpt lat="46.48261065" lon="7.26351551"><ele>1023.302002</ele><time>2010-10-07T13:04:00Z</time></trkpt>
<trkpt lat="46.48241359" lon="7.26360754"><ele>1024.876953</ele><time>2010-10-07T13:04:10Z</time></trkpt>
<trkpt lat="46.48223765" lon="7.26375949"><ele>1026.324951</ele><time>2010-10-07T13:04:19Z</time></trkpt>
<trkpt lat="46.48210563" lon="7.26384448"><ele>1027.177002</ele><time>2010-10-07T13:04:25Z</time></trkpt>
<trkpt lat="46.48192165" lon="7.26390550"><ele>1028.845947</ele><time>2010-10-07T13:04:33Z</time></trkpt>
<trkpt lat="46.48183666" lon="7.26396450"><ele>1029.612061</ele><time>2010-10-07T13:04:37Z</time></trkpt>
<trkpt lat="46.48184864" lon="7.26411546"><ele>1030.531006</ele><time>2010-10-07T13:04:42Z</time></trkpt>
<trkpt lat="46.48196758" lon="7.26436447"><ele>1030.524048</ele><time>2010-10-07T13:04:50Z</time></trkpt>
<trkpt lat="46.48207763" lon="7.26465146"><ele>1030.400024</ele><time>2010-10-07T13:04:57Z</time></trkpt>
<trkpt lat="46.48219565" lon="7.26494146"><ele>1029.394043</ele><time>2010-10-07T13:05:02Z</time></trkpt>
<trkpt lat="46.48235063" lon="7.26532542"><ele>1027.592041</ele><time>2010-10-07T13:05:07Z</time></trkpt>
<trkpt lat="46.48240059" lon="7.26549440"><ele>1026.959961</ele><time>2010-10-07T13:05:09Z</time></trkpt>
<trkpt lat="46.48245365" lon="7.26604741"><ele>1025.004028</ele><time>2010-10-07T13:05:15Z</time></trkpt>
<trkpt lat="46.48240561" lon="7.26671140"><ele>1022.960999</ele><time>2010-10-07T13:05:21Z</time></trkpt>
<trkpt lat="46.48237259" lon="7.26710240"><ele>1021.297974</ele><time>2010-10-07T13:05:24Z</time></trkpt>
<trkpt lat="46.48227761" lon="7.26800736"><ele>1017.575989</ele><time>2010-10-07T13:05:30Z</time></trkpt>
<trkpt lat="46.48220058" lon="7.26865232"><ele>1015.396973</ele><time>2010-10-07T13:05:34Z</time></trkpt>
<trkpt lat="46.48199757" lon="7.26922931"><ele>1013.487</ele><time>2010-10-07T13:05:38Z</time></trkpt>
<trkpt lat="46.48192062" lon="7.26934824"><ele>1013.137024</ele><time>2010-10-07T13:05:39Z</time></trkpt>
<trkpt lat="46.48128258" lon="7.27022226"><ele>1010.442017</ele><time>2010-10-07T13:05:47Z</time></trkpt>
<trkpt lat="46.48105257" lon="7.27087217"><ele>1009.588013</ele><time>2010-10-07T13:05:52Z</time></trkpt>
<trkpt lat="46.48098560" lon="7.27113317"><ele>1009.419983</ele><time>2010-10-07T13:05:54Z</time></trkpt>
<trkpt lat="46.48082659" lon="7.27175114"><ele>1009.297974</ele><time>2010-10-07T13:05:59Z</time></trkpt>
<trkpt lat="46.48061058" lon="7.27255912"><ele>1009.414978</ele><time>2010-10-07T13:06:06Z</time></trkpt>
<trkpt lat="46.48031260" lon="7.27338714"><ele>1009.322021</ele><time>2010-10-07T13:06:14Z</time></trkpt>
<trkpt lat="46.47996457" lon="7.27379808"><ele>1009.487976</ele><time>2010-10-07T13:06:20Z</time></trkpt>
<trkpt lat="46.47960758" lon="7.27412605"><ele>1009.71698</ele><time>2010-10-07T13:06:26Z</time></trkpt>
<trkpt lat="46.47933056" lon="7.27417508"><ele>1010.299011</ele><time>2010-10-07T13:06:30Z</time></trkpt>
<trkpt lat="46.47904054" lon="7.27413702"><ele>1010.117004</ele><time>2010-10-07T13:06:34Z</time></trkpt>
<trkpt lat="46.47860853" lon="7.27427305"><ele>1011.356995</ele><time>2010-10-07T13:06:41Z</time></trkpt>
<trkpt lat="46.47822556" lon="7.27445904"><ele>1011.729004</ele><time>2010-10-07T13:06:48Z</time></trkpt>
<trkpt lat="46.47779556" lon="7.27461300"><ele>1012.054016</ele><time>2010-10-07T13:06:56Z</time></trkpt>
<trkpt lat="46.47752851" lon="7.27472003"><ele>1012.021973</ele><time>2010-10-07T13:07:01Z</time></trkpt>
<trkpt lat="46.47709155" lon="7.27488397"><ele>1012.296997</ele><time>2010-10-07T13:07:09Z</time></trkpt>
<trkpt lat="46.47678553" lon="7.27520700"><ele>1012.968994</ele><time>2010-10-07T13:07:16Z</time></trkpt>
<trkpt lat="46.47666549" lon="7.27535996"><ele>1013.211975</ele><time>2010-10-07T13:07:19Z</time></trkpt>
<trkpt lat="46.47635351" lon="7.27582496"><ele>1013.432983</ele><time>2010-10-07T13:07:27Z</time></trkpt>
<trkpt lat="46.47593148" lon="7.27642693"><ele>1014.325012</ele><time>2010-10-07T13:07:38Z</time></trkpt>
<trkpt lat="46.47589652" lon="7.27647990"><ele>1014.38501</ele><time>2010-10-07T13:07:39Z</time></trkpt>
<trkpt lat="46.47560047" lon="7.27687190"><ele>1014.695984</ele><time>2010-10-07T13:07:47Z</time></trkpt>
<trkpt lat="46.47555948" lon="7.27690995"><ele>1014.903992</ele><time>2010-10-07T13:07:48Z</time></trkpt>
<trkpt lat="46.47523744" lon="7.27711194"><ele>1016.969971</ele><time>2010-10-07T13:07:56Z</time></trkpt>
<trkpt lat="46.47509646" lon="7.27718294"><ele>1017.309998</ele><time>2010-10-07T13:08:00Z</time></trkpt>
<trkpt lat="46.47480745" lon="7.27732290"><ele>1016.695984</ele><time>2010-10-07T13:08:06Z</time></trkpt>
<trkpt lat="46.47466143" lon="7.27742189"><ele>1016.731018</ele><time>2010-10-07T13:08:10Z</time></trkpt>
<trkpt lat="46.47433545" lon="7.27774583"><ele>1017.004028</ele><time>2010-10-07T13:08:19Z</time></trkpt>
<trkpt lat="46.47406547" lon="7.27803483"><ele>1018.041992</ele><time>2010-10-07T13:08:27Z</time></trkpt>
<trkpt lat="46.47397645" lon="7.27808688"><ele>1018.335022</ele><time>2010-10-07T13:08:30Z</time></trkpt>
<trkpt lat="46.47367143" lon="7.27834285"><ele>1017.827026</ele><time>2010-10-07T13:08:37Z</time></trkpt>
<trkpt lat="46.47338845" lon="7.27859086"><ele>1018.310974</ele><time>2010-10-07T13:08:44Z</time></trkpt>
<trkpt lat="46.47317748" lon="7.27881280"><ele>1018.403992</ele><time>2010-10-07T13:08:50Z</time></trkpt>
<trkpt lat="46.47306742" lon="7.27892477"><ele>1018.518005</ele><time>2010-10-07T13:08:53Z</time></trkpt>
<trkpt lat="46.47287748" lon="7.27906977"><ele>1018.551025</ele><time>2010-10-07T13:08:58Z</time></trkpt>
<trkpt lat="46.47263541" lon="7.27923983"><ele>1018.286011</ele><time>2010-10-07T13:09:04Z</time></trkpt>
<trkpt lat="46.47231547" lon="7.27936178"><ele>1018.890015</ele><time>2010-10-07T13:09:11Z</time></trkpt>
<trkpt lat="46.47210843" lon="7.27944979"><ele>1019.140991</ele><time>2010-10-07T13:09:16Z</time></trkpt>
<trkpt lat="46.47185446" lon="7.27966477"><ele>1020.247986</ele><time>2010-10-07T13:09:23Z</time></trkpt>
<trkpt lat="46.47169042" lon="7.27980474"><ele>1020.573975</ele><time>2010-10-07T13:09:28Z</time></trkpt>
<trkpt lat="46.47146142" lon="7.28003674"><ele>1020.567993</ele><time>2010-10-07T13:09:34Z</time></trkpt>
<trkpt lat="46.47136344" lon="7.28016372"><ele>1020.629028</ele><time>2010-10-07T13:09:37Z</time></trkpt>
<trkpt lat="46.47129244" lon="7.28024578"><ele>1020.575989</ele><time>2010-10-07T13:09:39Z</time></trkpt>
<trkpt lat="46.47099043" lon="7.28051575"><ele>1020.969971</ele><time>2010-10-07T13:09:48Z</time></trkpt>
<trkpt lat="46.47081642" lon="7.28060174"><ele>1021.268982</ele><time>2010-10-07T13:09:52Z</time></trkpt>
<trkpt lat="46.47059539" lon="7.28058573"><ele>1021.534973</ele><time>2010-10-07T13:09:57Z</time></trkpt>
<trkpt lat="46.47035441" lon="7.28041776"><ele>1022.153992</ele><time>2010-10-07T13:10:03Z</time></trkpt>
<trkpt lat="46.47027143" lon="7.28034970"><ele>1022.27301</ele><time>2010-10-07T13:10:05Z</time></trkpt>
<trkpt lat="46.46999239" lon="7.28018073"><ele>1022.611023</ele><time>2010-10-07T13:10:12Z</time></trkpt>
<trkpt lat="46.46978544" lon="7.28011577"><ele>1022.760986</ele><time>2010-10-07T13:10:17Z</time></trkpt>
<trkpt lat="46.46961336" lon="7.28014175"><ele>1023.054016</ele><time>2010-10-07T13:10:21Z</time></trkpt>
<trkpt lat="46.46942635" lon="7.28022573"><ele>1022.948975</ele><time>2010-10-07T13:10:27Z</time></trkpt>
<trkpt lat="46.46932736" lon="7.28028775"><ele>1022.960022</ele><time>2010-10-07T13:10:32Z</time></trkpt>
<trkpt lat="46.46922342" lon="7.28043770"><ele>1023.419006</ele><time>2010-10-07T13:10:37Z</time></trkpt>
<trkpt lat="46.46914438" lon="7.28072368"><ele>1023.682007</ele><time>2010-10-07T13:10:44Z</time></trkpt>
<trkpt lat="46.46907338" lon="7.28103069"><ele>1023.627014</ele><time>2010-10-07T13:10:50Z</time></trkpt>
<trkpt lat="46.46893935" lon="7.28158865"><ele>1023.978027</ele><time>2010-10-07T13:10:59Z</time></trkpt>
<trkpt lat="46.46886140" lon="7.28189567"><ele>1024.43103</ele><time>2010-10-07T13:11:05Z</time></trkpt>
<trkpt lat="46.46876635" lon="7.28197169"><ele>1024.765991</ele><time>2010-10-07T13:11:08Z</time></trkpt>
<trkpt lat="46.46861941" lon="7.28213261"><ele>1025.08606</ele><time>2010-10-07T13:11:12Z</time></trkpt>
<trkpt lat="46.46855235" lon="7.28223864"><ele>1025.073975</ele><time>2010-10-07T13:11:14Z</time></trkpt>
<trkpt lat="46.46843341" lon="7.28238666"><ele>1025.182007</ele><time>2010-10-07T13:11:17Z</time></trkpt>
<trkpt lat="46.46818237" lon="7.28248665"><ele>1025.33606</ele><time>2010-10-07T13:11:22Z</time></trkpt>
<trkpt lat="46.46812940" lon="7.28247759"><ele>1025.373047</ele><time>2010-10-07T13:11:23Z</time></trkpt>
<trkpt lat="46.46770937" lon="7.28231666"><ele>1025.23999</ele><time>2010-10-07T13:11:31Z</time></trkpt>
<trkpt lat="46.46760535" lon="7.28225565"><ele>1025.357056</ele><time>2010-10-07T13:11:33Z</time></trkpt>
<trkpt lat="46.46723034" lon="7.28217166"><ele>1025.297974</ele><time>2010-10-07T13:11:40Z</time></trkpt>
<trkpt lat="46.46707134" lon="7.28215967"><ele>1025.465942</ele><time>2010-10-07T13:11:43Z</time></trkpt>
<trkpt lat="46.46672239" lon="7.28226762"><ele>1025.537964</ele><time>2010-10-07T13:11:50Z</time></trkpt>
<trkpt lat="46.46658334" lon="7.28232562"><ele>1025.787964</ele><time>2010-10-07T13:11:53Z</time></trkpt>
<trkpt lat="46.46620237" lon="7.28244263"><ele>1026.438965</ele><time>2010-10-07T13:12:01Z</time></trkpt>
<trkpt lat="46.46615434" lon="7.28246760"><ele>1026.437012</ele><time>2010-10-07T13:12:02Z</time></trkpt>
<trkpt lat="46.46565335" lon="7.28261662"><ele>1026.811035</ele><time>2010-10-07T13:12:12Z</time></trkpt>
<trkpt lat="46.46531036" lon="7.28262458"><ele>1027.281982</ele><time>2010-10-07T13:12:19Z</time></trkpt>
<trkpt lat="46.46498136" lon="7.28272558"><ele>1027.974976</ele><time>2010-10-07T13:12:26Z</time></trkpt>
<trkpt lat="46.46461331" lon="7.28286161"><ele>1028.720947</ele><time>2010-10-07T13:12:33Z</time></trkpt>
<trkpt lat="46.46435632" lon="7.28295657"><ele>1028.932007</ele><time>2010-10-07T13:12:38Z</time></trkpt>
<trkpt lat="46.46410930" lon="7.28293662"><ele>1029.287964</ele><time>2010-10-07T13:12:43Z</time></trkpt>
<trkpt lat="46.46397628" lon="7.28283159"><ele>1029.204956</ele><time>2010-10-07T13:12:46Z</time></trkpt>
<trkpt lat="46.46359632" lon="7.28244956"><ele>1030.020996</ele><time>2010-10-07T13:12:55Z</time></trkpt>
<trkpt lat="46.46320732" lon="7.28193459"><ele>1030.652954</ele><time>2010-10-07T13:13:05Z</time></trkpt>
<trkpt lat="46.46293834" lon="7.28169865"><ele>1031.130005</ele><time>2010-10-07T13:13:11Z</time></trkpt>
<trkpt lat="46.46256827" lon="7.28157761"><ele>1031.45105</ele><time>2010-10-07T13:13:18Z</time></trkpt>
<trkpt lat="46.46203627" lon="7.28142263"><ele>1032.301025</ele><time>2010-10-07T13:13:28Z</time></trkpt>
<trkpt lat="46.46170627" lon="7.28130764"><ele>1032.333984</ele><time>2010-10-07T13:13:34Z</time></trkpt>
<trkpt lat="46.46129932" lon="7.28107161"><ele>1032.470947</ele><time>2010-10-07T13:13:42Z</time></trkpt>
<trkpt lat="46.46084527" lon="7.28095166"><ele>1033.301025</ele><time>2010-10-07T13:13:51Z</time></trkpt>
<trkpt lat="46.46056431" lon="7.28080465"><ele>1033.58606</ele><time>2010-10-07T13:13:57Z</time></trkpt>
<trkpt lat="46.46025828" lon="7.28056267"><ele>1034.333008</ele><time>2010-10-07T13:14:04Z</time></trkpt>
<trkpt lat="46.46011931" lon="7.28048262"><ele>1034.354004</ele><time>2010-10-07T13:14:07Z</time></trkpt>
<trkpt lat="46.45975125" lon="7.28043166"><ele>1035.53894</ele><time>2010-10-07T13:14:15Z</time></trkpt>
<trkpt lat="46.45947431" lon="7.28042059"><ele>1036.097046</ele><time>2010-10-07T13:14:22Z</time></trkpt>
<trkpt lat="46.45929024" lon="7.28038363"><ele>1036.156006</ele><time>2010-10-07T13:14:26Z</time></trkpt>
<trkpt lat="46.45883527" lon="7.28035764"><ele>1036.421997</ele><time>2010-10-07T13:14:35Z</time></trkpt>
<trkpt lat="46.45847928" lon="7.28032260"><ele>1037.265015</ele><time>2010-10-07T13:14:42Z</time></trkpt>
<trkpt lat="46.45824727" lon="7.28016964"><ele>1037.447998</ele><time>2010-10-07T13:14:47Z</time></trkpt>
<trkpt lat="46.45810528" lon="7.27996261"><ele>1037.837036</ele><time>2010-10-07T13:14:51Z</time></trkpt>
<trkpt lat="46.45785826" lon="7.27964361"><ele>1038.987061</ele><time>2010-10-07T13:14:59Z</time></trkpt>
<trkpt lat="46.45762223" lon="7.27946566"><ele>1038.228027</ele><time>2010-10-07T13:15:04Z</time></trkpt>
<trkpt lat="46.45733523" lon="7.27929065"><ele>1038.072998</ele><time>2010-10-07T13:15:10Z</time></trkpt>
<trkpt lat="46.45693122" lon="7.27917666"><ele>1038.261963</ele><time>2010-10-07T13:15:19Z</time></trkpt>
<trkpt lat="46.45670826" lon="7.27914665"><ele>1038.324951</ele><time>2010-10-07T13:15:24Z</time></trkpt>
<trkpt lat="46.45639225" lon="7.27911069"><ele>1038.722046</ele><time>2010-10-07T13:15:31Z</time></trkpt>
<trkpt lat="46.45614725" lon="7.27920565"><ele>1039.222046</ele><time>2010-10-07T13:15:37Z</time></trkpt>
<trkpt lat="46.45599126" lon="7.27920968"><ele>1039.46106</ele><time>2010-10-07T13:15:42Z</time></trkpt>
<trkpt lat="46.45582923" lon="7.27913265"><ele>1039.432983</ele><time>2010-10-07T13:15:47Z</time></trkpt>
<trkpt lat="46.45553721" lon="7.27891665"><ele>1039.936035</ele><time>2010-10-07T13:15:55Z</time></trkpt>
<trkpt lat="46.45542925" lon="7.27874366"><ele>1040.264038</ele><time>2010-10-07T13:15:59Z</time></trkpt>
<trkpt lat="46.45543327" lon="7.27863268"><ele>1040.459961</ele><time>2010-10-07T13:16:01Z</time></trkpt>
<trkpt lat="46.45546722" lon="7.27828267"><ele>1041.363037</ele><time>2010-10-07T13:16:08Z</time></trkpt>
<trkpt lat="46.45546026" lon="7.27787465"><ele>1043.177979</ele><time>2010-10-07T13:16:17Z</time></trkpt>
<trkpt lat="46.45549119" lon="7.27767367"><ele>1044.380005</ele><time>2010-10-07T13:16:22Z</time></trkpt>
<trkpt lat="46.45552925" lon="7.27750670"><ele>1045.786987</ele><time>2010-10-07T13:16:27Z</time></trkpt>
<trkpt lat="46.45554124" lon="7.27736170"><ele>1047.035034</ele><time>2010-10-07T13:16:32Z</time></trkpt>
<trkpt lat="46.45554425" lon="7.27723271"><ele>1048.29895</ele><time>2010-10-07T13:16:37Z</time></trkpt>
<trkpt lat="46.45548826" lon="7.27710271"><ele>1049.651001</ele><time>2010-10-07T13:16:43Z</time></trkpt>
<trkpt lat="46.45541224" lon="7.27693273"><ele>1051.223999</ele><time>2010-10-07T13:16:51Z</time></trkpt>
<trkpt lat="46.45533823" lon="7.27674574"><ele>1052.857056</ele><time>2010-10-07T13:16:59Z</time></trkpt>
<trkpt lat="46.45527025" lon="7.27657476"><ele>1054.229004</ele><time>2010-10-07T13:17:06Z</time></trkpt>
<trkpt lat="46.45517520" lon="7.27634979"><ele>1056.33606</ele><time>2010-10-07T13:17:17Z</time></trkpt>
<trkpt lat="46.45512323" lon="7.27625475"><ele>1057.219971</ele><time>2010-10-07T13:17:22Z</time></trkpt>
<trkpt lat="46.45507923" lon="7.27612877"><ele>1058.334961</ele><time>2010-10-07T13:17:28Z</time></trkpt>
<trkpt lat="46.45499624" lon="7.27593876"><ele>1059.269043</ele><time>2010-10-07T13:17:37Z</time></trkpt>
<trkpt lat="46.45496121" lon="7.27584773"><ele>1060.942993</ele><time>2010-10-07T13:17:41Z</time></trkpt>
<trkpt lat="46.45487420" lon="7.27561481"><ele>1062.946045</ele><time>2010-10-07T13:17:51Z</time></trkpt>
<trkpt lat="46.45481922" lon="7.27541776"><ele>1064.5</ele><time>2010-10-07T13:17:59Z</time></trkpt>
<trkpt lat="46.45478427" lon="7.27520177"><ele>1066.362061</ele><time>2010-10-07T13:18:08Z</time></trkpt>
<trkpt lat="46.45474420" lon="7.27496784"><ele>1068.21106</ele><time>2010-10-07T13:18:18Z</time></trkpt>
<trkpt lat="46.45471520" lon="7.27472980"><ele>1069.983032</ele><time>2010-10-07T13:18:27Z</time></trkpt>
<trkpt lat="46.45471428" lon="7.27448682"><ele>1071.937988</ele><time>2010-10-07T13:18:36Z</time></trkpt>
<trkpt lat="46.45473725" lon="7.27419480"><ele>1074.671997</ele><time>2010-10-07T13:18:47Z</time></trkpt>
<trkpt lat="46.45475125" lon="7.27401385"><ele>1076.180054</ele><time>2010-10-07T13:18:55Z</time></trkpt>
<trkpt lat="46.45476625" lon="7.27383884"><ele>1077.623047</ele><time>2010-10-07T13:19:03Z</time></trkpt>
<trkpt lat="46.45474421" lon="7.27370088"><ele>1078.881958</ele><time>2010-10-07T13:19:10Z</time></trkpt>
<trkpt lat="46.45468620" lon="7.27363282"><ele>1080.297974</ele><time>2010-10-07T13:19:18Z</time></trkpt>
<trkpt lat="46.45466626" lon="7.27362083"><ele>1081.709961</ele><time>2010-10-07T13:19:25Z</time></trkpt>
<trkpt lat="46.45451027" lon="7.27357582"><ele>1083.656006</ele><time>2010-10-07T13:19:36Z</time></trkpt>
<trkpt lat="46.45434522" lon="7.27348488"><ele>1085.213013</ele><time>2010-10-07T13:19:46Z</time></trkpt>
<trkpt lat="46.45423626" lon="7.27340685"><ele>1086.676025</ele><time>2010-10-07T13:19:54Z</time></trkpt>
<trkpt lat="46.45415127" lon="7.27338589"><ele>1087.512939</ele><time>2010-10-07T13:20:00Z</time></trkpt>
<trkpt lat="46.45413827" lon="7.27338489"><ele>1087.834961</ele><time>2010-10-07T13:20:03Z</time></trkpt>
<trkpt lat="46.45411623" lon="7.27334289"><ele>1087.942993</ele><time>2010-10-07T13:20:55Z</time></trkpt>
<trkpt lat="46.45411120" lon="7.27329889"><ele>1088.270996</ele><time>2010-10-07T13:20:57Z</time></trkpt>
<trkpt lat="46.45404121" lon="7.27320586"><ele>1089.402954</ele><time>2010-10-07T13:21:03Z</time></trkpt>
<trkpt lat="46.45394121" lon="7.27313185"><ele>1090.878052</ele><time>2010-10-07T13:21:11Z</time></trkpt>
<trkpt lat="46.45384423" lon="7.27303085"><ele>1092.332031</ele><time>2010-10-07T13:21:19Z</time></trkpt>
<trkpt lat="46.45372923" lon="7.27294988"><ele>1093.863037</ele><time>2010-10-07T13:21:27Z</time></trkpt>
<trkpt lat="46.45365220" lon="7.27286590"><ele>1095.050049</ele><time>2010-10-07T13:21:33Z</time></trkpt>
<trkpt lat="46.45356721" lon="7.27276892"><ele>1096.680054</ele><time>2010-10-07T13:21:40Z</time></trkpt>
<trkpt lat="46.45348322" lon="7.27270589"><ele>1098.019043</ele><time>2010-10-07T13:21:47Z</time></trkpt>
<trkpt lat="46.45340225" lon="7.27264889"><ele>1099.296021</ele><time>2010-10-07T13:21:54Z</time></trkpt>
<trkpt lat="46.45331324" lon="7.27258192"><ele>1100.651001</ele><time>2010-10-07T13:22:01Z</time></trkpt>
<trkpt lat="46.45318323" lon="7.27244589"><ele>1102.616943</ele><time>2010-10-07T13:22:12Z</time></trkpt>
<trkpt lat="46.45310327" lon="7.27232989"><ele>1104.317993</ele><time>2010-10-07T13:22:20Z</time></trkpt>
<trkpt lat="46.45307720" lon="7.27231287"><ele>1104.583984</ele><time>2010-10-07T13:22:22Z</time></trkpt>
<trkpt lat="46.45299120" lon="7.27218489"><ele>1106.166992</ele><time>2010-10-07T13:22:31Z</time></trkpt>
<trkpt lat="46.45290923" lon="7.27209688"><ele>1107.595947</ele><time>2010-10-07T13:22:39Z</time></trkpt>
<trkpt lat="46.45282222" lon="7.27199789"><ele>1108.995972</ele><time>2010-10-07T13:22:47Z</time></trkpt>
<trkpt lat="46.45270923" lon="7.27192690"><ele>1110.687988</ele><time>2010-10-07T13:22:56Z</time></trkpt>
<trkpt lat="46.45261326" lon="7.27190494"><ele>1111.85498</ele><time>2010-10-07T13:23:03Z</time></trkpt>
<trkpt lat="46.45253924" lon="7.27185088"><ele>1112.890015</ele><time>2010-10-07T13:23:09Z</time></trkpt>
<trkpt lat="46.45242022" lon="7.27178190"><ele>1114.498047</ele><time>2010-10-07T13:23:18Z</time></trkpt>
<trkpt lat="46.45232626" lon="7.27166388"><ele>1116.301025</ele><time>2010-10-07T13:23:27Z</time></trkpt>
<trkpt lat="46.45222626" lon="7.27154889"><ele>1117.866943</ele><time>2010-10-07T13:23:37Z</time></trkpt>
<trkpt lat="46.45216918" lon="7.27144596"><ele>1118.963989</ele><time>2010-10-07T13:23:44Z</time></trkpt>
<trkpt lat="46.45207824" lon="7.27129895"><ele>1120.875977</ele><time>2010-10-07T13:23:54Z</time></trkpt>
<trkpt lat="46.45199526" lon="7.27119594"><ele>1122.401001</ele><time>2010-10-07T13:24:02Z</time></trkpt>
<trkpt lat="46.45188520" lon="7.27104892"><ele>1124.339966</ele><time>2010-10-07T13:24:13Z</time></trkpt>
<trkpt lat="46.45179325" lon="7.27091398"><ele>1126.092041</ele><time>2010-10-07T13:24:21Z</time></trkpt>
<trkpt lat="46.45172318" lon="7.27080292"><ele>1127.635986</ele><time>2010-10-07T13:24:28Z</time></trkpt>
<trkpt lat="46.45164120" lon="7.27066798"><ele>1128.912964</ele><time>2010-10-07T13:24:36Z</time></trkpt>
<trkpt lat="46.45157121" lon="7.27047696"><ele>1130.824951</ele><time>2010-10-07T13:24:47Z</time></trkpt>
<trkpt lat="46.45156023" lon="7.27034193"><ele>1131.890991</ele><time>2010-10-07T13:24:54Z</time></trkpt>
<trkpt lat="46.45157121" lon="7.27018495"><ele>1133.41394</ele><time>2010-10-07T13:25:02Z</time></trkpt>
<trkpt lat="46.45155420" lon="7.26998396"><ele>1135.001953</ele><time>2010-10-07T13:25:12Z</time></trkpt>
<trkpt lat="46.45152126" lon="7.26984801"><ele>1136.572021</ele><time>2010-10-07T13:25:20Z</time></trkpt>
<trkpt lat="46.45147524" lon="7.26970200"><ele>1138.141968</ele><time>2010-10-07T13:25:29Z</time></trkpt>
<trkpt lat="46.45143224" lon="7.26956496"><ele>1139.592041</ele><time>2010-10-07T13:25:37Z</time></trkpt>
<trkpt lat="46.45132822" lon="7.26935299"><ele>1141.102051</ele><time>2010-10-07T13:25:47Z</time></trkpt>
<trkpt lat="46.45123418" lon="7.26927202"><ele>1142.062988</ele><time>2010-10-07T13:25:53Z</time></trkpt>
<trkpt lat="46.45110920" lon="7.26920497"><ele>1143.225952</ele><time>2010-10-07T13:26:01Z</time></trkpt>
<trkpt lat="46.45098423" lon="7.26914797"><ele>1144.687988</ele><time>2010-10-07T13:26:10Z</time></trkpt>
<trkpt lat="46.45084718" lon="7.26904597"><ele>1146.828979</ele><time>2010-10-07T13:26:21Z</time></trkpt>
<trkpt lat="46.45075523" lon="7.26894204"><ele>1148.270996</ele><time>2010-10-07T13:26:30Z</time></trkpt>
<trkpt lat="46.45071626" lon="7.26888697"><ele>1148.975952</ele><time>2010-10-07T13:26:34Z</time></trkpt>
<trkpt lat="46.45068323" lon="7.26885302"><ele>1149.432007</ele><time>2010-10-07T13:26:37Z</time></trkpt>
<trkpt lat="46.45061718" lon="7.26869704"><ele>1150.953003</ele><time>2010-10-07T13:26:46Z</time></trkpt>
<trkpt lat="46.45054124" lon="7.26848004"><ele>1153.129028</ele><time>2010-10-07T13:26:57Z</time></trkpt>
<trkpt lat="46.45052121" lon="7.26828400"><ele>1153.982056</ele><time>2010-10-07T13:27:04Z</time></trkpt>
<trkpt lat="46.45053018" lon="7.26802601"><ele>1153.738037</ele><time>2010-10-07T13:27:10Z</time></trkpt>
<trkpt lat="46.45042725" lon="7.26781605"><ele>1153.536987</ele><time>2010-10-07T13:27:14Z</time></trkpt>
<trkpt lat="46.45028325" lon="7.26780205"><ele>1153.76001</ele><time>2010-10-07T13:27:17Z</time></trkpt>
<trkpt lat="46.45012625" lon="7.26778604"><ele>1155.19397</ele><time>2010-10-07T13:27:22Z</time></trkpt>
<trkpt lat="46.45003321" lon="7.26767507"><ele>1156.651001</ele><time>2010-10-07T13:27:28Z</time></trkpt>
<trkpt lat="46.44996322" lon="7.26748305"><ele>1158.182007</ele><time>2010-10-07T13:27:36Z</time></trkpt>
<trkpt lat="46.44990019" lon="7.26735506"><ele>1159.364014</ele><time>2010-10-07T13:27:42Z</time></trkpt>
<trkpt lat="46.44982123" lon="7.26720604"><ele>1160.724976</ele><time>2010-10-07T13:27:49Z</time></trkpt>
<trkpt lat="46.44972920" lon="7.26705307"><ele>1162.301025</ele><time>2010-10-07T13:27:57Z</time></trkpt>
<trkpt lat="46.44965820" lon="7.26692609"><ele>1163.823975</ele><time>2010-10-07T13:28:04Z</time></trkpt>
<trkpt lat="46.44957925" lon="7.26674907"><ele>1165.265015</ele><time>2010-10-07T13:28:13Z</time></trkpt>
<trkpt lat="46.44949719" lon="7.26662712"><ele>1166.724976</ele><time>2010-10-07T13:28:20Z</time></trkpt>
<trkpt lat="46.44945519" lon="7.26653107"><ele>1167.582031</ele><time>2010-10-07T13:28:25Z</time></trkpt>
<trkpt lat="46.44942418" lon="7.26647013"><ele>1168.438965</ele><time>2010-10-07T13:28:29Z</time></trkpt>
<trkpt lat="46.44941823" lon="7.26643912"><ele>1168.776001</ele><time>2010-10-07T13:28:31Z</time></trkpt>
<trkpt lat="46.44934723" lon="7.26632806"><ele>1170.000977</ele><time>2010-10-07T13:28:38Z</time></trkpt>
<trkpt lat="46.44929820" lon="7.26623410"><ele>1170.980957</ele><time>2010-10-07T13:28:43Z</time></trkpt>
<trkpt lat="46.44927423" lon="7.26619907"><ele>1171.38501</ele><time>2010-10-07T13:28:46Z</time></trkpt>
<trkpt lat="46.44922318" lon="7.26610913"><ele>1172.477051</ele><time>2010-10-07T13:28:52Z</time></trkpt>
<trkpt lat="46.44920717" lon="7.26608114"><ele>1172.746948</ele><time>2010-10-07T13:28:54Z</time></trkpt>
<trkpt lat="46.44917817" lon="7.26603412"><ele>1173.796997</ele><time>2010-10-07T13:28:59Z</time></trkpt>
<trkpt lat="46.44912721" lon="7.26597712"><ele>1174.562988</ele><time>2010-10-07T13:29:04Z</time></trkpt>
<trkpt lat="46.44902319" lon="7.26583212"><ele>1175.858032</ele><time>2010-10-07T13:29:10Z</time></trkpt>
<trkpt lat="46.44894121" lon="7.26565711"><ele>1176.66394</ele><time>2010-10-07T13:29:18Z</time></trkpt>
<trkpt lat="46.44890224" lon="7.26555109"><ele>1176.686035</ele><time>2010-10-07T13:29:24Z</time></trkpt>
<trkpt lat="46.44885421" lon="7.26542612"><ele>1179.55896</ele><time>2010-10-07T13:29:30Z</time></trkpt>
<trkpt lat="46.44880920" lon="7.26529914"><ele>1180.609985</ele><time>2010-10-07T13:29:36Z</time></trkpt>
<trkpt lat="46.44875421" lon="7.26515313"><ele>1181.862061</ele><time>2010-10-07T13:29:43Z</time></trkpt>
<trkpt lat="46.44872219" lon="7.26501215"><ele>1183.410034</ele><time>2010-10-07T13:29:50Z</time></trkpt>
<trkpt lat="46.44871121" lon="7.26487813"><ele>1184.384033</ele><time>2010-10-07T13:29:55Z</time></trkpt>
<trkpt lat="46.44871021" lon="7.26485114"><ele>1184.650024</ele><time>2010-10-07T13:29:56Z</time></trkpt>
<trkpt lat="46.44871323" lon="7.26464814"><ele>1186.022949</ele><time>2010-10-07T13:30:04Z</time></trkpt>
<trkpt lat="46.44871423" lon="7.26443919"><ele>1187.94397</ele><time>2010-10-07T13:30:12Z</time></trkpt>
<trkpt lat="46.44867023" lon="7.26425320"><ele>1189.151001</ele><time>2010-10-07T13:30:19Z</time></trkpt>
<trkpt lat="46.44862823" lon="7.26413116"><ele>1190.357056</ele><time>2010-10-07T13:30:25Z</time></trkpt>
<trkpt lat="46.44858222" lon="7.26399220"><ele>1191.946045</ele><time>2010-10-07T13:30:33Z</time></trkpt>
<trkpt lat="46.44852723" lon="7.26386521"><ele>1193.032959</ele><time>2010-10-07T13:30:39Z</time></trkpt>
<trkpt lat="46.44849521" lon="7.26377218"><ele>1194.255005</ele><time>2010-10-07T13:30:44Z</time></trkpt>
<trkpt lat="46.44844224" lon="7.26362416"><ele>1195.613037</ele><time>2010-10-07T13:30:51Z</time></trkpt>
<trkpt lat="46.44843218" lon="7.26353121"><ele>1196.25</ele><time>2010-10-07T13:30:55Z</time></trkpt>
<trkpt lat="46.44840217" lon="7.26336617"><ele>1197.594971</ele><time>2010-10-07T13:31:02Z</time></trkpt>
<trkpt lat="46.44837024" lon="7.26320424"><ele>1198.983032</ele><time>2010-10-07T13:31:09Z</time></trkpt>
<trkpt lat="46.44836521" lon="7.26318421"><ele>1199.312988</ele><time>2010-10-07T13:31:10Z</time></trkpt>
<trkpt lat="46.44832917" lon="7.26305622"><ele>1200.197021</ele><time>2010-10-07T13:31:16Z</time></trkpt>
<trkpt lat="46.44830025" lon="7.26297325"><ele>1201.057007</ele><time>2010-10-07T13:31:20Z</time></trkpt>
<trkpt lat="46.44821819" lon="7.26278525"><ele>1202.70105</ele><time>2010-10-07T13:31:29Z</time></trkpt>
<trkpt lat="46.44815818" lon="7.26268425"><ele>1203.697021</ele><time>2010-10-07T13:31:35Z</time></trkpt>
<trkpt lat="46.44811023" lon="7.26260026"><ele>1204.764038</ele><time>2010-10-07T13:31:41Z</time></trkpt>
<trkpt lat="46.44807218" lon="7.26250320"><ele>1205.239014</ele><time>2010-10-07T13:31:45Z</time></trkpt>
<trkpt lat="46.44804125" lon="7.26233222"><ele>1206.873047</ele><time>2010-10-07T13:31:53Z</time></trkpt>
<trkpt lat="46.44803019" lon="7.26217322"><ele>1207.749023</ele><time>2010-10-07T13:32:00Z</time></trkpt>
<trkpt lat="46.44804620" lon="7.26196930"><ele>1209.416016</ele><time>2010-10-07T13:32:09Z</time></trkpt>
<trkpt lat="46.44802524" lon="7.26182430"><ele>1210.526001</ele><time>2010-10-07T13:32:16Z</time></trkpt>
<trkpt lat="46.44801418" lon="7.26176730"><ele>1210.937012</ele><time>2010-10-07T13:32:19Z</time></trkpt>
<trkpt lat="46.44796120" lon="7.26165524"><ele>1212.384033</ele><time>2010-10-07T13:32:27Z</time></trkpt>
<trkpt lat="46.44790924" lon="7.26160026"><ele>1213.45105</ele><time>2010-10-07T13:32:33Z</time></trkpt>
<trkpt lat="46.44788518" lon="7.26153329"><ele>1214.406982</ele><time>2010-10-07T13:32:38Z</time></trkpt>
<trkpt lat="46.44786121" lon="7.26147629"><ele>1215.144043</ele><time>2010-10-07T13:32:42Z</time></trkpt>
<trkpt lat="46.44785123" lon="7.26143531"><ele>1215.418945</ele><time>2010-10-07T13:32:44Z</time></trkpt>
<trkpt lat="46.44782223" lon="7.26132425"><ele>1216.624023</ele><time>2010-10-07T13:32:50Z</time></trkpt>
<trkpt lat="46.44778317" lon="7.26122828"><ele>1217.786987</ele><time>2010-10-07T13:32:56Z</time></trkpt>
<trkpt lat="46.44775920" lon="7.26116726"><ele>1218.572021</ele><time>2010-10-07T13:33:00Z</time></trkpt>
<trkpt lat="46.44773120" lon="7.26110029"><ele>1219.468994</ele><time>2010-10-07T13:33:04Z</time></trkpt>
<trkpt lat="46.44771620" lon="7.26100231"><ele>1220.411987</ele><time>2010-10-07T13:33:09Z</time></trkpt>
<trkpt lat="46.44769525" lon="7.26093032"><ele>1221.187988</ele><time>2010-10-07T13:33:13Z</time></trkpt>
<trkpt lat="46.44763121" lon="7.26072832"><ele>1223.151001</ele><time>2010-10-07T13:33:22Z</time></trkpt>
<trkpt lat="46.44760020" lon="7.26055733"><ele>1224.83606</ele><time>2010-10-07T13:33:30Z</time></trkpt>
<trkpt lat="46.44759718" lon="7.26053730"><ele>1225.185059</ele><time>2010-10-07T13:33:31Z</time></trkpt>
<trkpt lat="46.44754119" lon="7.26044435"><ele>1226.588989</ele><time>2010-10-07T13:33:38Z</time></trkpt>
<trkpt lat="46.44752224" lon="7.26041434"><ele>1227.151001</ele><time>2010-10-07T13:33:40Z</time></trkpt>
<trkpt lat="46.44746324" lon="7.26029331"><ele>1228.345947</ele><time>2010-10-07T13:33:48Z</time></trkpt>
<trkpt lat="46.44742225" lon="7.26016130"><ele>1229.953003</ele><time>2010-10-07T13:33:54Z</time></trkpt>
<trkpt lat="46.44740423" lon="7.26009232"><ele>1230.791992</ele><time>2010-10-07T13:33:59Z</time></trkpt>
<trkpt lat="46.44740322" lon="7.25999635"><ele>1232.078003</ele><time>2010-10-07T13:34:06Z</time></trkpt>
<trkpt lat="46.44739618" lon="7.25988530"><ele>1233.927979</ele><time>2010-10-07T13:34:15Z</time></trkpt>
<trkpt lat="46.44732225" lon="7.25980232"><ele>1236.026978</ele><time>2010-10-07T13:34:25Z</time></trkpt>
<trkpt lat="46.44724522" lon="7.25975237"><ele>1237.501953</ele><time>2010-10-07T13:34:32Z</time></trkpt>
<trkpt lat="46.44712519" lon="7.25957032"><ele>1239.512939</ele><time>2010-10-07T13:34:41Z</time></trkpt>
<trkpt lat="46.44702520" lon="7.25941534"><ele>1240.873047</ele><time>2010-10-07T13:34:48Z</time></trkpt>
<trkpt lat="46.44690223" lon="7.25926833"><ele>1242.119995</ele><time>2010-10-07T13:34:56Z</time></trkpt>
<trkpt lat="46.44677818" lon="7.25911938"><ele>1243.770996</ele><time>2010-10-07T13:35:04Z</time></trkpt>
<trkpt lat="46.44671917" lon="7.25902937"><ele>1244.900024</ele><time>2010-10-07T13:35:09Z</time></trkpt>
<trkpt lat="46.44664323" lon="7.25893633"><ele>1246.010986</ele><time>2010-10-07T13:35:15Z</time></trkpt>
<trkpt lat="46.44654617" lon="7.25884137"><ele>1247.333984</ele><time>2010-10-07T13:35:22Z</time></trkpt>
<trkpt lat="46.44644122" lon="7.25873936"><ele>1248.31604</ele><time>2010-10-07T13:35:28Z</time></trkpt>
<trkpt lat="46.44633117" lon="7.25862437"><ele>1249.452026</ele><time>2010-10-07T13:35:34Z</time></trkpt>
<trkpt lat="46.44620921" lon="7.25848640"><ele>1250.67395</ele><time>2010-10-07T13:35:41Z</time></trkpt>
<trkpt lat="46.44613520" lon="7.25839437"><ele>1252.009033</ele><time>2010-10-07T13:35:48Z</time></trkpt>
<trkpt lat="46.44608424" lon="7.25836336"><ele>1252.868042</ele><time>2010-10-07T13:35:53Z</time></trkpt>
<trkpt lat="46.44597619" lon="7.25826035"><ele>1253.86499</ele><time>2010-10-07T13:35:58Z</time></trkpt>
<trkpt lat="46.44597318" lon="7.25823839"><ele>1254.444946</ele><time>2010-10-07T13:36:01Z</time></trkpt>
<trkpt lat="46.44589522" lon="7.25814242"><ele>1255.822998</ele><time>2010-10-07T13:36:09Z</time></trkpt>
<trkpt lat="46.44583118" lon="7.25803237"><ele>1256.522949</ele><time>2010-10-07T13:36:16Z</time></trkpt>
<trkpt lat="46.44581518" lon="7.25798736"><ele>1256.89502</ele><time>2010-10-07T13:36:18Z</time></trkpt>
<trkpt lat="46.44572918" lon="7.25784839"><ele>1257.418945</ele><time>2010-10-07T13:36:23Z</time></trkpt>
<trkpt lat="46.44552918" lon="7.25760038"><ele>1257.912964</ele><time>2010-10-07T13:36:30Z</time></trkpt>
<trkpt lat="46.44537118" lon="7.25737542"><ele>1258.134033</ele><time>2010-10-07T13:36:35Z</time></trkpt>
<trkpt lat="46.44525719" lon="7.25719044"><ele>1258.371948</ele><time>2010-10-07T13:36:39Z</time></trkpt>
<trkpt lat="46.44515619" lon="7.25690244"><ele>1258.912964</ele><time>2010-10-07T13:36:45Z</time></trkpt>
<trkpt lat="46.44507421" lon="7.25666441"><ele>1259.428955</ele><time>2010-10-07T13:36:50Z</time></trkpt>
<trkpt lat="46.44506022" lon="7.25638346"><ele>1259.583008</ele><time>2010-10-07T13:36:56Z</time></trkpt>
<trkpt lat="46.44505016" lon="7.25633048"><ele>1259.552002</ele><time>2010-10-07T13:36:57Z</time></trkpt>
<trkpt lat="46.44487422" lon="7.25604249"><ele>1260.088989</ele><time>2010-10-07T13:37:02Z</time></trkpt>
<trkpt lat="46.44469619" lon="7.25565845"><ele>1260.687012</ele><time>2010-10-07T13:37:09Z</time></trkpt>
<trkpt lat="46.44463617" lon="7.25531849"><ele>1261.139038</ele><time>2010-10-07T13:37:17Z</time></trkpt>
<trkpt lat="46.44447616" lon="7.25501851"><ele>1261.661987</ele><time>2010-10-07T13:37:23Z</time></trkpt>
<trkpt lat="46.44433719" lon="7.25475650"><ele>1261.850952</ele><time>2010-10-07T13:37:29Z</time></trkpt>
<trkpt lat="46.44420719" lon="7.25447656"><ele>1262.547974</ele><time>2010-10-07T13:37:36Z</time></trkpt>
<trkpt lat="46.44405120" lon="7.25420357"><ele>1262.69104</ele><time>2010-10-07T13:37:42Z</time></trkpt>
<trkpt lat="46.44390116" lon="7.25390158"><ele>1263.214966</ele><time>2010-10-07T13:37:49Z</time></trkpt>
<trkpt lat="46.44380016" lon="7.25357855"><ele>1263.827026</ele><time>2010-10-07T13:37:57Z</time></trkpt>
<trkpt lat="46.44370016" lon="7.25319660"><ele>1264.587036</ele><time>2010-10-07T13:38:05Z</time></trkpt>
<trkpt lat="46.44363722" lon="7.25289554"><ele>1265.18396</ele><time>2010-10-07T13:38:11Z</time></trkpt>
<trkpt lat="46.44345516" lon="7.25251862"><ele>1265.896973</ele><time>2010-10-07T13:38:18Z</time></trkpt>
<trkpt lat="46.44338417" lon="7.25217061"><ele>1266.487061</ele><time>2010-10-07T13:38:25Z</time></trkpt>
<trkpt lat="46.44327923" lon="7.25193760"><ele>1266.895996</ele><time>2010-10-07T13:38:30Z</time></trkpt>
<trkpt lat="46.44314017" lon="7.25170166"><ele>1267.687012</ele><time>2010-10-07T13:38:36Z</time></trkpt>
<trkpt lat="46.44304822" lon="7.25142767"><ele>1269.031006</ele><time>2010-10-07T13:38:43Z</time></trkpt>
<trkpt lat="46.44298318" lon="7.25110062"><ele>1269.805054</ele><time>2010-10-07T13:38:50Z</time></trkpt>
<trkpt lat="46.44292719" lon="7.25090063"><ele>1270.223022</ele><time>2010-10-07T13:38:56Z</time></trkpt>
<trkpt lat="46.44289316" lon="7.25083467"><ele>1270.406006</ele><time>2010-10-07T13:39:01Z</time></trkpt>
<trkpt lat="46.44275519" lon="7.25070366"><ele>1271.182983</ele><time>2010-10-07T13:40:31Z</time></trkpt>
<trkpt lat="46.44265519" lon="7.25043864"><ele>1271.812012</ele><time>2010-10-07T13:40:38Z</time></trkpt>
<trkpt lat="46.44247917" lon="7.25012466"><ele>1272.654053</ele><time>2010-10-07T13:40:45Z</time></trkpt>
<trkpt lat="46.44236920" lon="7.24981169"><ele>1273.501953</ele><time>2010-10-07T13:40:52Z</time></trkpt>
<trkpt lat="46.44221321" lon="7.24950074"><ele>1274.5</ele><time>2010-10-07T13:41:00Z</time></trkpt>
<trkpt lat="46.44207122" lon="7.24923470"><ele>1276.454956</ele><time>2010-10-07T13:41:08Z</time></trkpt>
<trkpt lat="46.44197223" lon="7.24906573"><ele>1277.863037</ele><time>2010-10-07T13:41:14Z</time></trkpt>
<trkpt lat="46.44188623" lon="7.24891075"><ele>1279.133057</ele><time>2010-10-07T13:41:20Z</time></trkpt>
<trkpt lat="46.44183519" lon="7.24874371"><ele>1280.126953</ele><time>2010-10-07T13:41:26Z</time></trkpt>
<trkpt lat="46.44178816" lon="7.24861270"><ele>1280.69397</ele><time>2010-10-07T13:41:30Z</time></trkpt>
<trkpt lat="46.44172220" lon="7.24845371"><ele>1281.519043</ele><time>2010-10-07T13:41:36Z</time></trkpt>
<trkpt lat="46.44162321" lon="7.24834474"><ele>1282.154053</ele><time>2010-10-07T13:41:41Z</time></trkpt>
<trkpt lat="46.44148616" lon="7.24819773"><ele>1283.296997</ele><time>2010-10-07T13:41:47Z</time></trkpt>
<trkpt lat="46.44134820" lon="7.24802172"><ele>1284.032959</ele><time>2010-10-07T13:41:53Z</time></trkpt>
<trkpt lat="46.44120822" lon="7.24781972"><ele>1284.760986</ele><time>2010-10-07T13:41:59Z</time></trkpt>
<trkpt lat="46.44109523" lon="7.24752477"><ele>1285.241943</ele><time>2010-10-07T13:42:06Z</time></trkpt>
<trkpt lat="46.44097017" lon="7.24725178"><ele>1285.506958</ele><time>2010-10-07T13:42:12Z</time></trkpt>
<trkpt lat="46.44079222" lon="7.24691476"><ele>1286.171997</ele><time>2010-10-07T13:42:19Z</time></trkpt>
<trkpt lat="46.44056516" lon="7.24647883"><ele>1287.530029</ele><time>2010-10-07T13:42:28Z</time></trkpt>
<trkpt lat="46.44050715" lon="7.24615077"><ele>1288.432007</ele><time>2010-10-07T13:42:34Z</time></trkpt>
<trkpt lat="46.44042317" lon="7.24566783"><ele>1289.530029</ele><time>2010-10-07T13:42:43Z</time></trkpt>
<trkpt lat="46.44031521" lon="7.24541185"><ele>1290.229004</ele><time>2010-10-07T13:42:49Z</time></trkpt>
<trkpt lat="46.44011915" lon="7.24511489"><ele>1291.296021</ele><time>2010-10-07T13:42:57Z</time></trkpt>
<trkpt lat="46.43998219" lon="7.24487786"><ele>1292.100952</ele><time>2010-10-07T13:43:03Z</time></trkpt>
<trkpt lat="46.43982721" lon="7.24445484"><ele>1293.303955</ele><time>2010-10-07T13:43:12Z</time></trkpt>
<trkpt lat="46.43969319" lon="7.24402092"><ele>1294.660034</ele><time>2010-10-07T13:43:21Z</time></trkpt>
<trkpt lat="46.43959420" lon="7.24367493"><ele>1295.833008</ele><time>2010-10-07T13:43:29Z</time></trkpt>
<trkpt lat="46.43954315" lon="7.24346095"><ele>1296.48999</ele><time>2010-10-07T13:43:35Z</time></trkpt>
<trkpt lat="46.43946922" lon="7.24326591"><ele>1296.890991</ele><time>2010-10-07T13:43:40Z</time></trkpt>
<trkpt lat="46.43931214" lon="7.24301195"><ele>1297.30896</ele><time>2010-10-07T13:43:47Z</time></trkpt>
<trkpt lat="46.43912422" lon="7.24282990"><ele>1298.380981</ele><time>2010-10-07T13:43:54Z</time></trkpt>
<trkpt lat="46.43897117" lon="7.24265791"><ele>1299.227051</ele><time>2010-10-07T13:44:00Z</time></trkpt>
<trkpt lat="46.43888617" lon="7.24240495"><ele>1300.145996</ele><time>2010-10-07T13:44:06Z</time></trkpt>
<trkpt lat="46.43879615" lon="7.24209994"><ele>1301.155029</ele><time>2010-10-07T13:44:13Z</time></trkpt>
<trkpt lat="46.43870915" lon="7.24186400"><ele>1302.141968</ele><time>2010-10-07T13:44:19Z</time></trkpt>
<trkpt lat="46.43861418" lon="7.24156998"><ele>1303.473022</ele><time>2010-10-07T13:44:27Z</time></trkpt>
<trkpt lat="46.43857118" lon="7.24134401"><ele>1305.031006</ele><time>2010-10-07T13:44:34Z</time></trkpt>
<trkpt lat="46.43855819" lon="7.24120102"><ele>1305.927979</ele><time>2010-10-07T13:44:39Z</time></trkpt>
<trkpt lat="46.43855316" lon="7.24096902"><ele>1307.468994</ele><time>2010-10-07T13:44:48Z</time></trkpt>
<trkpt lat="46.43854822" lon="7.24077599"><ele>1308.983032</ele><time>2010-10-07T13:44:56Z</time></trkpt>
<trkpt lat="46.43854420" lon="7.24056402"><ele>1310.448975</ele><time>2010-10-07T13:45:04Z</time></trkpt>
<trkpt lat="46.43851218" lon="7.24024703"><ele>1312.477051</ele><time>2010-10-07T13:45:15Z</time></trkpt>
<trkpt lat="46.43849416" lon="7.23998301"><ele>1314.692993</ele><time>2010-10-07T13:45:25Z</time></trkpt>
<trkpt lat="46.43849416" lon="7.23978705"><ele>1316.911987</ele><time>2010-10-07T13:45:35Z</time></trkpt>
<trkpt lat="46.43845619" lon="7.23957902"><ele>1319.093994</ele><time>2010-10-07T13:45:45Z</time></trkpt>
<trkpt lat="46.43842518" lon="7.23942907"><ele>1320.310059</ele><time>2010-10-07T13:45:52Z</time></trkpt>
<trkpt lat="46.43833021" lon="7.23917108"><ele>1321.901001</ele><time>2010-10-07T13:46:01Z</time></trkpt>
<trkpt lat="46.43829920" lon="7.23900706"><ele>1323.265991</ele><time>2010-10-07T13:46:09Z</time></trkpt>
<trkpt lat="46.43824622" lon="7.23887111"><ele>1324.922974</ele><time>2010-10-07T13:46:17Z</time></trkpt>
<trkpt lat="46.43815017" lon="7.23872007"><ele>1326.484985</ele><time>2010-10-07T13:46:27Z</time></trkpt>
<trkpt lat="46.43803818" lon="7.23852712"><ele>1328.510986</ele><time>2010-10-07T13:46:39Z</time></trkpt>
<trkpt lat="46.43794715" lon="7.23838606"><ele>1330.07605</ele><time>2010-10-07T13:46:48Z</time></trkpt>
<trkpt lat="46.43790315" lon="7.23827911"><ele>1331.338013</ele><time>2010-10-07T13:46:54Z</time></trkpt>
<trkpt lat="46.43779921" lon="7.23806111"><ele>1333.624023</ele><time>2010-10-07T13:47:06Z</time></trkpt>
<trkpt lat="46.43775119" lon="7.23789415"><ele>1334.906982</ele><time>2010-10-07T13:47:15Z</time></trkpt>
<trkpt lat="46.43767918" lon="7.23771310"><ele>1336.86499</ele><time>2010-10-07T13:47:25Z</time></trkpt>
<trkpt lat="46.43764515" lon="7.23761311"><ele>1337.642944</ele><time>2010-10-07T13:47:30Z</time></trkpt>
<trkpt lat="46.43756217" lon="7.23737113"><ele>1339.813965</ele><time>2010-10-07T13:47:42Z</time></trkpt>
<trkpt lat="46.43750015" lon="7.23717618"><ele>1341.708984</ele><time>2010-10-07T13:47:52Z</time></trkpt>
<trkpt lat="46.43742915" lon="7.23696915"><ele>1343.499023</ele><time>2010-10-07T13:48:02Z</time></trkpt>
<trkpt lat="46.43737417" lon="7.23684217"><ele>1344.603027</ele><time>2010-10-07T13:48:09Z</time></trkpt>
<trkpt lat="46.43733318" lon="7.23671418"><ele>1345.859009</ele><time>2010-10-07T13:48:16Z</time></trkpt>
<trkpt lat="46.43733016" lon="7.23667915"><ele>1346.18396</ele><time>2010-10-07T13:48:18Z</time></trkpt>
<trkpt lat="46.43731616" lon="7.23665116"><ele>1346.427002</ele><time>2010-10-07T13:48:20Z</time></trkpt>
<trkpt lat="46.43728021" lon="7.23653012"><ele>1347.609985</ele><time>2010-10-07T13:48:27Z</time></trkpt>
<trkpt lat="46.43721717" lon="7.23635319"><ele>1349.165039</ele><time>2010-10-07T13:48:36Z</time></trkpt>
<trkpt lat="46.43716018" lon="7.23619620"><ele>1350.501953</ele><time>2010-10-07T13:48:44Z</time></trkpt>
<trkpt lat="46.43710117" lon="7.23603821"><ele>1351.793945</ele><time>2010-10-07T13:48:53Z</time></trkpt>
<trkpt lat="46.43701618" lon="7.23585122"><ele>1353.791992</ele><time>2010-10-07T13:49:04Z</time></trkpt>
<trkpt lat="46.43696421" lon="7.23574016"><ele>1354.744019</ele><time>2010-10-07T13:49:11Z</time></trkpt>
<trkpt lat="46.43690419" lon="7.23561619"><ele>1356.10498</ele><time>2010-10-07T13:49:18Z</time></trkpt>
<trkpt lat="46.43683823" lon="7.23546616"><ele>1357.248047</ele><time>2010-10-07T13:49:25Z</time></trkpt>
<trkpt lat="46.43678023" lon="7.23521924"><ele>1359.215942</ele><time>2010-10-07T13:49:36Z</time></trkpt>
<trkpt lat="46.43677419" lon="7.23508824"><ele>1360.395996</ele><time>2010-10-07T13:49:43Z</time></trkpt>
<trkpt lat="46.43673220" lon="7.23488021"><ele>1362.035034</ele><time>2010-10-07T13:49:52Z</time></trkpt>
<trkpt lat="46.43671317" lon="7.23468223"><ele>1363.567993</ele><time>2010-10-07T13:50:01Z</time></trkpt>
<trkpt lat="46.43668719" lon="7.23447521"><ele>1365.287964</ele><time>2010-10-07T13:50:10Z</time></trkpt>
<trkpt lat="46.43666020" lon="7.23431227"><ele>1366.694946</ele><time>2010-10-07T13:50:17Z</time></trkpt>
<trkpt lat="46.43666917" lon="7.23413827"><ele>1367.927002</ele><time>2010-10-07T13:50:26Z</time></trkpt>
<trkpt lat="46.43668023" lon="7.23399427"><ele>1369.196045</ele><time>2010-10-07T13:50:33Z</time></trkpt>
<trkpt lat="46.43669918" lon="7.23383628"><ele>1370.322021</ele><time>2010-10-07T13:50:40Z</time></trkpt>
<trkpt lat="46.43673916" lon="7.23369128"><ele>1371.590942</ele><time>2010-10-07T13:50:47Z</time></trkpt>
<trkpt lat="46.43674620" lon="7.23349431"><ele>1373.02002</ele><time>2010-10-07T13:50:55Z</time></trkpt>
<trkpt lat="46.43678417" lon="7.23333733"><ele>1373.973022</ele><time>2010-10-07T13:51:02Z</time></trkpt>
<trkpt lat="46.43685517" lon="7.23314229"><ele>1375.541992</ele><time>2010-10-07T13:51:11Z</time></trkpt>
<trkpt lat="46.43695022" lon="7.23292831"><ele>1376.946045</ele><time>2010-10-07T13:51:21Z</time></trkpt>
<trkpt lat="46.43698618" lon="7.23289931"><ele>1377.300049</ele><time>2010-10-07T13:51:23Z</time></trkpt>
<trkpt lat="46.43710822" lon="7.23293627"><ele>1378.631958</ele><time>2010-10-07T13:51:30Z</time></trkpt>
<trkpt lat="46.43713823" lon="7.23303627"><ele>1379.345947</ele><time>2010-10-07T13:51:34Z</time></trkpt>
<trkpt lat="46.43718324" lon="7.23330531"><ele>1381.014038</ele><time>2010-10-07T13:51:44Z</time></trkpt>
<trkpt lat="46.43724921" lon="7.23349625"><ele>1382.748047</ele><time>2010-10-07T13:51:53Z</time></trkpt>
<trkpt lat="46.43727921" lon="7.23360831"><ele>1383.463989</ele><time>2010-10-07T13:51:59Z</time></trkpt>
<trkpt lat="46.43736421" lon="7.23373630"><ele>1384.932007</ele><time>2010-10-07T13:52:06Z</time></trkpt>
<trkpt lat="46.43744518" lon="7.23384123"><ele>1386.256958</ele><time>2010-10-07T13:52:14Z</time></trkpt>
<trkpt lat="46.43751718" lon="7.23391826"><ele>1387.602051</ele><time>2010-10-07T13:52:22Z</time></trkpt>
<trkpt lat="46.43760519" lon="7.23400627"><ele>1389.180054</ele><time>2010-10-07T13:52:31Z</time></trkpt>
<trkpt lat="46.43771818" lon="7.23406528"><ele>1390.425049</ele><time>2010-10-07T13:52:40Z</time></trkpt>
<trkpt lat="46.43777719" lon="7.23409830"><ele>1391.019043</ele><time>2010-10-07T13:52:46Z</time></trkpt>
<trkpt lat="46.43784122" lon="7.23414029"><ele>1392.828979</ele><time>2010-10-07T13:52:52Z</time></trkpt>
<trkpt lat="46.43794918" lon="7.23420123"><ele>1393.855957</ele><time>2010-10-07T13:52:59Z</time></trkpt>
<trkpt lat="46.43806117" lon="7.23423224"><ele>1394.874023</ele><time>2010-10-07T13:53:06Z</time></trkpt>
<trkpt lat="46.43822118" lon="7.23430424"><ele>1396.665039</ele><time>2010-10-07T13:53:16Z</time></trkpt>
<trkpt lat="46.43832922" lon="7.23434925"><ele>1397.847046</ele><time>2010-10-07T13:53:23Z</time></trkpt>
<trkpt lat="46.43847323" lon="7.23448227"><ele>1399.426025</ele><time>2010-10-07T13:53:33Z</time></trkpt>
<trkpt lat="46.43859619" lon="7.23463724"><ele>1400.755981</ele><time>2010-10-07T13:53:42Z</time></trkpt>
<trkpt lat="46.43868118" lon="7.23477722"><ele>1402.064941</ele><time>2010-10-07T13:53:49Z</time></trkpt>
<trkpt lat="46.43877422" lon="7.23488425"><ele>1402.896973</ele><time>2010-10-07T13:53:56Z</time></trkpt>
<trkpt lat="46.43880624" lon="7.23490026"><ele>1403.378052</ele><time>2010-10-07T13:53:58Z</time></trkpt>
<trkpt lat="46.43888922" lon="7.23482826"><ele>1404.26001</ele><time>2010-10-07T13:54:04Z</time></trkpt>
<trkpt lat="46.43887221" lon="7.23466725"><ele>1405.064941</ele><time>2010-10-07T13:54:10Z</time></trkpt>
<trkpt lat="46.43875025" lon="7.23442226"><ele>1406.906006</ele><time>2010-10-07T13:54:20Z</time></trkpt>
<trkpt lat="46.43867725" lon="7.23416327"><ele>1409.270996</ele><time>2010-10-07T13:54:30Z</time></trkpt>
<trkpt lat="46.43863718" lon="7.23394032"><ele>1411.245972</ele><time>2010-10-07T13:54:38Z</time></trkpt>
<trkpt lat="46.43860022" lon="7.23372533"><ele>1413.932983</ele><time>2010-10-07T13:54:47Z</time></trkpt>
<trkpt lat="46.43857122" lon="7.23359131"><ele>1415.593018</ele><time>2010-10-07T13:54:54Z</time></trkpt>
<trkpt lat="46.43851925" lon="7.23349031"><ele>1416.886963</ele><time>2010-10-07T13:55:00Z</time></trkpt>
<trkpt lat="46.43851522" lon="7.23345527"><ele>1417.238037</ele><time>2010-10-07T13:55:02Z</time></trkpt>
<trkpt lat="46.43847223" lon="7.23332729"><ele>1419.147949</ele><time>2010-10-07T13:55:11Z</time></trkpt>
<trkpt lat="46.43846518" lon="7.23331530"><ele>1419.397949</ele><time>2010-10-07T13:55:12Z</time></trkpt>
<trkpt lat="46.43841221" lon="7.23314230"><ele>1421.463013</ele><time>2010-10-07T13:55:22Z</time></trkpt>
<trkpt lat="46.43842923" lon="7.23303033"><ele>1422.560059</ele><time>2010-10-07T13:55:28Z</time></trkpt>
<trkpt lat="46.43842520" lon="7.23291332"><ele>1424.142944</ele><time>2010-10-07T13:55:35Z</time></trkpt>
<trkpt lat="46.43843426" lon="7.23283034"><ele>1425.098022</ele><time>2010-10-07T13:55:40Z</time></trkpt>
<trkpt lat="46.43842026" lon="7.23265936"><ele>1427.042969</ele><time>2010-10-07T13:55:50Z</time></trkpt>
<trkpt lat="46.43833619" lon="7.23251930"><ele>1428.699951</ele><time>2010-10-07T13:55:58Z</time></trkpt>
<trkpt lat="46.43827123" lon="7.23242635"><ele>1430.292969</ele><time>2010-10-07T13:56:06Z</time></trkpt>
<trkpt lat="46.43829621" lon="7.23243331"><ele>1430.51001</ele><time>2010-10-07T13:56:09Z</time></trkpt>
<trkpt lat="46.43835622" lon="7.23252835"><ele>1431.229004</ele><time>2010-10-07T13:56:46Z</time></trkpt>
<trkpt lat="46.43835823" lon="7.23252534"><ele>1431.317017</ele><time>2010-10-07T13:56:47Z</time></trkpt>
<trkpt lat="46.43837223" lon="7.23242937"><ele>1433.04895</ele><time>2010-10-07T13:58:29Z</time></trkpt>
<trkpt lat="46.43837223" lon="7.23242836"><ele>1433.188965</ele><time>2010-10-07T13:58:30Z</time></trkpt>
<trkpt lat="46.43831423" lon="7.23248636"><ele>1433.463013</ele><time>2010-10-07T13:58:52Z</time></trkpt>
<trkpt lat="46.43829026" lon="7.23244730"><ele>1433.807983</ele><time>2010-10-07T13:58:54Z</time></trkpt>
<trkpt lat="46.43819026" lon="7.23231236"><ele>1436.139038</ele><time>2010-10-07T13:59:03Z</time></trkpt>
<trkpt lat="46.43813620" lon="7.23224338"><ele>1437.125</ele><time>2010-10-07T13:59:08Z</time></trkpt>
<trkpt lat="46.43807719" lon="7.23208731"><ele>1439.23999</ele><time>2010-10-07T13:59:16Z</time></trkpt>
<trkpt lat="46.43807920" lon="7.23196637"><ele>1440.237061</ele><time>2010-10-07T13:59:21Z</time></trkpt>
<trkpt lat="46.43809823" lon="7.23188037"><ele>1440.881958</ele><time>2010-10-07T13:59:25Z</time></trkpt>
<trkpt lat="46.43812321" lon="7.23174333"><ele>1442.07605</ele><time>2010-10-07T13:59:31Z</time></trkpt>
<trkpt lat="46.43814818" lon="7.23159540"><ele>1443.57605</ele><time>2010-10-07T13:59:38Z</time></trkpt>
<trkpt lat="46.43815925" lon="7.23144939"><ele>1445.040039</ele><time>2010-10-07T13:59:45Z</time></trkpt>
<trkpt lat="46.43816922" lon="7.23138041"><ele>1445.878052</ele><time>2010-10-07T13:59:49Z</time></trkpt>
<trkpt lat="46.43818926" lon="7.23131436"><ele>1446.847046</ele><time>2010-10-07T13:59:53Z</time></trkpt>
<trkpt lat="46.43823226" lon="7.23116241"><ele>1448.802979</ele><time>2010-10-07T14:00:02Z</time></trkpt>
<trkpt lat="46.43824123" lon="7.23112938"><ele>1449.13501</ele><time>2010-10-07T14:00:04Z</time></trkpt>
<trkpt lat="46.43822421" lon="7.23091138"><ele>1451.505005</ele><time>2010-10-07T14:00:15Z</time></trkpt>
<trkpt lat="46.43816026" lon="7.23071944"><ele>1453.651001</ele><time>2010-10-07T14:00:24Z</time></trkpt>
<trkpt lat="46.43812723" lon="7.23059238"><ele>1455.338013</ele><time>2010-10-07T14:00:32Z</time></trkpt>
<trkpt lat="46.43808323" lon="7.23053144"><ele>1457.339966</ele><time>2010-10-07T14:00:41Z</time></trkpt>
<trkpt lat="46.43805523" lon="7.23050940"><ele>1458.046997</ele><time>2010-10-07T14:00:45Z</time></trkpt>
<trkpt lat="46.43798122" lon="7.23042642"><ele>1460.265015</ele><time>2010-10-07T14:00:55Z</time></trkpt>
<trkpt lat="46.43788324" lon="7.23032643"><ele>1462.67395</ele><time>2010-10-07T14:01:06Z</time></trkpt>
<trkpt lat="46.43782926" lon="7.23027538"><ele>1464.235962</ele><time>2010-10-07T14:01:13Z</time></trkpt>
<trkpt lat="46.43775122" lon="7.23027044"><ele>1465.866943</ele><time>2010-10-07T14:01:21Z</time></trkpt>
<trkpt lat="46.43767226" lon="7.23023238"><ele>1467.480957</ele><time>2010-10-07T14:01:28Z</time></trkpt>
<trkpt lat="46.43758123" lon="7.23019240"><ele>1468.995972</ele><time>2010-10-07T14:01:36Z</time></trkpt>
<trkpt lat="46.43748023" lon="7.23009241"><ele>1471.072998</ele><time>2010-10-07T14:01:46Z</time></trkpt>
<trkpt lat="46.43743723" lon="7.22996744"><ele>1472.425049</ele><time>2010-10-07T14:01:53Z</time></trkpt>
<trkpt lat="46.43744721" lon="7.22979545"><ele>1473.906982</ele><time>2010-10-07T14:02:01Z</time></trkpt>
<trkpt lat="46.43743824" lon="7.22958742"><ele>1475.765015</ele><time>2010-10-07T14:02:11Z</time></trkpt>
<trkpt lat="46.43744821" lon="7.22939146"><ele>1477.782959</ele><time>2010-10-07T14:02:21Z</time></trkpt>
<trkpt lat="46.43744126" lon="7.22923045"><ele>1479.473022</ele><time>2010-10-07T14:02:29Z</time></trkpt>
<trkpt lat="46.43745718" lon="7.22908050"><ele>1480.965942</ele><time>2010-10-07T14:02:37Z</time></trkpt>
<trkpt lat="46.43748225" lon="7.22887247"><ele>1483.421997</ele><time>2010-10-07T14:02:48Z</time></trkpt>
<trkpt lat="46.43748124" lon="7.22882151"><ele>1483.801025</ele><time>2010-10-07T14:02:51Z</time></trkpt>
<trkpt lat="46.43748426" lon="7.22874650"><ele>1484.696045</ele><time>2010-10-07T14:02:56Z</time></trkpt>
<trkpt lat="46.43747923" lon="7.22871448"><ele>1484.916016</ele><time>2010-10-07T14:02:58Z</time></trkpt>
<trkpt lat="46.43746221" lon="7.22857652"><ele>1486.540039</ele><time>2010-10-07T14:03:06Z</time></trkpt>
<trkpt lat="46.43746020" lon="7.22853444"><ele>1487.139038</ele><time>2010-10-07T14:03:09Z</time></trkpt>
<trkpt lat="46.43745023" lon="7.22846345"><ele>1487.843018</ele><time>2010-10-07T14:03:13Z</time></trkpt>
<trkpt lat="46.43742818" lon="7.22831250"><ele>1489.505005</ele><time>2010-10-07T14:03:22Z</time></trkpt>
<trkpt lat="46.43737722" lon="7.22821049"><ele>1490.583008</ele><time>2010-10-07T14:03:29Z</time></trkpt>
<trkpt lat="46.43730623" lon="7.22806750"><ele>1492.410034</ele><time>2010-10-07T14:03:38Z</time></trkpt>
<trkpt lat="46.43727119" lon="7.22797053"><ele>1493.93396</ele><time>2010-10-07T14:03:45Z</time></trkpt>
<trkpt lat="46.43719123" lon="7.22790247"><ele>1495.31604</ele><time>2010-10-07T14:03:54Z</time></trkpt>
<trkpt lat="46.43717321" lon="7.22788847"><ele>1495.96106</ele><time>2010-10-07T14:03:56Z</time></trkpt>
<trkpt lat="46.43710221" lon="7.22788151"><ele>1497.187988</ele><time>2010-10-07T14:04:03Z</time></trkpt>
<trkpt lat="46.43700121" lon="7.22785251"><ele>1498.753052</ele><time>2010-10-07T14:04:13Z</time></trkpt>
<trkpt lat="46.43690523" lon="7.22777247"><ele>1500.505981</ele><time>2010-10-07T14:04:24Z</time></trkpt>
<trkpt lat="46.43688822" lon="7.22771053"><ele>1501.30603</ele><time>2010-10-07T14:04:28Z</time></trkpt>
<trkpt lat="46.43683524" lon="7.22760249"><ele>1502.718994</ele><time>2010-10-07T14:04:36Z</time></trkpt>
<trkpt lat="46.43679023" lon="7.22747752"><ele>1504.182983</ele><time>2010-10-07T14:04:44Z</time></trkpt>
<trkpt lat="46.43673223" lon="7.22739354"><ele>1505.412964</ele><time>2010-10-07T14:04:51Z</time></trkpt>
<trkpt lat="46.43671622" lon="7.22736454"><ele>1505.755005</ele><time>2010-10-07T14:04:53Z</time></trkpt>
<trkpt lat="46.43667121" lon="7.22735054"><ele>1506.567017</ele><time>2010-10-07T14:04:57Z</time></trkpt>
<trkpt lat="46.43662620" lon="7.22732456"><ele>1507.33606</ele><time>2010-10-07T14:05:02Z</time></trkpt>
<trkpt lat="46.43652721" lon="7.22725054"><ele>1509.06604</ele><time>2010-10-07T14:05:11Z</time></trkpt>
<trkpt lat="46.43647918" lon="7.22720352"><ele>1510.000977</ele><time>2010-10-07T14:05:16Z</time></trkpt>
<trkpt lat="46.43644221" lon="7.22709649"><ele>1511.170044</ele><time>2010-10-07T14:05:23Z</time></trkpt>
<trkpt lat="46.43638824" lon="7.22695551"><ele>1512.640991</ele><time>2010-10-07T14:05:32Z</time></trkpt>
<trkpt lat="46.43638220" lon="7.22693850"><ele>1512.828003</ele><time>2010-10-07T14:05:33Z</time></trkpt>
<trkpt lat="46.43636820" lon="7.22686851"><ele>1513.529053</ele><time>2010-10-07T14:05:37Z</time></trkpt>
<trkpt lat="46.43639519" lon="7.22671454"><ele>1515.118042</ele><time>2010-10-07T14:05:47Z</time></trkpt>
<trkpt lat="46.43645119" lon="7.22657859"><ele>1516.651001</ele><time>2010-10-07T14:05:57Z</time></trkpt>
<trkpt lat="46.43646124" lon="7.22654959"><ele>1517.109009</ele><time>2010-10-07T14:05:59Z</time></trkpt>
<trkpt lat="46.43652621" lon="7.22642354"><ele>1518.504028</ele><time>2010-10-07T14:06:08Z</time></trkpt>
<trkpt lat="46.43659821" lon="7.22629857"><ele>1519.724976</ele><time>2010-10-07T14:06:17Z</time></trkpt>
<trkpt lat="46.43665923" lon="7.22618961"><ele>1520.790039</ele><time>2010-10-07T14:06:24Z</time></trkpt>
<trkpt lat="46.43672821" lon="7.22602860"><ele>1522.432007</ele><time>2010-10-07T14:06:33Z</time></trkpt>
<trkpt lat="46.43679125" lon="7.22586759"><ele>1523.487061</ele><time>2010-10-07T14:06:42Z</time></trkpt>
<trkpt lat="46.43680625" lon="7.22574958"><ele>1524.380981</ele><time>2010-10-07T14:06:48Z</time></trkpt>
<trkpt lat="46.43683727" lon="7.22555261"><ele>1525.970947</ele><time>2010-10-07T14:06:58Z</time></trkpt>
<trkpt lat="46.43684020" lon="7.22538263"><ele>1527.342041</ele><time>2010-10-07T14:07:06Z</time></trkpt>
<trkpt lat="46.43687222" lon="7.22521760"><ele>1528.821045</ele><time>2010-10-07T14:07:14Z</time></trkpt>
<trkpt lat="46.43686627" lon="7.22515557"><ele>1529.269043</ele><time>2010-10-07T14:07:17Z</time></trkpt>
<trkpt lat="46.43687423" lon="7.22507662"><ele>1530.052979</ele><time>2010-10-07T14:07:21Z</time></trkpt>
<trkpt lat="46.43687021" lon="7.22490765"><ele>1531.340942</ele><time>2010-10-07T14:07:29Z</time></trkpt>
<trkpt lat="46.43685420" lon="7.22468964"><ele>1532.854004</ele><time>2010-10-07T14:07:39Z</time></trkpt>
<trkpt lat="46.43681221" lon="7.22452561"><ele>1534.199951</ele><time>2010-10-07T14:07:46Z</time></trkpt>
<trkpt lat="46.43673820" lon="7.22428464"><ele>1535.536011</ele><time>2010-10-07T14:07:55Z</time></trkpt>
<trkpt lat="46.43667223" lon="7.22406865"><ele>1536.572021</ele><time>2010-10-07T14:08:02Z</time></trkpt>
<trkpt lat="46.43660023" lon="7.22377764"><ele>1538.087036</ele><time>2010-10-07T14:08:11Z</time></trkpt>
<trkpt lat="46.43655824" lon="7.22348864"><ele>1539.891968</ele><time>2010-10-07T14:08:20Z</time></trkpt>
<trkpt lat="46.43649328" lon="7.22318171"><ele>1541.47998</ele><time>2010-10-07T14:08:30Z</time></trkpt>
<trkpt lat="46.43645522" lon="7.22295373"><ele>1542.661011</ele><time>2010-10-07T14:08:38Z</time></trkpt>
<trkpt lat="46.43641122" lon="7.22275174"><ele>1544.391968</ele><time>2010-10-07T14:08:46Z</time></trkpt>
<trkpt lat="46.43638524" lon="7.22257069"><ele>1545.69104</ele><time>2010-10-07T14:08:53Z</time></trkpt>
<trkpt lat="46.43638423" lon="7.22235076"><ele>1547.468018</ele><time>2010-10-07T14:09:02Z</time></trkpt>
<trkpt lat="46.43639027" lon="7.22216670"><ele>1548.93396</ele><time>2010-10-07T14:09:10Z</time></trkpt>
<trkpt lat="46.43643922" lon="7.22200569"><ele>1550.661011</ele><time>2010-10-07T14:09:18Z</time></trkpt>
<trkpt lat="46.43646923" lon="7.22185474"><ele>1552.088989</ele><time>2010-10-07T14:09:26Z</time></trkpt>
<trkpt lat="46.43652824" lon="7.22168476"><ele>1553.838989</ele><time>2010-10-07T14:09:35Z</time></trkpt>
<trkpt lat="46.43656328" lon="7.22153775"><ele>1555.313965</ele><time>2010-10-07T14:09:43Z</time></trkpt>
<trkpt lat="46.43659722" lon="7.22141077"><ele>1556.793945</ele><time>2010-10-07T14:09:52Z</time></trkpt>
<trkpt lat="46.43662723" lon="7.22131874"><ele>1557.859009</ele><time>2010-10-07T14:09:59Z</time></trkpt>
<trkpt lat="46.43663922" lon="7.22126175"><ele>1558.510986</ele><time>2010-10-07T14:10:03Z</time></trkpt>
<trkpt lat="46.43667627" lon="7.22114080"><ele>1559.629028</ele><time>2010-10-07T14:10:11Z</time></trkpt>
<trkpt lat="46.43672723" lon="7.22102379"><ele>1561.008057</ele><time>2010-10-07T14:10:20Z</time></trkpt>
<trkpt lat="46.43673226" lon="7.22101080"><ele>1561.141968</ele><time>2010-10-07T14:10:21Z</time></trkpt>
<trkpt lat="46.43675925" lon="7.22086681"><ele>1562.474976</ele><time>2010-10-07T14:10:30Z</time></trkpt>
<trkpt lat="46.43680527" lon="7.22071175"><ele>1563.994995</ele><time>2010-10-07T14:10:39Z</time></trkpt>
<trkpt lat="46.43681725" lon="7.22055476"><ele>1565.290039</ele><time>2010-10-07T14:10:47Z</time></trkpt>
<trkpt lat="46.43680125" lon="7.22043583"><ele>1566.588013</ele><time>2010-10-07T14:10:53Z</time></trkpt>
<trkpt lat="46.43679027" lon="7.22026183"><ele>1568.137939</ele><time>2010-10-07T14:11:02Z</time></trkpt>
<trkpt lat="46.43678323" lon="7.22007282"><ele>1570</ele><time>2010-10-07T14:11:12Z</time></trkpt>
<trkpt lat="46.43678323" lon="7.21989781"><ele>1571.713989</ele><time>2010-10-07T14:11:21Z</time></trkpt>
<trkpt lat="46.43678423" lon="7.21971887"><ele>1573.531006</ele><time>2010-10-07T14:11:31Z</time></trkpt>
<trkpt lat="46.43678423" lon="7.21955786"><ele>1575.243042</ele><time>2010-10-07T14:11:40Z</time></trkpt>
<trkpt lat="46.43676328" lon="7.21943180"><ele>1576.416016</ele><time>2010-10-07T14:11:47Z</time></trkpt>
<trkpt lat="46.43676227" lon="7.21941386"><ele>1576.60498</ele><time>2010-10-07T14:11:48Z</time></trkpt>
<trkpt lat="46.43672523" lon="7.21930985"><ele>1577.868042</ele><time>2010-10-07T14:11:54Z</time></trkpt>
<trkpt lat="46.43672523" lon="7.21926987"><ele>1578.258057</ele><time>2010-10-07T14:11:56Z</time></trkpt>
<trkpt lat="46.43669027" lon="7.21910383"><ele>1579.733032</ele><time>2010-10-07T14:12:05Z</time></trkpt>
<trkpt lat="46.43668927" lon="7.21900987"><ele>1580.319946</ele><time>2010-10-07T14:12:10Z</time></trkpt>
<trkpt lat="46.43665222" lon="7.21881190"><ele>1582.16394</ele><time>2010-10-07T14:12:21Z</time></trkpt>
<trkpt lat="46.43661425" lon="7.21866388"><ele>1583.483032</ele><time>2010-10-07T14:12:30Z</time></trkpt>
<trkpt lat="46.43654627" lon="7.21858291"><ele>1584.491943</ele><time>2010-10-07T14:12:37Z</time></trkpt>
<trkpt lat="46.43653026" lon="7.21842986"><ele>1585.902954</ele><time>2010-10-07T14:12:45Z</time></trkpt>
<trkpt lat="46.43656329" lon="7.21836189"><ele>1586.614014</ele><time>2010-10-07T14:12:49Z</time></trkpt>
<trkpt lat="46.43662724" lon="7.21836692"><ele>1587.140015</ele><time>2010-10-07T14:12:53Z</time></trkpt>
<trkpt lat="46.43673822" lon="7.21852290"><ele>1588.489014</ele><time>2010-10-07T14:13:01Z</time></trkpt>
<trkpt lat="46.43684727" lon="7.21873185"><ele>1590.230957</ele><time>2010-10-07T14:13:11Z</time></trkpt>
<trkpt lat="46.43693729" lon="7.21891684"><ele>1591.995972</ele><time>2010-10-07T14:13:20Z</time></trkpt>
<trkpt lat="46.43701625" lon="7.21908589"><ele>1593.735962</ele><time>2010-10-07T14:13:29Z</time></trkpt>
<trkpt lat="46.43709630" lon="7.21922385"><ele>1595.536011</ele><time>2010-10-07T14:13:38Z</time></trkpt>
<trkpt lat="46.43717425" lon="7.21935486"><ele>1597.055054</ele><time>2010-10-07T14:13:47Z</time></trkpt>
<trkpt lat="46.43725924" lon="7.21947983"><ele>1598.869995</ele><time>2010-10-07T14:13:56Z</time></trkpt>
<trkpt lat="46.43733124" lon="7.21963480"><ele>1600.192017</ele><time>2010-10-07T14:14:05Z</time></trkpt>
<trkpt lat="46.43738824" lon="7.21978081"><ele>1601.969971</ele><time>2010-10-07T14:14:14Z</time></trkpt>
<trkpt lat="46.43745328" lon="7.21991584"><ele>1603.626953</ele><time>2010-10-07T14:14:23Z</time></trkpt>
<trkpt lat="46.43751330" lon="7.22003578"><ele>1604.953979</ele><time>2010-10-07T14:14:31Z</time></trkpt>
<trkpt lat="46.43758530" lon="7.22021079"><ele>1607.14502</ele><time>2010-10-07T14:14:43Z</time></trkpt>
<trkpt lat="46.43765328" lon="7.22032578"><ele>1608.895996</ele><time>2010-10-07T14:14:52Z</time></trkpt>
<trkpt lat="46.43771924" lon="7.22035479"><ele>1609.791016</ele><time>2010-10-07T14:14:58Z</time></trkpt>
<trkpt lat="46.43779426" lon="7.22043282"><ele>1611.189941</ele><time>2010-10-07T14:15:06Z</time></trkpt>
<trkpt lat="46.43788923" lon="7.22054077"><ele>1612.956055</ele><time>2010-10-07T14:15:16Z</time></trkpt>
<trkpt lat="46.43798529" lon="7.22063683"><ele>1614.464966</ele><time>2010-10-07T14:15:25Z</time></trkpt>
<trkpt lat="46.43801923" lon="7.22069483"><ele>1615.061035</ele><time>2010-10-07T14:15:29Z</time></trkpt>
<trkpt lat="46.43808227" lon="7.22080681"><ele>1616.569946</ele><time>2010-10-07T14:15:37Z</time></trkpt>
<trkpt lat="46.43811831" lon="7.22094477"><ele>1617.984985</ele><time>2010-10-07T14:15:44Z</time></trkpt>
<trkpt lat="46.43812225" lon="7.22098676"><ele>1618.255981</ele><time>2010-10-07T14:15:46Z</time></trkpt>
<trkpt lat="46.43818126" lon="7.22117174"><ele>1620.030029</ele><time>2010-10-07T14:15:56Z</time></trkpt>
<trkpt lat="46.43823725" lon="7.22139276"><ele>1621.594971</ele><time>2010-10-07T14:16:07Z</time></trkpt>
<trkpt lat="46.43831528" lon="7.22156576"><ele>1622.692993</ele><time>2010-10-07T14:16:15Z</time></trkpt>
<trkpt lat="46.43835526" lon="7.22155880"><ele>1623.109009</ele><time>2010-10-07T14:16:20Z</time></trkpt>
<trkpt lat="46.43838628" lon="7.22147281"><ele>1623.593018</ele><time>2010-10-07T14:16:29Z</time></trkpt>
<trkpt lat="46.43838024" lon="7.22144079"><ele>1623.772949</ele><time>2010-10-07T14:16:34Z</time></trkpt>
<trkpt lat="46.43828326" lon="7.22137877"><ele>1625.616943</ele><time>2010-10-07T14:18:35Z</time></trkpt>
<trkpt lat="46.43824823" lon="7.22125581"><ele>1626.386963</ele><time>2010-10-07T14:18:40Z</time></trkpt>
<trkpt lat="46.43822426" lon="7.22105281"><ele>1627.687988</ele><time>2010-10-07T14:18:48Z</time></trkpt>
<trkpt lat="46.43822727" lon="7.22084377"><ele>1629.165039</ele><time>2010-10-07T14:18:57Z</time></trkpt>
<trkpt lat="46.43822426" lon="7.22072484"><ele>1629.947998</ele><time>2010-10-07T14:19:03Z</time></trkpt>
<trkpt lat="46.43820724" lon="7.22060179"><ele>1630.89502</ele><time>2010-10-07T14:19:09Z</time></trkpt>
<trkpt lat="46.43816726" lon="7.22041581"><ele>1632.392944</ele><time>2010-10-07T14:19:18Z</time></trkpt>
<trkpt lat="46.43809627" lon="7.22024281"><ele>1633.859985</ele><time>2010-10-07T14:19:27Z</time></trkpt>
<trkpt lat="46.43804027" lon="7.22008985"><ele>1635.270996</ele><time>2010-10-07T14:19:35Z</time></trkpt>
<trkpt lat="46.43798328" lon="7.21993881"><ele>1636.534058</ele><time>2010-10-07T14:19:43Z</time></trkpt>
<trkpt lat="46.43795025" lon="7.21977386"><ele>1637.926025</ele><time>2010-10-07T14:19:51Z</time></trkpt>
<trkpt lat="46.43789225" lon="7.21958687"><ele>1639.535034</ele><time>2010-10-07T14:20:01Z</time></trkpt>
<trkpt lat="46.43784229" lon="7.21944287"><ele>1640.657959</ele><time>2010-10-07T14:20:09Z</time></trkpt>
<trkpt lat="46.43778429" lon="7.21928588"><ele>1641.964966</ele><time>2010-10-07T14:20:17Z</time></trkpt>
<trkpt lat="46.43774129" lon="7.21909084"><ele>1643.44104</ele><time>2010-10-07T14:20:26Z</time></trkpt>
<trkpt lat="46.43767524" lon="7.21888583"><ele>1645.000977</ele><time>2010-10-07T14:20:35Z</time></trkpt>
<trkpt lat="46.43763828" lon="7.21868585"><ele>1646.511963</ele><time>2010-10-07T14:20:43Z</time></trkpt>
<trkpt lat="46.43761925" lon="7.21844890"><ele>1648.187012</ele><time>2010-10-07T14:20:52Z</time></trkpt>
<trkpt lat="46.43760526" lon="7.21821690"><ele>1650.100952</ele><time>2010-10-07T14:21:01Z</time></trkpt>
<trkpt lat="46.43759629" lon="7.21802094"><ele>1651.91394</ele><time>2010-10-07T14:21:09Z</time></trkpt>
<trkpt lat="46.43758330" lon="7.21784693"><ele>1653.240967</ele><time>2010-10-07T14:21:17Z</time></trkpt>
<trkpt lat="46.43756427" lon="7.21768693"><ele>1654.639038</ele><time>2010-10-07T14:21:24Z</time></trkpt>
<trkpt lat="46.43753929" lon="7.21753095"><ele>1655.75</ele><time>2010-10-07T14:21:31Z</time></trkpt>
<trkpt lat="46.43749931" lon="7.21741394"><ele>1656.714966</ele><time>2010-10-07T14:21:37Z</time></trkpt>
<trkpt lat="46.43744726" lon="7.21719795"><ele>1658.428955</ele><time>2010-10-07T14:21:47Z</time></trkpt>
<trkpt lat="46.43741424" lon="7.21699796"><ele>1659.666992</ele><time>2010-10-07T14:21:56Z</time></trkpt>
<trkpt lat="46.43737325" lon="7.21674392"><ele>1661.140015</ele><time>2010-10-07T14:22:07Z</time></trkpt>
<trkpt lat="46.43728130" lon="7.21647093"><ele>1662.702026</ele><time>2010-10-07T14:22:17Z</time></trkpt>
<trkpt lat="46.43722531" lon="7.21619098"><ele>1664.270996</ele><time>2010-10-07T14:22:26Z</time></trkpt>
<trkpt lat="46.43711928" lon="7.21590199"><ele>1666.152954</ele><time>2010-10-07T14:22:36Z</time></trkpt>
<trkpt lat="46.43702825" lon="7.21571600"><ele>1667.412964</ele><time>2010-10-07T14:22:43Z</time></trkpt>
<trkpt lat="46.43692230" lon="7.21552800"><ele>1668.926025</ele><time>2010-10-07T14:22:50Z</time></trkpt>
<trkpt lat="46.43678626" lon="7.21531997"><ele>1670.350952</ele><time>2010-10-07T14:22:59Z</time></trkpt>
<trkpt lat="46.43667227" lon="7.21517899"><ele>1671.833984</ele><time>2010-10-07T14:23:07Z</time></trkpt>
<trkpt lat="46.43658526" lon="7.21498303"><ele>1673.29895</ele><time>2010-10-07T14:23:16Z</time></trkpt>
<trkpt lat="46.43653430" lon="7.21479302"><ele>1674.762939</ele><time>2010-10-07T14:23:24Z</time></trkpt>
<trkpt lat="46.43645727" lon="7.21462807"><ele>1675.910034</ele><time>2010-10-07T14:23:31Z</time></trkpt>
<trkpt lat="46.43633825" lon="7.21439606"><ele>1677.758057</ele><time>2010-10-07T14:23:41Z</time></trkpt>
<trkpt lat="46.43624026" lon="7.21419407"><ele>1679.534058</ele><time>2010-10-07T14:23:50Z</time></trkpt>
<trkpt lat="46.43615427" lon="7.21396005"><ele>1681.061035</ele><time>2010-10-07T14:24:00Z</time></trkpt>
<trkpt lat="46.43607631" lon="7.21377406"><ele>1682.44104</ele><time>2010-10-07T14:24:08Z</time></trkpt>
<trkpt lat="46.43600725" lon="7.21362110"><ele>1683.56604</ele><time>2010-10-07T14:24:15Z</time></trkpt>
<trkpt lat="46.43591127" lon="7.21342505"><ele>1685.307007</ele><time>2010-10-07T14:24:24Z</time></trkpt>
<trkpt lat="46.43584623" lon="7.21324803"><ele>1686.463989</ele><time>2010-10-07T14:24:32Z</time></trkpt>
<trkpt lat="46.43579024" lon="7.21307210"><ele>1687.057983</ele><time>2010-10-07T14:24:39Z</time></trkpt>
<trkpt lat="46.43573031" lon="7.21291109"><ele>1687.791016</ele><time>2010-10-07T14:24:45Z</time></trkpt>
<trkpt lat="46.43559226" lon="7.21266912"><ele>1687.68103</ele><time>2010-10-07T14:24:53Z</time></trkpt>
<trkpt lat="46.43542428" lon="7.21240912"><ele>1688.421021</ele><time>2010-10-07T14:25:02Z</time></trkpt>
<trkpt lat="46.43533225" lon="7.21228909"><ele>1689.999023</ele><time>2010-10-07T14:25:08Z</time></trkpt>
<trkpt lat="46.43522328" lon="7.21213311"><ele>1692.051025</ele><time>2010-10-07T14:25:17Z</time></trkpt>
<trkpt lat="46.43516428" lon="7.21203111"><ele>1693.381958</ele><time>2010-10-07T14:25:23Z</time></trkpt>
<trkpt lat="46.43510024" lon="7.21190714"><ele>1695.124023</ele><time>2010-10-07T14:25:30Z</time></trkpt>
<trkpt lat="46.43503226" lon="7.21176415"><ele>1696.670044</ele><time>2010-10-07T14:25:38Z</time></trkpt>
<trkpt lat="46.43498029" lon="7.21164715"><ele>1697.916016</ele><time>2010-10-07T14:25:45Z</time></trkpt>
<trkpt lat="46.43492531" lon="7.21153416"><ele>1699.125</ele><time>2010-10-07T14:25:52Z</time></trkpt>
<trkpt lat="46.43483830" lon="7.21141313"><ele>1700.515015</ele><time>2010-10-07T14:26:01Z</time></trkpt>
<trkpt lat="46.43474929" lon="7.21133116"><ele>1701.965942</ele><time>2010-10-07T14:26:09Z</time></trkpt>
<trkpt lat="46.43465231" lon="7.21125715"><ele>1703.515991</ele><time>2010-10-07T14:26:18Z</time></trkpt>
<trkpt lat="46.43459824" lon="7.21123217"><ele>1704.331055</ele><time>2010-10-07T14:26:23Z</time></trkpt>
<trkpt lat="46.43453429" lon="7.21120610"><ele>1705.165039</ele><time>2010-10-07T14:26:29Z</time></trkpt>
<trkpt lat="46.43450428" lon="7.21118716"><ele>1705.634033</ele><time>2010-10-07T14:26:32Z</time></trkpt>
<trkpt lat="46.43444125" lon="7.21116218"><ele>1706.745972</ele><time>2010-10-07T14:26:38Z</time></trkpt>
<trkpt lat="46.43434829" lon="7.21110510"><ele>1708.282959</ele><time>2010-10-07T14:26:48Z</time></trkpt>
<trkpt lat="46.43429725" lon="7.21105314"><ele>1709.339966</ele><time>2010-10-07T14:26:54Z</time></trkpt>
<trkpt lat="46.43422030" lon="7.21097217"><ele>1710.73999</ele><time>2010-10-07T14:27:03Z</time></trkpt>
<trkpt lat="46.43420823" lon="7.21094418"><ele>1711.041016</ele><time>2010-10-07T14:27:05Z</time></trkpt>
<trkpt lat="46.43413925" lon="7.21080018"><ele>1712.750977</ele><time>2010-10-07T14:27:15Z</time></trkpt>
<trkpt lat="46.43410128" lon="7.21067915"><ele>1713.910034</ele><time>2010-10-07T14:27:22Z</time></trkpt>
<trkpt lat="46.43408728" lon="7.21052619"><ele>1715.479004</ele><time>2010-10-07T14:27:30Z</time></trkpt>
<trkpt lat="46.43408527" lon="7.21038420"><ele>1716.646973</ele><time>2010-10-07T14:27:37Z</time></trkpt>
<trkpt lat="46.43408326" lon="7.21019520"><ele>1718.420044</ele><time>2010-10-07T14:27:47Z</time></trkpt>
<trkpt lat="46.43407328" lon="7.21007115"><ele>1719.743042</ele><time>2010-10-07T14:27:54Z</time></trkpt>
<trkpt lat="46.43406624" lon="7.20993319"><ele>1721.135986</ele><time>2010-10-07T14:28:02Z</time></trkpt>
<trkpt lat="46.43404529" lon="7.20977017"><ele>1722.630005</ele><time>2010-10-07T14:28:11Z</time></trkpt>
<trkpt lat="46.43403724" lon="7.20966121"><ele>1723.592041</ele><time>2010-10-07T14:28:17Z</time></trkpt>
<trkpt lat="46.43399223" lon="7.20954822"><ele>1724.626953</ele><time>2010-10-07T14:28:24Z</time></trkpt>
<trkpt lat="46.43395527" lon="7.20942225"><ele>1725.925049</ele><time>2010-10-07T14:28:31Z</time></trkpt>
<trkpt lat="46.43390129" lon="7.20924623"><ele>1727.468994</ele><time>2010-10-07T14:28:41Z</time></trkpt>
<trkpt lat="46.43385024" lon="7.20908724"><ele>1728.982056</ele><time>2010-10-07T14:28:50Z</time></trkpt>
<trkpt lat="46.43382325" lon="7.20893620"><ele>1730.47998</ele><time>2010-10-07T14:28:58Z</time></trkpt>
<trkpt lat="46.43377824" lon="7.20877326"><ele>1732.110962</ele><time>2010-10-07T14:29:07Z</time></trkpt>
<trkpt lat="46.43376030" lon="7.20864226"><ele>1733.446045</ele><time>2010-10-07T14:29:15Z</time></trkpt>
<trkpt lat="46.43374530" lon="7.20854327"><ele>1734.47998</ele><time>2010-10-07T14:29:21Z</time></trkpt>
<trkpt lat="46.43372024" lon="7.20841621"><ele>1735.61499</ele><time>2010-10-07T14:29:29Z</time></trkpt>
<trkpt lat="46.43369627" lon="7.20828822"><ele>1736.76001</ele><time>2010-10-07T14:29:37Z</time></trkpt>
<trkpt lat="46.43369627" lon="7.20822427"><ele>1737.313965</ele><time>2010-10-07T14:29:41Z</time></trkpt>
<trkpt lat="46.43365830" lon="7.20807223"><ele>1738.751953</ele><time>2010-10-07T14:29:51Z</time></trkpt>
<trkpt lat="46.43365729" lon="7.20801230"><ele>1739.421021</ele><time>2010-10-07T14:29:55Z</time></trkpt>
<trkpt lat="46.43361630" lon="7.20791323"><ele>1740.550049</ele><time>2010-10-07T14:30:02Z</time></trkpt>
<trkpt lat="46.43351723" lon="7.20777225"><ele>1742.224976</ele><time>2010-10-07T14:30:13Z</time></trkpt>
<trkpt lat="46.43341924" lon="7.20774124"><ele>1743.406006</ele><time>2010-10-07T14:30:20Z</time></trkpt>
<trkpt lat="46.43331824" lon="7.20771223"><ele>1744.064941</ele><time>2010-10-07T14:30:27Z</time></trkpt>
<trkpt lat="46.43315923" lon="7.20767527"><ele>1745.410034</ele><time>2010-10-07T14:30:37Z</time></trkpt>
<trkpt lat="46.43299428" lon="7.20767326"><ele>1746.32605</ele><time>2010-10-07T14:30:46Z</time></trkpt>
<trkpt lat="46.43283628" lon="7.20771625"><ele>1747.156982</ele><time>2010-10-07T14:30:54Z</time></trkpt>
<trkpt lat="46.43269722" lon="7.20775028"><ele>1748.036011</ele><time>2010-10-07T14:31:01Z</time></trkpt>
<trkpt lat="46.43257727" lon="7.20774324"><ele>1748.569946</ele><time>2010-10-07T14:31:07Z</time></trkpt>
<trkpt lat="46.43256227" lon="7.20761827"><ele>1749.343018</ele><time>2010-10-07T14:31:12Z</time></trkpt>
<trkpt lat="46.43256629" lon="7.20759824"><ele>1749.777954</ele><time>2010-10-07T14:32:17Z</time></trkpt>
<trkpt lat="46.43252723" lon="7.20747629"><ele>1750.015015</ele><time>2010-10-07T14:32:22Z</time></trkpt>
<trkpt lat="46.43248624" lon="7.20740831"><ele>1750.626953</ele><time>2010-10-07T14:32:27Z</time></trkpt>
<trkpt lat="46.43248524" lon="7.20740730"><ele>1750.633057</ele><time>2010-10-07T14:32:28Z</time></trkpt>
<trkpt lat="46.43244224" lon="7.20722827"><ele>1752.053955</ele><time>2010-10-07T14:32:46Z</time></trkpt>
<trkpt lat="46.43242522" lon="7.20716726"><ele>1752.833008</ele><time>2010-10-07T14:32:48Z</time></trkpt>
<trkpt lat="46.43238122" lon="7.20701228"><ele>1755.083984</ele><time>2010-10-07T14:32:53Z</time></trkpt>
<trkpt lat="46.43236127" lon="7.20694632"><ele>1755.855957</ele><time>2010-10-07T14:32:56Z</time></trkpt>
<trkpt lat="46.43233722" lon="7.20685026"><ele>1757.223999</ele><time>2010-10-07T14:33:00Z</time></trkpt>
<trkpt lat="46.43231626" lon="7.20673829"><ele>1758.767944</ele><time>2010-10-07T14:33:06Z</time></trkpt>
<trkpt lat="46.43228827" lon="7.20662631"><ele>1760.735962</ele><time>2010-10-07T14:33:12Z</time></trkpt>
<trkpt lat="46.43226723" lon="7.20651827"><ele>1762.079956</ele><time>2010-10-07T14:33:19Z</time></trkpt>
<trkpt lat="46.43224527" lon="7.20636329"><ele>1763.588013</ele><time>2010-10-07T14:33:29Z</time></trkpt>
<trkpt lat="46.43222725" lon="7.20619633"><ele>1763.876953</ele><time>2010-10-07T14:33:37Z</time></trkpt>
<trkpt lat="46.43218123" lon="7.20602929"><ele>1764.927979</ele><time>2010-10-07T14:33:46Z</time></trkpt>
<trkpt lat="46.43212524" lon="7.20588135"><ele>1765.782959</ele><time>2010-10-07T14:33:53Z</time></trkpt>
<trkpt lat="46.43208928" lon="7.20576937"><ele>1766.73999</ele><time>2010-10-07T14:34:00Z</time></trkpt>
<trkpt lat="46.43201124" lon="7.20573937"><ele>1767.587036</ele><time>2010-10-07T14:34:26Z</time></trkpt>
<trkpt lat="46.43189323" lon="7.20567433"><ele>1768.714966</ele><time>2010-10-07T14:34:35Z</time></trkpt>
<trkpt lat="46.43180127" lon="7.20570433"><ele>1768.982056</ele><time>2010-10-07T14:34:40Z</time></trkpt>
<trkpt lat="46.43170622" lon="7.20575931"><ele>1770.29895</ele><time>2010-10-07T14:34:47Z</time></trkpt>
<trkpt lat="46.43156624" lon="7.20566435"><ele>1771.865967</ele><time>2010-10-07T14:34:56Z</time></trkpt>
<trkpt lat="46.43145728" lon="7.20557936"><ele>1773.031006</ele><time>2010-10-07T14:35:04Z</time></trkpt>
<trkpt lat="46.43133029" lon="7.20545732"><ele>1773.141968</ele><time>2010-10-07T14:35:11Z</time></trkpt>
<trkpt lat="46.43119123" lon="7.20529137"><ele>1773.75</ele><time>2010-10-07T14:35:19Z</time></trkpt>
<trkpt lat="46.43105628" lon="7.20512139"><ele>1775.021973</ele><time>2010-10-07T14:35:28Z</time></trkpt>
<trkpt lat="46.43090625" lon="7.20495937"><ele>1776.68103</ele><time>2010-10-07T14:35:38Z</time></trkpt>
<trkpt lat="46.43079527" lon="7.20486633"><ele>1777.859009</ele><time>2010-10-07T14:35:47Z</time></trkpt>
<trkpt lat="46.43077624" lon="7.20485334"><ele>1777.718994</ele><time>2010-10-07T14:35:48Z</time></trkpt>
<trkpt lat="46.43065822" lon="7.20489332"><ele>1778.194946</ele><time>2010-10-07T14:35:54Z</time></trkpt>
<trkpt lat="46.43055621" lon="7.20487035"><ele>1778.866943</ele><time>2010-10-07T14:36:00Z</time></trkpt>
<trkpt lat="46.43043920" lon="7.20478033"><ele>1780.730957</ele><time>2010-10-07T14:36:07Z</time></trkpt>
<trkpt lat="46.43030626" lon="7.20474538"><ele>1782.339966</ele><time>2010-10-07T14:36:15Z</time></trkpt>
<trkpt lat="46.43018724" lon="7.20470138"><ele>1784.729004</ele><time>2010-10-07T14:36:24Z</time></trkpt>
<trkpt lat="46.43007626" lon="7.20468034"><ele>1785.880005</ele><time>2010-10-07T14:36:32Z</time></trkpt>
<trkpt lat="46.42999127" lon="7.20466533"><ele>1787.637939</ele><time>2010-10-07T14:36:39Z</time></trkpt>
<trkpt lat="46.42997425" lon="7.20466240"><ele>1788.108032</ele><time>2010-10-07T14:36:57Z</time></trkpt>
<trkpt lat="46.42995422" lon="7.20464740"><ele>1788.665039</ele><time>2010-10-07T14:37:11Z</time></trkpt>
<trkpt lat="46.42990225" lon="7.20461437"><ele>1789.515991</ele><time>2010-10-07T14:37:18Z</time></trkpt>
<trkpt lat="46.42989521" lon="7.20460733"><ele>1789.563965</ele><time>2010-10-07T14:37:19Z</time></trkpt>
<trkpt lat="46.42981826" lon="7.20457439"><ele>1790.479004</ele><time>2010-10-07T14:37:28Z</time></trkpt>
<trkpt lat="46.42974123" lon="7.20452536"><ele>1791.511963</ele><time>2010-10-07T14:37:37Z</time></trkpt>
<trkpt lat="46.42969119" lon="7.20446535"><ele>1793.229004</ele><time>2010-10-07T14:37:46Z</time></trkpt>
<trkpt lat="46.42967225" lon="7.20444037"><ele>1793.609985</ele><time>2010-10-07T14:37:51Z</time></trkpt>
<trkpt lat="46.42955524" lon="7.20438337"><ele>1794.654053</ele><time>2010-10-07T14:38:39Z</time></trkpt>
<trkpt lat="46.42951526" lon="7.20437239"><ele>1794.954956</ele><time>2010-10-07T14:38:41Z</time></trkpt>
<trkpt lat="46.42941425" lon="7.20425438"><ele>1796.609009</ele><time>2010-10-07T14:38:47Z</time></trkpt>
<trkpt lat="46.42937226" lon="7.20418741"><ele>1797.723022</ele><time>2010-10-07T14:38:51Z</time></trkpt>
<trkpt lat="46.42937125" lon="7.20418741"><ele>1797.848022</ele><time>2010-10-07T14:38:52Z</time></trkpt>
<trkpt lat="46.42935323" lon="7.20417434"><ele>1798.064941</ele><time>2010-10-07T14:38:56Z</time></trkpt>
<trkpt lat="46.42931820" lon="7.20414140"><ele>1798.51001</ele><time>2010-10-07T14:39:01Z</time></trkpt>
<trkpt lat="46.42925826" lon="7.20412639"><ele>1799.628052</ele><time>2010-10-07T14:39:10Z</time></trkpt>
<trkpt lat="46.42922021" lon="7.20413335"><ele>1799.777954</ele><time>2010-10-07T14:39:19Z</time></trkpt>
<trkpt lat="46.42920319" lon="7.20412941"><ele>1799.857056</ele><time>2010-10-07T14:39:20Z</time></trkpt>
<trkpt lat="46.42918626" lon="7.20412740"><ele>1799.916992</ele><time>2010-10-07T14:39:21Z</time></trkpt>
<trkpt lat="46.42915726" lon="7.20412438"><ele>1800.177979</ele><time>2010-10-07T14:39:23Z</time></trkpt>
<trkpt lat="46.42905626" lon="7.20408934"><ele>1801.204956</ele><time>2010-10-07T14:39:30Z</time></trkpt>
<trkpt lat="46.42893220" lon="7.20405238"><ele>1801.948975</ele><time>2010-10-07T14:39:38Z</time></trkpt>
<trkpt lat="46.42881821" lon="7.20393839"><ele>1803.458984</ele><time>2010-10-07T14:39:46Z</time></trkpt>
<trkpt lat="46.42876322" lon="7.20386941"><ele>1803.988037</ele><time>2010-10-07T14:39:52Z</time></trkpt>
<trkpt lat="46.42870824" lon="7.20380135"><ele>1804.656982</ele><time>2010-10-07T14:40:00Z</time></trkpt>
<trkpt lat="46.42865225" lon="7.20372642"><ele>1805.625977</ele><time>2010-10-07T14:40:09Z</time></trkpt>
<trkpt lat="46.42863121" lon="7.20369541"><ele>1806.58606</ele><time>2010-10-07T14:40:14Z</time></trkpt>
<trkpt lat="46.42861721" lon="7.20367537"><ele>1806.708008</ele><time>2010-10-07T14:40:23Z</time></trkpt>
<trkpt lat="46.42856424" lon="7.20359039"><ele>1807.935059</ele><time>2010-10-07T14:40:33Z</time></trkpt>
<trkpt lat="46.42851520" lon="7.20354739"><ele>1808.868042</ele><time>2010-10-07T14:40:40Z</time></trkpt>
<trkpt lat="46.42846625" lon="7.20348737"><ele>1809.963989</ele><time>2010-10-07T14:40:48Z</time></trkpt>
<trkpt lat="46.42842920" lon="7.20342937"><ele>1811.468994</ele><time>2010-10-07T14:40:55Z</time></trkpt>
<trkpt lat="46.42839626" lon="7.20339643"><ele>1812.310059</ele><time>2010-10-07T14:41:02Z</time></trkpt>
<trkpt lat="46.42836424" lon="7.20332838"><ele>1813.616943</ele><time>2010-10-07T14:41:10Z</time></trkpt>
<trkpt lat="46.42832820" lon="7.20324238"><ele>1814.296021</ele><time>2010-10-07T14:41:18Z</time></trkpt>
<trkpt lat="46.42826425" lon="7.20317843"><ele>1815.274048</ele><time>2010-10-07T14:41:27Z</time></trkpt>
<trkpt lat="46.42819618" lon="7.20314138"><ele>1816.485962</ele><time>2010-10-07T14:41:36Z</time></trkpt>
<trkpt lat="46.42817925" lon="7.20312344"><ele>1817.073975</ele><time>2010-10-07T14:41:39Z</time></trkpt>
<trkpt lat="46.42812720" lon="7.20305840"><ele>1818.666016</ele><time>2010-10-07T14:41:48Z</time></trkpt>
<trkpt lat="46.42808026" lon="7.20301339"><ele>1820.109985</ele><time>2010-10-07T14:41:56Z</time></trkpt>
<trkpt lat="46.42802720" lon="7.20296738"><ele>1821.452026</ele><time>2010-10-07T14:42:07Z</time></trkpt>
<trkpt lat="46.42797423" lon="7.20292740"><ele>1822.727051</ele><time>2010-10-07T14:42:15Z</time></trkpt>
<trkpt lat="46.42791924" lon="7.20288943"><ele>1823.629028</ele><time>2010-10-07T14:42:23Z</time></trkpt>
<trkpt lat="46.42787122" lon="7.20285540"><ele>1824.81897</ele><time>2010-10-07T14:42:31Z</time></trkpt>
<trkpt lat="46.42781623" lon="7.20282841"><ele>1825.749023</ele><time>2010-10-07T14:42:40Z</time></trkpt>
<trkpt lat="46.42776418" lon="7.20277745"><ele>1826.724976</ele><time>2010-10-07T14:42:49Z</time></trkpt>
<trkpt lat="46.42775018" lon="7.20276345"><ele>1827.072998</ele><time>2010-10-07T14:42:52Z</time></trkpt>
<trkpt lat="46.42770223" lon="7.20267544"><ele>1828.463013</ele><time>2010-10-07T14:43:03Z</time></trkpt>
<trkpt lat="46.42766125" lon="7.20262541"><ele>1829.105957</ele><time>2010-10-07T14:43:11Z</time></trkpt>
<trkpt lat="46.42761624" lon="7.20256145"><ele>1830.234009</ele><time>2010-10-07T14:43:18Z</time></trkpt>
<trkpt lat="46.42757919" lon="7.20249541"><ele>1831.348999</ele><time>2010-10-07T14:43:26Z</time></trkpt>
<trkpt lat="46.42754817" lon="7.20244445"><ele>1832.730957</ele><time>2010-10-07T14:43:33Z</time></trkpt>
<trkpt lat="46.42751020" lon="7.20236046"><ele>1834.093994</ele><time>2010-10-07T14:43:43Z</time></trkpt>
<trkpt lat="46.42747819" lon="7.20226944"><ele>1835.432007</ele><time>2010-10-07T14:43:53Z</time></trkpt>
<trkpt lat="46.42746025" lon="7.20220540"><ele>1836.811035</ele><time>2010-10-07T14:44:02Z</time></trkpt>
<trkpt lat="46.42746620" lon="7.20214045"><ele>1838.248047</ele><time>2010-10-07T14:44:10Z</time></trkpt>
<trkpt lat="46.42744818" lon="7.20206040"><ele>1839.56604</ele><time>2010-10-07T14:44:19Z</time></trkpt>
<trkpt lat="46.42740325" lon="7.20199142"><ele>1840.901978</ele><time>2010-10-07T14:44:27Z</time></trkpt>
<trkpt lat="46.42735019" lon="7.20193342"><ele>1841.477051</ele><time>2010-10-07T14:44:35Z</time></trkpt>
<trkpt lat="46.42728825" lon="7.20190643"><ele>1842.949951</ele><time>2010-10-07T14:44:43Z</time></trkpt>
<trkpt lat="46.42725321" lon="7.20184843"><ele>1843.878052</ele><time>2010-10-07T14:44:50Z</time></trkpt>
<trkpt lat="46.42725120" lon="7.20182949"><ele>1844.35498</ele><time>2010-10-07T14:44:52Z</time></trkpt>
<trkpt lat="46.42722924" lon="7.20175841"><ele>1845.215942</ele><time>2010-10-07T14:44:59Z</time></trkpt>
<trkpt lat="46.42721323" lon="7.20172447"><ele>1845.713013</ele><time>2010-10-07T14:45:03Z</time></trkpt>
<trkpt lat="46.42716822" lon="7.20164442"><ele>1846.865967</ele><time>2010-10-07T14:45:13Z</time></trkpt>
<trkpt lat="46.42713025" lon="7.20156647"><ele>1847.817993</ele><time>2010-10-07T14:45:22Z</time></trkpt>
<trkpt lat="46.42711223" lon="7.20148442"><ele>1848.890991</ele><time>2010-10-07T14:45:31Z</time></trkpt>
<trkpt lat="46.42710226" lon="7.20139247"><ele>1851.087036</ele><time>2010-10-07T14:45:42Z</time></trkpt>
<trkpt lat="46.42711625" lon="7.20134344"><ele>1851.967041</ele><time>2010-10-07T14:45:48Z</time></trkpt>
<trkpt lat="46.42715925" lon="7.20123046"><ele>1853.69104</ele><time>2010-10-07T14:45:59Z</time></trkpt>
<trkpt lat="46.42719320" lon="7.20112845"><ele>1854.600952</ele><time>2010-10-07T14:46:08Z</time></trkpt>
<trkpt lat="46.42722422" lon="7.20100248"><ele>1855.281982</ele><time>2010-10-07T14:46:18Z</time></trkpt>
<trkpt lat="46.42724123" lon="7.20092352"><ele>1856.411987</ele><time>2010-10-07T14:46:26Z</time></trkpt>
<trkpt lat="46.42727820" lon="7.20083250"><ele>1858.004028</ele><time>2010-10-07T14:46:36Z</time></trkpt>
<trkpt lat="46.42730720" lon="7.20073653"><ele>1859.026978</ele><time>2010-10-07T14:46:45Z</time></trkpt>
<trkpt lat="46.42733226" lon="7.20062154"><ele>1859.769043</ele><time>2010-10-07T14:46:54Z</time></trkpt>
<trkpt lat="46.42737325" lon="7.20054351"><ele>1860.436035</ele><time>2010-10-07T14:47:03Z</time></trkpt>
<trkpt lat="46.42739521" lon="7.20048048"><ele>1860.435059</ele><time>2010-10-07T14:47:11Z</time></trkpt>
<trkpt lat="46.42739622" lon="7.20047947"><ele>1860.383057</ele><time>2010-10-07T14:47:12Z</time></trkpt>
<trkpt lat="46.42740820" lon="7.20044946"><ele>1860.458984</ele><time>2010-10-07T14:47:23Z</time></trkpt>
<trkpt lat="46.42736722" lon="7.20038149"><ele>1861.009033</ele><time>2010-10-07T14:50:03Z</time></trkpt>
<trkpt lat="46.42732623" lon="7.20028653"><ele>1859.589966</ele><time>2010-10-07T14:50:06Z</time></trkpt>
<trkpt lat="46.42719119" lon="7.20009953"><ele>1855.793945</ele><time>2010-10-07T14:50:12Z</time></trkpt>
<trkpt lat="46.42711123" lon="7.19997154"><ele>1853.552002</ele><time>2010-10-07T14:50:16Z</time></trkpt>
<trkpt lat="46.42705222" lon="7.19988756"><ele>1852.139038</ele><time>2010-10-07T14:50:21Z</time></trkpt>
<trkpt lat="46.42705122" lon="7.19988454"><ele>1851.883057</ele><time>2010-10-07T14:50:22Z</time></trkpt>
<trkpt lat="46.42702624" lon="7.19981850"><ele>1850.297974</ele><time>2010-10-07T14:50:34Z</time></trkpt>
<trkpt lat="46.42694418" lon="7.19970752"><ele>1848.232056</ele><time>2010-10-07T14:50:39Z</time></trkpt>
<trkpt lat="46.42685022" lon="7.19953151"><ele>1844.472046</ele><time>2010-10-07T14:50:45Z</time></trkpt>
<trkpt lat="46.42680026" lon="7.19941953"><ele>1842.400024</ele><time>2010-10-07T14:50:50Z</time></trkpt>
<trkpt lat="46.42676422" lon="7.19925550"><ele>1839.906006</ele><time>2010-10-07T14:50:57Z</time></trkpt>
<trkpt lat="46.42672918" lon="7.19907656"><ele>1836.563965</ele><time>2010-10-07T14:51:02Z</time></trkpt>
<trkpt lat="46.42668023" lon="7.19875655"><ele>1830.285034</ele><time>2010-10-07T14:51:09Z</time></trkpt>
<trkpt lat="46.42662324" lon="7.19853460"><ele>1826.727051</ele><time>2010-10-07T14:51:14Z</time></trkpt>
<trkpt lat="46.42661620" lon="7.19848758"><ele>1826.515015</ele><time>2010-10-07T14:51:15Z</time></trkpt>
<trkpt lat="46.42653724" lon="7.19818962"><ele>1823.853027</ele><time>2010-10-07T14:51:22Z</time></trkpt>
<trkpt lat="46.42645920" lon="7.19795359"><ele>1821.302002</ele><time>2010-10-07T14:51:28Z</time></trkpt>
<trkpt lat="46.42638125" lon="7.19765956"><ele>1818.712036</ele><time>2010-10-07T14:51:34Z</time></trkpt>
<trkpt lat="46.42634219" lon="7.19745665"><ele>1816.895996</ele><time>2010-10-07T14:51:39Z</time></trkpt>
<trkpt lat="46.42633725" lon="7.19721065"><ele>1814.337036</ele><time>2010-10-07T14:51:45Z</time></trkpt>
<trkpt lat="46.42640120" lon="7.19694361"><ele>1812.079956</ele><time>2010-10-07T14:51:51Z</time></trkpt>
<trkpt lat="46.42644219" lon="7.19674765"><ele>1809.897949</ele><time>2010-10-07T14:51:56Z</time></trkpt>
<trkpt lat="46.42639525" lon="7.19656569"><ele>1807.01001</ele><time>2010-10-07T14:52:02Z</time></trkpt>
<trkpt lat="46.42631219" lon="7.19639663"><ele>1803.823975</ele><time>2010-10-07T14:52:08Z</time></trkpt>
<trkpt lat="46.42627321" lon="7.19635765"><ele>1803.011963</ele><time>2010-10-07T14:52:10Z</time></trkpt>
<trkpt lat="46.42610725" lon="7.19624970"><ele>1799.890015</ele><time>2010-10-07T14:52:17Z</time></trkpt>
<trkpt lat="46.42603525" lon="7.19616965"><ele>1797.521973</ele><time>2010-10-07T14:52:21Z</time></trkpt>
<trkpt lat="46.42597624" lon="7.19604963"><ele>1793.796021</ele><time>2010-10-07T14:52:27Z</time></trkpt>
<trkpt lat="46.42597322" lon="7.19603764"><ele>1793.145996</ele><time>2010-10-07T14:52:29Z</time></trkpt>
<trkpt lat="46.42598521" lon="7.19604569"><ele>1793.104004</ele><time>2010-10-07T14:52:33Z</time></trkpt>
<trkpt lat="46.42604623" lon="7.19602365"><ele>1793.051025</ele><time>2010-10-07T14:52:49Z</time></trkpt>
<trkpt lat="46.42617221" lon="7.19596766"><ele>1791.680054</ele><time>2010-10-07T14:52:54Z</time></trkpt>
<trkpt lat="46.42620423" lon="7.19596364"><ele>1791.307007</ele><time>2010-10-07T14:52:55Z</time></trkpt>
<trkpt lat="46.42638520" lon="7.19599364"><ele>1789.079956</ele><time>2010-10-07T14:53:00Z</time></trkpt>
<trkpt lat="46.42650121" lon="7.19589566"><ele>1788.840942</ele><time>2010-10-07T14:53:06Z</time></trkpt>
<trkpt lat="46.42658126" lon="7.19574765"><ele>1790.546997</ele><time>2010-10-07T14:53:12Z</time></trkpt>
<trkpt lat="46.42668528" lon="7.19568873"><ele>1790.954956</ele><time>2010-10-07T14:53:18Z</time></trkpt>
<trkpt lat="46.42670724" lon="7.19566568"><ele>1791.063965</ele><time>2010-10-07T14:53:22Z</time></trkpt>
<trkpt lat="46.42672023" lon="7.19561270"><ele>1791.029053</ele><time>2010-10-07T14:53:28Z</time></trkpt>
<trkpt lat="46.42671922" lon="7.19558865"><ele>1791.027954</ele><time>2010-10-07T14:53:30Z</time></trkpt>
<trkpt lat="46.42672124" lon="7.19548371"><ele>1792.553955</ele><time>2010-10-07T14:53:38Z</time></trkpt>
<trkpt lat="46.42674923" lon="7.19540669"><ele>1793.82605</ele><time>2010-10-07T14:53:46Z</time></trkpt>
<trkpt lat="46.42678620" lon="7.19533569"><ele>1794.848022</ele><time>2010-10-07T14:53:53Z</time></trkpt>
<trkpt lat="46.42678720" lon="7.19520469"><ele>1795.276978</ele><time>2010-10-07T14:54:01Z</time></trkpt>
<trkpt lat="46.42678821" lon="7.19509070"><ele>1795.368042</ele><time>2010-10-07T14:54:08Z</time></trkpt>
<trkpt lat="46.42682124" lon="7.19498970"><ele>1795.281982</ele><time>2010-10-07T14:54:15Z</time></trkpt>
<trkpt lat="46.42684722" lon="7.19486272"><ele>1795.482056</ele><time>2010-10-07T14:54:24Z</time></trkpt>
<trkpt lat="46.42685820" lon="7.19473474"><ele>1795.634033</ele><time>2010-10-07T14:54:32Z</time></trkpt>
<trkpt lat="46.42688226" lon="7.19463374"><ele>1796.281006</ele><time>2010-10-07T14:54:40Z</time></trkpt>
<trkpt lat="46.42688427" lon="7.19463474"><ele>1796.456055</ele><time>2010-10-07T14:54:41Z</time></trkpt>
<trkpt lat="46.42692425" lon="7.19456970"><ele>1796.473999</ele><time>2010-10-07T14:54:48Z</time></trkpt>
<trkpt lat="46.42700723" lon="7.19446871"><ele>1797.796021</ele><time>2010-10-07T14:54:54Z</time></trkpt>
<trkpt lat="46.42707329" lon="7.19430074"><ele>1797.479004</ele><time>2010-10-07T14:55:00Z</time></trkpt>
<trkpt lat="46.42716926" lon="7.19403278"><ele>1795.952026</ele><time>2010-10-07T14:55:08Z</time></trkpt>
<trkpt lat="46.42729122" lon="7.19385275"><ele>1793.608032</ele><time>2010-10-07T14:55:14Z</time></trkpt>
<trkpt lat="46.42744922" lon="7.19380875"><ele>1792.141968</ele><time>2010-10-07T14:55:18Z</time></trkpt>
<trkpt lat="46.42760923" lon="7.19370674"><ele>1791.900024</ele><time>2010-10-07T14:55:24Z</time></trkpt>
<trkpt lat="46.42774326" lon="7.19364078"><ele>1790.454956</ele><time>2010-10-07T14:55:28Z</time></trkpt>
<trkpt lat="46.42782926" lon="7.19354674"><ele>1789.762939</ele><time>2010-10-07T14:55:33Z</time></trkpt>
<trkpt lat="46.42792130" lon="7.19335179"><ele>1788.670044</ele><time>2010-10-07T14:55:38Z</time></trkpt>
<trkpt lat="46.42799422" lon="7.19323478"><ele>1787.312012</ele><time>2010-10-07T14:55:42Z</time></trkpt>
<trkpt lat="46.42808324" lon="7.19311878"><ele>1786.277954</ele><time>2010-10-07T14:55:46Z</time></trkpt>
<trkpt lat="46.42819531" lon="7.19295283"><ele>1786.155029</ele><time>2010-10-07T14:55:52Z</time></trkpt>
<trkpt lat="46.42827427" lon="7.19285585"><ele>1785.998047</ele><time>2010-10-07T14:55:57Z</time></trkpt>
<trkpt lat="46.42827326" lon="7.19285585"><ele>1786.119019</ele><time>2010-10-07T14:55:58Z</time></trkpt>
<trkpt lat="46.42831525" lon="7.19280682"><ele>1786.240967</ele><time>2010-10-07T14:56:04Z</time></trkpt>
<trkpt lat="46.42836529" lon="7.19276181"><ele>1786.822998</ele><time>2010-10-07T14:56:10Z</time></trkpt>
<trkpt lat="46.42837829" lon="7.19273985"><ele>1786.93396</ele><time>2010-10-07T14:56:14Z</time></trkpt>
<trkpt lat="46.42838826" lon="7.19271881"><ele>1787.011963</ele><time>2010-10-07T14:56:26Z</time></trkpt>
<trkpt lat="46.42842824" lon="7.19264380"><ele>1786.895996</ele><time>2010-10-07T14:56:30Z</time></trkpt>
<trkpt lat="46.42852229" lon="7.19252780"><ele>1786.166016</ele><time>2010-10-07T14:56:35Z</time></trkpt>
<trkpt lat="46.42859329" lon="7.19242881"><ele>1785.921021</ele><time>2010-10-07T14:56:40Z</time></trkpt>
<trkpt lat="46.42862430" lon="7.19237785"><ele>1785.984985</ele><time>2010-10-07T14:56:42Z</time></trkpt>
<trkpt lat="46.42859924" lon="7.19216882"><ele>1786.266968</ele><time>2010-10-07T14:56:47Z</time></trkpt>
<trkpt lat="46.42855230" lon="7.19196389"><ele>1787.774048</ele><time>2010-10-07T14:56:53Z</time></trkpt>
<trkpt lat="46.42856529" lon="7.19179885"><ele>1789.119019</ele><time>2010-10-07T14:56:59Z</time></trkpt>
<trkpt lat="46.42864928" lon="7.19170783"><ele>1789.196045</ele><time>2010-10-07T14:57:04Z</time></trkpt>
<trkpt lat="46.42877426" lon="7.19162988"><ele>1789.803955</ele><time>2010-10-07T14:57:11Z</time></trkpt>
<trkpt lat="46.42895531" lon="7.19158387"><ele>1791.005005</ele><time>2010-10-07T14:57:22Z</time></trkpt>
<trkpt lat="46.42907727" lon="7.19153383"><ele>1790.969971</ele><time>2010-10-07T14:57:29Z</time></trkpt>
<trkpt lat="46.42914525" lon="7.19136788"><ele>1791.803955</ele><time>2010-10-07T14:57:37Z</time></trkpt>
<trkpt lat="46.42916729" lon="7.19118290"><ele>1793.083984</ele><time>2010-10-07T14:57:45Z</time></trkpt>
<trkpt lat="46.42912731" lon="7.19099591"><ele>1794.722046</ele><time>2010-10-07T14:57:52Z</time></trkpt>
<trkpt lat="46.42908725" lon="7.19082987"><ele>1795.529053</ele><time>2010-10-07T14:58:00Z</time></trkpt>
<trkpt lat="46.42914433" lon="7.19077891"><ele>1795.416016</ele><time>2010-10-07T14:58:04Z</time></trkpt>
<trkpt lat="46.42930325" lon="7.19074094"><ele>1795.956055</ele><time>2010-10-07T14:58:12Z</time></trkpt>
<trkpt lat="46.42944331" lon="7.19064388"><ele>1797.14502</ele><time>2010-10-07T14:58:21Z</time></trkpt>
<trkpt lat="46.42951632" lon="7.19053191"><ele>1797.812988</ele><time>2010-10-07T14:58:28Z</time></trkpt>
<trkpt lat="46.42955530" lon="7.19034592"><ele>1798.947998</ele><time>2010-10-07T14:58:36Z</time></trkpt>
<trkpt lat="46.42958028" lon="7.19011492"><ele>1801.102051</ele><time>2010-10-07T14:58:45Z</time></trkpt>
<trkpt lat="46.42963728" lon="7.18997294"><ele>1802.215942</ele><time>2010-10-07T14:58:52Z</time></trkpt>
<trkpt lat="46.42975228" lon="7.18983397"><ele>1804.776001</ele><time>2010-10-07T14:59:01Z</time></trkpt>
<trkpt lat="46.42976326" lon="7.18983397"><ele>1805.225952</ele><time>2010-10-07T14:59:04Z</time></trkpt>
<trkpt lat="46.42979327" lon="7.18980397"><ele>1805.258057</ele><time>2010-10-07T14:59:17Z</time></trkpt>
<trkpt lat="46.42980333" lon="7.18979198"><ele>1805.383057</ele><time>2010-10-07T14:59:18Z</time></trkpt>
<trkpt lat="46.42981129" lon="7.18971697"><ele>1805.67395</ele><time>2010-10-07T14:59:22Z</time></trkpt>
<trkpt lat="46.42973426" lon="7.18957498"><ele>1805.161987</ele><time>2010-10-07T14:59:29Z</time></trkpt>
<trkpt lat="46.42969226" lon="7.18949796"><ele>1804.82605</ele><time>2010-10-07T14:59:32Z</time></trkpt>
<trkpt lat="46.42970534" lon="7.18932597"><ele>1805.042969</ele><time>2010-10-07T14:59:38Z</time></trkpt>
<trkpt lat="46.42976427" lon="7.18916093"><ele>1804.375977</ele><time>2010-10-07T14:59:45Z</time></trkpt>
<trkpt lat="46.42985530" lon="7.18905197"><ele>1803.474976</ele><time>2010-10-07T14:59:50Z</time></trkpt>
<trkpt lat="46.42996435" lon="7.18895995"><ele>1802.567017</ele><time>2010-10-07T14:59:56Z</time></trkpt>
<trkpt lat="46.43006133" lon="7.18881101"><ele>1801.197998</ele><time>2010-10-07T15:00:02Z</time></trkpt>
<trkpt lat="46.43007331" lon="7.18867003"><ele>1800.25</ele><time>2010-10-07T15:00:07Z</time></trkpt>
<trkpt lat="46.43003032" lon="7.18845102"><ele>1798.665039</ele><time>2010-10-07T15:00:13Z</time></trkpt>
<trkpt lat="46.42999134" lon="7.18825304"><ele>1797.454956</ele><time>2010-10-07T15:00:18Z</time></trkpt>
<trkpt lat="46.42995429" lon="7.18791501"><ele>1795.147949</ele><time>2010-10-07T15:00:25Z</time></trkpt>
<trkpt lat="46.42994935" lon="7.18781201"><ele>1793.358032</ele><time>2010-10-07T15:00:28Z</time></trkpt>
<trkpt lat="46.42991834" lon="7.18762702"><ele>1791.651978</ele><time>2010-10-07T15:00:32Z</time></trkpt>
<trkpt lat="46.42990635" lon="7.18758201"><ele>1791.383057</ele><time>2010-10-07T15:00:33Z</time></trkpt>
<trkpt lat="46.42985229" lon="7.18738002"><ele>1788.401001</ele><time>2010-10-07T15:00:37Z</time></trkpt>
<trkpt lat="46.42991230" lon="7.18702808"><ele>1783.855957</ele><time>2010-10-07T15:00:43Z</time></trkpt>
<trkpt lat="46.42994734" lon="7.18689204"><ele>1782.045044</ele><time>2010-10-07T15:00:45Z</time></trkpt>
<trkpt lat="46.43000032" lon="7.18677110"><ele>1781.323975</ele><time>2010-10-07T15:00:47Z</time></trkpt>
<trkpt lat="46.43006930" lon="7.18666910"><ele>1780.55896</ele><time>2010-10-07T15:00:49Z</time></trkpt>
<trkpt lat="46.43027231" lon="7.18649510"><ele>1778.977051</ele><time>2010-10-07T15:00:53Z</time></trkpt>
<trkpt lat="46.43037231" lon="7.18630006"><ele>1779.357056</ele><time>2010-10-07T15:00:57Z</time></trkpt>
<trkpt lat="46.43040534" lon="7.18624507"><ele>1779.640991</ele><time>2010-10-07T15:00:59Z</time></trkpt>
<trkpt lat="46.43046736" lon="7.18614709"><ele>1779.338989</ele><time>2010-10-07T15:01:02Z</time></trkpt>
<trkpt lat="46.43042830" lon="7.18596714"><ele>1779.937012</ele><time>2010-10-07T15:01:06Z</time></trkpt>
<trkpt lat="46.43034231" lon="7.18578912"><ele>1781.279053</ele><time>2010-10-07T15:01:12Z</time></trkpt>
<trkpt lat="46.43032336" lon="7.18565711"><ele>1781.692993</ele><time>2010-10-07T15:01:17Z</time></trkpt>
<trkpt lat="46.43031331" lon="7.18542410"><ele>1780.855957</ele><time>2010-10-07T15:01:23Z</time></trkpt>
<trkpt lat="46.43031230" lon="7.18513812"><ele>1778.880981</ele><time>2010-10-07T15:01:27Z</time></trkpt>
<trkpt lat="46.43029135" lon="7.18494216"><ele>1779.415039</ele><time>2010-10-07T15:01:31Z</time></trkpt>
<trkpt lat="46.43024432" lon="7.18474812"><ele>1779.032959</ele><time>2010-10-07T15:01:36Z</time></trkpt>
<trkpt lat="46.43029931" lon="7.18444019"><ele>1775.899048</ele><time>2010-10-07T15:01:41Z</time></trkpt>
<trkpt lat="46.43033334" lon="7.18429016"><ele>1774.189941</ele><time>2010-10-07T15:01:43Z</time></trkpt>
<trkpt lat="46.43031733" lon="7.18406821"><ele>1771.995972</ele><time>2010-10-07T15:01:46Z</time></trkpt>
<trkpt lat="46.43028230" lon="7.18384820"><ele>1770.880005</ele><time>2010-10-07T15:01:49Z</time></trkpt>
<trkpt lat="46.43020032" lon="7.18358719"><ele>1770.39502</ele><time>2010-10-07T15:01:54Z</time></trkpt>
<trkpt lat="46.43009136" lon="7.18333818"><ele>1769.95105</ele><time>2010-10-07T15:02:00Z</time></trkpt>
<trkpt lat="46.43005331" lon="7.18314917"><ele>1768.355957</ele><time>2010-10-07T15:02:04Z</time></trkpt>
<trkpt lat="46.43005934" lon="7.18298422"><ele>1765.930054</ele><time>2010-10-07T15:02:08Z</time></trkpt>
<trkpt lat="46.43005230" lon="7.18274526"><ele>1765.875977</ele><time>2010-10-07T15:02:14Z</time></trkpt>
<trkpt lat="46.43002833" lon="7.18252022"><ele>1765.084961</ele><time>2010-10-07T15:02:18Z</time></trkpt>
<trkpt lat="46.42991936" lon="7.18238527"><ele>1765.472046</ele><time>2010-10-07T15:02:23Z</time></trkpt>
<trkpt lat="46.42989036" lon="7.18232425"><ele>1766.014038</ele><time>2010-10-07T15:02:25Z</time></trkpt>
<trkpt lat="46.42982532" lon="7.18206225"><ele>1766.665039</ele><time>2010-10-07T15:02:32Z</time></trkpt>
<trkpt lat="46.42978836" lon="7.18188229"><ele>1767.489014</ele><time>2010-10-07T15:02:37Z</time></trkpt>
<trkpt lat="46.42978132" lon="7.18172723"><ele>1767.980957</ele><time>2010-10-07T15:02:41Z</time></trkpt>
<trkpt lat="46.42980034" lon="7.18158927"><ele>1769.616943</ele><time>2010-10-07T15:02:45Z</time></trkpt>
<trkpt lat="46.42980831" lon="7.18148124"><ele>1770.031982</ele><time>2010-10-07T15:02:49Z</time></trkpt>
<trkpt lat="46.42981837" lon="7.18133531"><ele>1770.20105</ele><time>2010-10-07T15:02:54Z</time></trkpt>
<trkpt lat="46.42982432" lon="7.18123029"><ele>1770.064941</ele><time>2010-10-07T15:02:58Z</time></trkpt>
<trkpt lat="46.42982038" lon="7.18118126"><ele>1769.42395</ele><time>2010-10-07T15:03:02Z</time></trkpt>
<trkpt lat="46.42974636" lon="7.18127228"><ele>1767.625977</ele><time>2010-10-07T15:03:31Z</time></trkpt>
<trkpt lat="46.42974737" lon="7.18114430"><ele>1766.833008</ele><time>2010-10-07T15:03:35Z</time></trkpt>
<trkpt lat="46.42975232" lon="7.18109728"><ele>1766.578003</ele><time>2010-10-07T15:03:36Z</time></trkpt>
<trkpt lat="46.42980035" lon="7.18075028"><ele>1764.42395</ele><time>2010-10-07T15:03:42Z</time></trkpt>
<trkpt lat="46.42982432" lon="7.18048131"><ele>1762.572021</ele><time>2010-10-07T15:03:46Z</time></trkpt>
<trkpt lat="46.42984234" lon="7.18028032"><ele>1760.077026</ele><time>2010-10-07T15:03:49Z</time></trkpt>
<trkpt lat="46.42985534" lon="7.17989234"><ele>1756.735962</ele><time>2010-10-07T15:03:54Z</time></trkpt>
<trkpt lat="46.42983036" lon="7.17960033"><ele>1755.26001</ele><time>2010-10-07T15:03:58Z</time></trkpt>
<trkpt lat="46.42981636" lon="7.17945038"><ele>1754.432983</ele><time>2010-10-07T15:04:00Z</time></trkpt>
<trkpt lat="46.42984931" lon="7.17901839"><ele>1750.38501</ele><time>2010-10-07T15:04:05Z</time></trkpt>
<trkpt lat="46.42991838" lon="7.17847544"><ele>1745.067993</ele><time>2010-10-07T15:04:11Z</time></trkpt>
<trkpt lat="46.42992533" lon="7.17840042"><ele>1744.553955</ele><time>2010-10-07T15:04:12Z</time></trkpt>
<trkpt lat="46.42992634" lon="7.17827042"><ele>1743.790039</ele><time>2010-10-07T15:04:14Z</time></trkpt>
<trkpt lat="46.42988032" lon="7.17806239"><ele>1742.474976</ele><time>2010-10-07T15:04:18Z</time></trkpt>
<trkpt lat="46.42984537" lon="7.17794337"><ele>1741.427002</ele><time>2010-10-07T15:04:20Z</time></trkpt>
<trkpt lat="46.42978737" lon="7.17770341"><ele>1741.100952</ele><time>2010-10-07T15:04:25Z</time></trkpt>
<trkpt lat="46.42974739" lon="7.17756243"><ele>1740.454956</ele><time>2010-10-07T15:04:30Z</time></trkpt>
<trkpt lat="46.42972132" lon="7.17741844"><ele>1740.572021</ele><time>2010-10-07T15:04:35Z</time></trkpt>
<trkpt lat="46.42970037" lon="7.17720948"><ele>1740.490967</ele><time>2010-10-07T15:04:40Z</time></trkpt>
<trkpt lat="46.42965234" lon="7.17687548"><ele>1739.426025</ele><time>2010-10-07T15:04:47Z</time></trkpt>
<trkpt lat="46.42962736" lon="7.17656947"><ele>1738.720947</ele><time>2010-10-07T15:04:54Z</time></trkpt>
<trkpt lat="46.42962233" lon="7.17651851"><ele>1738.665039</ele><time>2010-10-07T15:04:55Z</time></trkpt>
<trkpt lat="46.42955536" lon="7.17610253"><ele>1736.161987</ele><time>2010-10-07T15:05:01Z</time></trkpt>
<trkpt lat="46.42951538" lon="7.17580247"><ele>1736.279053</ele><time>2010-10-07T15:05:06Z</time></trkpt>
<trkpt lat="46.42949334" lon="7.17549855"><ele>1735.110962</ele><time>2010-10-07T15:05:11Z</time></trkpt>
<trkpt lat="46.42952636" lon="7.17513856"><ele>1733.561035</ele><time>2010-10-07T15:05:17Z</time></trkpt>
<trkpt lat="46.42953240" lon="7.17507654"><ele>1733.444946</ele><time>2010-10-07T15:05:18Z</time></trkpt>
<trkpt lat="46.42955436" lon="7.17489952"><ele>1732.906982</ele><time>2010-10-07T15:05:21Z</time></trkpt>
<trkpt lat="46.42957037" lon="7.17462754"><ele>1731.73999</ele><time>2010-10-07T15:05:25Z</time></trkpt>
<trkpt lat="46.42954640" lon="7.17428959"><ele>1732.22998</ele><time>2010-10-07T15:05:31Z</time></trkpt>
<trkpt lat="46.42953333" lon="7.17394360"><ele>1733.276001</ele><time>2010-10-07T15:05:38Z</time></trkpt>
<trkpt lat="46.42952235" lon="7.17372359"><ele>1733.392944</ele><time>2010-10-07T15:05:43Z</time></trkpt>
<trkpt lat="46.42954439" lon="7.17354355"><ele>1733.06897</ele><time>2010-10-07T15:05:49Z</time></trkpt>
<trkpt lat="46.42955537" lon="7.17352058"><ele>1733.041992</ele><time>2010-10-07T15:05:52Z</time></trkpt>
<trkpt lat="46.42957138" lon="7.17349360"><ele>1732.795044</ele><time>2010-10-07T15:06:15Z</time></trkpt>
<trkpt lat="46.42963140" lon="7.17334558"><ele>1731.68396</ele><time>2010-10-07T15:06:20Z</time></trkpt>
<trkpt lat="46.42970139" lon="7.17308164"><ele>1728.08606</ele><time>2010-10-07T15:06:26Z</time></trkpt>
<trkpt lat="46.42973039" lon="7.17297461"><ele>1727.264038</ele><time>2010-10-07T15:06:29Z</time></trkpt>
<trkpt lat="46.42973836" lon="7.17281461"><ele>1725.57605</ele><time>2010-10-07T15:06:34Z</time></trkpt>
<trkpt lat="46.42978337" lon="7.17262166"><ele>1722.124023</ele><time>2010-10-07T15:06:40Z</time></trkpt>
<trkpt lat="46.42979234" lon="7.17258361"><ele>1721.925049</ele><time>2010-10-07T15:06:41Z</time></trkpt>
<trkpt lat="46.42983936" lon="7.17244163"><ele>1719.71106</ele><time>2010-10-07T15:06:45Z</time></trkpt>
<trkpt lat="46.42985436" lon="7.17241564"><ele>1719.473022</ele><time>2010-10-07T15:06:46Z</time></trkpt>
<trkpt lat="46.42989141" lon="7.17232261"><ele>1717.729004</ele><time>2010-10-07T15:06:50Z</time></trkpt>
<trkpt lat="46.42997138" lon="7.17214266"><ele>1713.31897</ele><time>2010-10-07T15:06:57Z</time></trkpt>
<trkpt lat="46.43000340" lon="7.17206069"><ele>1711.618042</ele><time>2010-10-07T15:07:00Z</time></trkpt>
<trkpt lat="46.43002938" lon="7.17186766"><ele>1707.771973</ele><time>2010-10-07T15:07:06Z</time></trkpt>
<trkpt lat="46.43004237" lon="7.17179868"><ele>1706.77002</ele><time>2010-10-07T15:07:08Z</time></trkpt>
<trkpt lat="46.43004338" lon="7.17163968"><ele>1704.824951</ele><time>2010-10-07T15:07:14Z</time></trkpt>
<trkpt lat="46.43003936" lon="7.17161068"><ele>1704.279053</ele><time>2010-10-07T15:07:15Z</time></trkpt>
<trkpt lat="46.43001740" lon="7.17145964"><ele>1701.400024</ele><time>2010-10-07T15:07:20Z</time></trkpt>
<trkpt lat="46.42999435" lon="7.17130064"><ele>1698.379028</ele><time>2010-10-07T15:07:25Z</time></trkpt>
<trkpt lat="46.43000642" lon="7.17112371"><ele>1695.532959</ele><time>2010-10-07T15:07:30Z</time></trkpt>
<trkpt lat="46.43001941" lon="7.17106772"><ele>1694.743042</ele><time>2010-10-07T15:07:32Z</time></trkpt>
<trkpt lat="46.43002737" lon="7.17105071"><ele>1694.03894</ele><time>2010-10-07T15:07:35Z</time></trkpt>
<trkpt lat="46.42996342" lon="7.17106269"><ele>1692.78894</ele><time>2010-10-07T15:07:44Z</time></trkpt>
<trkpt lat="46.42992537" lon="7.17106068"><ele>1691.187988</ele><time>2010-10-07T15:07:49Z</time></trkpt>
<trkpt lat="46.42990441" lon="7.17102665"><ele>1689.879028</ele><time>2010-10-07T15:07:53Z</time></trkpt>
<trkpt lat="46.42990441" lon="7.17093571"><ele>1687.682983</ele><time>2010-10-07T15:08:00Z</time></trkpt>
<trkpt lat="46.42990441" lon="7.17089070"><ele>1686.389038</ele><time>2010-10-07T15:08:04Z</time></trkpt>
<trkpt lat="46.42989536" lon="7.17081267"><ele>1684</ele><time>2010-10-07T15:08:11Z</time></trkpt>
<trkpt lat="46.42989243" lon="7.17079574"><ele>1683.631958</ele><time>2010-10-07T15:08:12Z</time></trkpt>
<trkpt lat="46.42986535" lon="7.17072567"><ele>1681.401978</ele><time>2010-10-07T15:08:18Z</time></trkpt>
<trkpt lat="46.42986938" lon="7.17071167"><ele>1681.021973</ele><time>2010-10-07T15:08:19Z</time></trkpt>
<trkpt lat="46.42985538" lon="7.17066968"><ele>1679.312012</ele><time>2010-10-07T15:08:23Z</time></trkpt>
<trkpt lat="46.42985337" lon="7.17066867"><ele>1679.078979</ele><time>2010-10-07T15:08:24Z</time></trkpt>
<trkpt lat="46.42984540" lon="7.17053272"><ele>1677.276001</ele><time>2010-10-07T15:08:46Z</time></trkpt>
<trkpt lat="46.42984138" lon="7.17042670"><ele>1675.10498</ele><time>2010-10-07T15:08:50Z</time></trkpt>
<trkpt lat="46.42984138" lon="7.17041572"><ele>1673.990967</ele><time>2010-10-07T15:08:52Z</time></trkpt>
<trkpt lat="46.42983736" lon="7.17034774"><ele>1672.636963</ele><time>2010-10-07T15:08:58Z</time></trkpt>
<trkpt lat="46.42983342" lon="7.17033173"><ele>1672.237061</ele><time>2010-10-07T15:08:59Z</time></trkpt>
<trkpt lat="46.42981640" lon="7.17031774"><ele>1671.629028</ele><time>2010-10-07T15:09:01Z</time></trkpt>
<trkpt lat="46.42976242" lon="7.17038973"><ele>1670.447998</ele><time>2010-10-07T15:09:07Z</time></trkpt>
<trkpt lat="46.42971741" lon="7.17045368"><ele>1668.952026</ele><time>2010-10-07T15:09:13Z</time></trkpt>
<trkpt lat="46.42968941" lon="7.17050473"><ele>1667.286011</ele><time>2010-10-07T15:09:18Z</time></trkpt>
<trkpt lat="46.42965438" lon="7.17050070"><ele>1665.520996</ele><time>2010-10-07T15:09:22Z</time></trkpt>
<trkpt lat="46.42964834" lon="7.17047573"><ele>1664.598022</ele><time>2010-10-07T15:09:26Z</time></trkpt>
<trkpt lat="46.42963535" lon="7.17040574"><ele>1663.894043</ele><time>2010-10-07T15:09:30Z</time></trkpt>
<trkpt lat="46.42962538" lon="7.17024674"><ele>1660.813965</ele><time>2010-10-07T15:09:35Z</time></trkpt>
<trkpt lat="46.42965639" lon="7.17007769"><ele>1657.678955</ele><time>2010-10-07T15:09:40Z</time></trkpt>
<trkpt lat="46.42966335" lon="7.17004575"><ele>1657.42395</ele><time>2010-10-07T15:09:41Z</time></trkpt>
<trkpt lat="46.42964642" lon="7.16996470"><ele>1656.124023</ele><time>2010-10-07T15:09:44Z</time></trkpt>
<trkpt lat="46.42962035" lon="7.16984476"><ele>1653.786987</ele><time>2010-10-07T15:09:49Z</time></trkpt>
<trkpt lat="46.42961934" lon="7.16984376"><ele>1653.561035</ele><time>2010-10-07T15:09:50Z</time></trkpt>
<trkpt lat="46.42961842" lon="7.16976975"><ele>1652.185059</ele><time>2010-10-07T15:09:58Z</time></trkpt>
<trkpt lat="46.42959437" lon="7.16973874"><ele>1650.810059</ele><time>2010-10-07T15:10:04Z</time></trkpt>
<trkpt lat="46.42954139" lon="7.16971476"><ele>1648.741943</ele><time>2010-10-07T15:10:12Z</time></trkpt>
<trkpt lat="46.42944835" lon="7.16970370"><ele>1645.801025</ele><time>2010-10-07T15:10:22Z</time></trkpt>
<trkpt lat="46.42943838" lon="7.16969071"><ele>1644.859009</ele><time>2010-10-07T15:10:26Z</time></trkpt>
<trkpt lat="46.42938440" lon="7.16966271"><ele>1643.687988</ele><time>2010-10-07T15:10:30Z</time></trkpt>
<trkpt lat="46.42935137" lon="7.16963673"><ele>1642.916016</ele><time>2010-10-07T15:10:32Z</time></trkpt>
<trkpt lat="46.42922539" lon="7.16952978"><ele>1641.765991</ele><time>2010-10-07T15:10:37Z</time></trkpt>
<trkpt lat="46.42916437" lon="7.16943071"><ele>1639.948975</ele><time>2010-10-07T15:10:42Z</time></trkpt>
<trkpt lat="46.42915540" lon="7.16940975"><ele>1639.378052</ele><time>2010-10-07T15:10:44Z</time></trkpt>
<trkpt lat="46.42914635" lon="7.16937371"><ele>1638.886963</ele><time>2010-10-07T15:10:46Z</time></trkpt>
<trkpt lat="46.42912539" lon="7.16924774"><ele>1636.77002</ele><time>2010-10-07T15:10:51Z</time></trkpt>
<trkpt lat="46.42915741" lon="7.16911179"><ele>1634.985962</ele><time>2010-10-07T15:10:55Z</time></trkpt>
<trkpt lat="46.42923042" lon="7.16899378"><ele>1632.829956</ele><time>2010-10-07T15:11:00Z</time></trkpt>
<trkpt lat="46.42928541" lon="7.16892077"><ele>1630.694946</ele><time>2010-10-07T15:11:04Z</time></trkpt>
<trkpt lat="46.42931642" lon="7.16885179"><ele>1629.390015</ele><time>2010-10-07T15:11:07Z</time></trkpt>
<trkpt lat="46.42934040" lon="7.16878374"><ele>1627.637939</ele><time>2010-10-07T15:11:11Z</time></trkpt>
<trkpt lat="46.42934735" lon="7.16876379"><ele>1627.282959</ele><time>2010-10-07T15:11:14Z</time></trkpt>
<trkpt lat="46.42942036" lon="7.16868978"><ele>1624.141968</ele><time>2010-10-07T15:11:23Z</time></trkpt>
<trkpt lat="46.42942137" lon="7.16862474"><ele>1621.635986</ele><time>2010-10-07T15:11:30Z</time></trkpt>
<trkpt lat="46.42941743" lon="7.16861476"><ele>1621.297974</ele><time>2010-10-07T15:11:31Z</time></trkpt>
<trkpt lat="46.42935641" lon="7.16842475"><ele>1618.011963</ele><time>2010-10-07T15:11:40Z</time></trkpt>
<trkpt lat="46.42930536" lon="7.16826483"><ele>1614.911011</ele><time>2010-10-07T15:11:46Z</time></trkpt>
<trkpt lat="46.42924535" lon="7.16807382"><ele>1611.671997</ele><time>2010-10-07T15:11:51Z</time></trkpt>
<trkpt lat="46.42919539" lon="7.16792177"><ele>1609.359985</ele><time>2010-10-07T15:11:56Z</time></trkpt>
<trkpt lat="46.42919137" lon="7.16788783"><ele>1608.605957</ele><time>2010-10-07T15:11:57Z</time></trkpt>
<trkpt lat="46.42916237" lon="7.16780284"><ele>1607.192993</ele><time>2010-10-07T15:12:00Z</time></trkpt>
<trkpt lat="46.42913538" lon="7.16765382"><ele>1604.76001</ele><time>2010-10-07T15:12:06Z</time></trkpt>
<trkpt lat="46.42907335" lon="7.16743782"><ele>1600.435059</ele><time>2010-10-07T15:12:12Z</time></trkpt>
<trkpt lat="46.42903639" lon="7.16727681"><ele>1597.512939</ele><time>2010-10-07T15:12:18Z</time></trkpt>
<trkpt lat="46.42897143" lon="7.16707984"><ele>1593.939941</ele><time>2010-10-07T15:12:24Z</time></trkpt>
<trkpt lat="46.42896439" lon="7.16702385"><ele>1593.109009</ele><time>2010-10-07T15:12:28Z</time></trkpt>
<trkpt lat="46.42894636" lon="7.16699687"><ele>1593.406006</ele><time>2010-10-07T15:12:32Z</time></trkpt>
<trkpt lat="46.42892139" lon="7.16698580"><ele>1592.697021</ele><time>2010-10-07T15:12:37Z</time></trkpt>
<trkpt lat="46.42889943" lon="7.16693886"><ele>1592.019043</ele><time>2010-10-07T15:12:43Z</time></trkpt>
<trkpt lat="46.42889641" lon="7.16693886"><ele>1591.964966</ele><time>2010-10-07T15:12:44Z</time></trkpt>
<trkpt lat="46.42886137" lon="7.16690182"><ele>1590.659058</ele><time>2010-10-07T15:12:53Z</time></trkpt>
<trkpt lat="46.42881041" lon="7.16685589"><ele>1589.280029</ele><time>2010-10-07T15:12:58Z</time></trkpt>
<trkpt lat="46.42873438" lon="7.16677886"><ele>1587.446045</ele><time>2010-10-07T15:13:04Z</time></trkpt>
<trkpt lat="46.42867739" lon="7.16674584"><ele>1585.592041</ele><time>2010-10-07T15:13:07Z</time></trkpt>
<trkpt lat="46.42856138" lon="7.16672781"><ele>1581.694946</ele><time>2010-10-07T15:13:14Z</time></trkpt>
<trkpt lat="46.42844135" lon="7.16672681"><ele>1578.401001</ele><time>2010-10-07T15:13:19Z</time></trkpt>
<trkpt lat="46.42839936" lon="7.16671382"><ele>1577.025024</ele><time>2010-10-07T15:13:21Z</time></trkpt>
<trkpt lat="46.42834135" lon="7.16653688"><ele>1573.489014</ele><time>2010-10-07T15:13:27Z</time></trkpt>
<trkpt lat="46.42833934" lon="7.16651081"><ele>1573.19104</ele><time>2010-10-07T15:13:28Z</time></trkpt>
<trkpt lat="46.42831042" lon="7.16645189"><ele>1571.723999</ele><time>2010-10-07T15:13:32Z</time></trkpt>
<trkpt lat="46.42830741" lon="7.16645189"><ele>1571.420044</ele><time>2010-10-07T15:13:33Z</time></trkpt>
<trkpt lat="46.42829341" lon="7.16650989"><ele>1571.203003</ele><time>2010-10-07T15:13:45Z</time></trkpt>
<trkpt lat="46.42821034" lon="7.16665087"><ele>1568.260986</ele><time>2010-10-07T15:13:53Z</time></trkpt>
<trkpt lat="46.42819735" lon="7.16667685"><ele>1567.522949</ele><time>2010-10-07T15:13:54Z</time></trkpt>
<trkpt lat="46.42814639" lon="7.16675681"><ele>1564.714966</ele><time>2010-10-07T15:13:59Z</time></trkpt>
<trkpt lat="46.42814538" lon="7.16675882"><ele>1564.543945</ele><time>2010-10-07T15:14:00Z</time></trkpt>
<trkpt lat="46.42811940" lon="7.16678581"><ele>1563.197998</ele><time>2010-10-07T15:14:09Z</time></trkpt>
<trkpt lat="46.42810934" lon="7.16678983"><ele>1562.819946</ele><time>2010-10-07T15:14:11Z</time></trkpt>
<trkpt lat="46.42807941" lon="7.16679386"><ele>1561.506958</ele><time>2010-10-07T15:14:16Z</time></trkpt>
<trkpt lat="46.42806341" lon="7.16672882"><ele>1560.912964</ele><time>2010-10-07T15:14:58Z</time></trkpt>
<trkpt lat="46.42805536" lon="7.16672680"><ele>1560.17395</ele><time>2010-10-07T15:19:49Z</time></trkpt>
<trkpt lat="46.42805142" lon="7.16672387"><ele>1560.152954</ele><time>2010-10-07T15:19:50Z</time></trkpt>
<trkpt lat="46.42805041" lon="7.16672186"><ele>1560.128052</ele><time>2010-10-07T15:19:51Z</time></trkpt>
<trkpt lat="46.42801940" lon="7.16666687"><ele>1559.909058</ele><time>2010-10-07T15:20:07Z</time></trkpt>
<trkpt lat="46.42801638" lon="7.16654886"><ele>1559.916992</ele><time>2010-10-07T15:20:13Z</time></trkpt>
<trkpt lat="46.42803340" lon="7.16644585"><ele>1559.214966</ele><time>2010-10-07T15:20:18Z</time></trkpt>
<trkpt lat="46.42804136" lon="7.16637587"><ele>1558.089966</ele><time>2010-10-07T15:20:22Z</time></trkpt>
<trkpt lat="46.42804036" lon="7.16636187"><ele>1557.845947</ele><time>2010-10-07T15:20:23Z</time></trkpt>
<trkpt lat="46.42801136" lon="7.16621888"><ele>1555.495972</ele><time>2010-10-07T15:20:28Z</time></trkpt>
<trkpt lat="46.42800540" lon="7.16619390"><ele>1555.052979</ele><time>2010-10-07T15:20:29Z</time></trkpt>
<trkpt lat="46.42800641" lon="7.16615585"><ele>1554.573975</ele><time>2010-10-07T15:20:31Z</time></trkpt>
<trkpt lat="46.42801739" lon="7.16600088"><ele>1552.819946</ele><time>2010-10-07T15:20:38Z</time></trkpt>
<trkpt lat="46.42800742" lon="7.16586786"><ele>1552.104004</ele><time>2010-10-07T15:20:43Z</time></trkpt>
<trkpt lat="46.42800440" lon="7.16585990"><ele>1552.250977</ele><time>2010-10-07T15:20:44Z</time></trkpt>
<trkpt lat="46.42798236" lon="7.16575588"><ele>1551.81897</ele><time>2010-10-07T15:20:51Z</time></trkpt>
<trkpt lat="46.42796442" lon="7.16573090"><ele>1551.784058</ele><time>2010-10-07T15:20:55Z</time></trkpt>
<trkpt lat="46.42792435" lon="7.16568891"><ele>1551.161987</ele><time>2010-10-07T15:21:00Z</time></trkpt>
<trkpt lat="46.42791237" lon="7.16568388"><ele>1550.260986</ele><time>2010-10-07T15:21:03Z</time></trkpt>
<trkpt lat="46.42788638" lon="7.16568087"><ele>1549.404053</ele><time>2010-10-07T15:21:07Z</time></trkpt>
<trkpt lat="46.42786040" lon="7.16567391"><ele>1548.157959</ele><time>2010-10-07T15:21:10Z</time></trkpt>
<trkpt lat="46.42784439" lon="7.16565689"><ele>1546.92395</ele><time>2010-10-07T15:21:13Z</time></trkpt>
<trkpt lat="46.42784238" lon="7.16565790"><ele>1546.755981</ele><time>2010-10-07T15:21:14Z</time></trkpt>
<trkpt lat="46.42779938" lon="7.16556185"><ele>1544.392944</ele><time>2010-10-07T15:21:19Z</time></trkpt>
<trkpt lat="46.42779141" lon="7.16551491"><ele>1542.848999</ele><time>2010-10-07T15:21:23Z</time></trkpt>
<trkpt lat="46.42778639" lon="7.16538893"><ele>1540.759033</ele><time>2010-10-07T15:21:27Z</time></trkpt>
<trkpt lat="46.42780240" lon="7.16534393"><ele>1540.457031</ele><time>2010-10-07T15:21:29Z</time></trkpt>
<trkpt lat="46.42782042" lon="7.16531291"><ele>1540.547974</ele><time>2010-10-07T15:21:32Z</time></trkpt>
<trkpt lat="46.42783240" lon="7.16528291"><ele>1540.680054</ele><time>2010-10-07T15:21:37Z</time></trkpt>
<trkpt lat="46.42783936" lon="7.16526288"><ele>1540.178955</ele><time>2010-10-07T15:21:39Z</time></trkpt>
<trkpt lat="46.42786736" lon="7.16521988"><ele>1539.16394</ele><time>2010-10-07T15:21:44Z</time></trkpt>
<trkpt lat="46.42793835" lon="7.16499190"><ele>1537.376953</ele><time>2010-10-07T15:21:52Z</time></trkpt>
<trkpt lat="46.42793936" lon="7.16497589"><ele>1537</ele><time>2010-10-07T15:21:54Z</time></trkpt>
<trkpt lat="46.42799435" lon="7.16491588"><ele>1537.899048</ele><time>2010-10-07T15:22:00Z</time></trkpt>
<trkpt lat="46.42799535" lon="7.16489090"><ele>1538.302979</ele><time>2010-10-07T15:22:03Z</time></trkpt>
<trkpt lat="46.42797037" lon="7.16474389"><ele>1536.795044</ele><time>2010-10-07T15:22:10Z</time></trkpt>
<trkpt lat="46.42799837" lon="7.16464591"><ele>1535.79895</ele><time>2010-10-07T15:22:15Z</time></trkpt>
<trkpt lat="46.42800038" lon="7.16464390"><ele>1535.718994</ele><time>2010-10-07T15:22:16Z</time></trkpt>
<trkpt lat="46.42802335" lon="7.16457492"><ele>1534.371948</ele><time>2010-10-07T15:22:24Z</time></trkpt>
<trkpt lat="46.42804741" lon="7.16453896"><ele>1533.947998</ele><time>2010-10-07T15:22:28Z</time></trkpt>
<trkpt lat="46.42812737" lon="7.16433093"><ele>1533.08606</ele><time>2010-10-07T15:22:36Z</time></trkpt>
<trkpt lat="46.42813240" lon="7.16430294"><ele>1532.797974</ele><time>2010-10-07T15:22:37Z</time></trkpt>
<trkpt lat="46.42812536" lon="7.16419197"><ele>1531.869019</ele><time>2010-10-07T15:22:41Z</time></trkpt>
<trkpt lat="46.42810038" lon="7.16406197"><ele>1530.737061</ele><time>2010-10-07T15:22:47Z</time></trkpt>
<trkpt lat="46.42808135" lon="7.16392593"><ele>1529.485962</ele><time>2010-10-07T15:22:50Z</time></trkpt>
<trkpt lat="46.42808437" lon="7.16392099"><ele>1529.666992</ele><time>2010-10-07T15:22:52Z</time></trkpt>
<trkpt lat="46.42807440" lon="7.16389199"><ele>1530.386963</ele><time>2010-10-07T15:22:56Z</time></trkpt>
<trkpt lat="46.42802335" lon="7.16383298"><ele>1530.282959</ele><time>2010-10-07T15:23:02Z</time></trkpt>
<trkpt lat="46.42799737" lon="7.16379694"><ele>1529.840942</ele><time>2010-10-07T15:23:07Z</time></trkpt>
<trkpt lat="46.42794540" lon="7.16370692"><ele>1529.105957</ele><time>2010-10-07T15:23:13Z</time></trkpt>
<trkpt lat="46.42792042" lon="7.16361196"><ele>1529.480957</ele><time>2010-10-07T15:23:18Z</time></trkpt>
<trkpt lat="46.42791439" lon="7.16356796"><ele>1529.112061</ele><time>2010-10-07T15:23:22Z</time></trkpt>
<trkpt lat="46.42792537" lon="7.16348800"><ele>1528.718994</ele><time>2010-10-07T15:23:28Z</time></trkpt>
<trkpt lat="46.42792738" lon="7.16341097"><ele>1528.177979</ele><time>2010-10-07T15:23:32Z</time></trkpt>
<trkpt lat="46.42797038" lon="7.16331995"><ele>1526.759033</ele><time>2010-10-07T15:23:37Z</time></trkpt>
<trkpt lat="46.42801338" lon="7.16319196"><ele>1524.353027</ele><time>2010-10-07T15:23:43Z</time></trkpt>
<trkpt lat="46.42801539" lon="7.16317201"><ele>1523.633057</ele><time>2010-10-07T15:23:45Z</time></trkpt>
<trkpt lat="46.42800341" lon="7.16311694"><ele>1522.503052</ele><time>2010-10-07T15:23:51Z</time></trkpt>
<trkpt lat="46.42799343" lon="7.16301603"><ele>1521.255981</ele><time>2010-10-07T15:23:58Z</time></trkpt>
<trkpt lat="46.42800240" lon="7.16293498"><ele>1519.645996</ele><time>2010-10-07T15:24:04Z</time></trkpt>
<trkpt lat="46.42800743" lon="7.16291503"><ele>1519.057983</ele><time>2010-10-07T15:24:06Z</time></trkpt>
<trkpt lat="46.42807541" lon="7.16288100"><ele>1516.756958</ele><time>2010-10-07T15:24:13Z</time></trkpt>
<trkpt lat="46.42809737" lon="7.16283901"><ele>1515.06604</ele><time>2010-10-07T15:24:19Z</time></trkpt>
<trkpt lat="46.42810340" lon="7.16282501"><ele>1514.484985</ele><time>2010-10-07T15:24:21Z</time></trkpt>
<trkpt lat="46.42812939" lon="7.16277397"><ele>1512.610962</ele><time>2010-10-07T15:24:27Z</time></trkpt>
<trkpt lat="46.42811137" lon="7.16270097"><ele>1512.319946</ele><time>2010-10-07T15:24:35Z</time></trkpt>
<trkpt lat="46.42810039" lon="7.16263098"><ele>1511.456055</ele><time>2010-10-07T15:24:40Z</time></trkpt>
<trkpt lat="46.42808740" lon="7.16260098"><ele>1511.688965</ele><time>2010-10-07T15:24:42Z</time></trkpt>
<trkpt lat="46.42808639" lon="7.16257298"><ele>1511.957031</ele><time>2010-10-07T15:24:44Z</time></trkpt>
<trkpt lat="46.42810139" lon="7.16254004"><ele>1512.613037</ele><time>2010-10-07T15:24:48Z</time></trkpt>
<trkpt lat="46.42808438" lon="7.16241901"><ele>1512.612061</ele><time>2010-10-07T15:25:00Z</time></trkpt>
<trkpt lat="46.42806041" lon="7.16234006"><ele>1512.448975</ele><time>2010-10-07T15:25:05Z</time></trkpt>
<trkpt lat="46.42803643" lon="7.16223906"><ele>1511.749023</ele><time>2010-10-07T15:25:11Z</time></trkpt>
<trkpt lat="46.42804038" lon="7.16206799"><ele>1513.237061</ele><time>2010-10-07T15:25:20Z</time></trkpt>
<trkpt lat="46.42801238" lon="7.16193506"><ele>1514.281982</ele><time>2010-10-07T15:25:28Z</time></trkpt>
<trkpt lat="46.42799939" lon="7.16183708"><ele>1511.944946</ele><time>2010-10-07T15:25:35Z</time></trkpt>
<trkpt lat="46.42801540" lon="7.16176701"><ele>1509.508057</ele><time>2010-10-07T15:25:42Z</time></trkpt>
<trkpt lat="46.42803644" lon="7.16174907"><ele>1508.470947</ele><time>2010-10-07T15:25:45Z</time></trkpt>
<trkpt lat="46.42808338" lon="7.16172502"><ele>1506.942017</ele><time>2010-10-07T15:25:50Z</time></trkpt>
<trkpt lat="46.42810542" lon="7.16166802"><ele>1505.281982</ele><time>2010-10-07T15:25:56Z</time></trkpt>
<trkpt lat="46.42810743" lon="7.16161103"><ele>1503.171997</ele><time>2010-10-07T15:26:01Z</time></trkpt>
<trkpt lat="46.42809939" lon="7.16155806"><ele>1499.802002</ele><time>2010-10-07T15:26:14Z</time></trkpt>
<trkpt lat="46.42809738" lon="7.16155202"><ele>1499.116943</ele><time>2010-10-07T15:26:16Z</time></trkpt>
<trkpt lat="46.42812638" lon="7.16146904"><ele>1496.704956</ele><time>2010-10-07T15:26:26Z</time></trkpt>
<trkpt lat="46.42813040" lon="7.16144809"><ele>1496.509033</ele><time>2010-10-07T15:26:28Z</time></trkpt>
<trkpt lat="46.42811741" lon="7.16135003"><ele>1495.436035</ele><time>2010-10-07T15:26:34Z</time></trkpt>
<trkpt lat="46.42811640" lon="7.16125205"><ele>1493.720947</ele><time>2010-10-07T15:26:40Z</time></trkpt>
<trkpt lat="46.42810039" lon="7.16120209"><ele>1492.626953</ele><time>2010-10-07T15:26:43Z</time></trkpt>
<trkpt lat="46.42810341" lon="7.16110310"><ele>1490.171021</ele><time>2010-10-07T15:26:48Z</time></trkpt>
<trkpt lat="46.42810744" lon="7.16106203"><ele>1489.647949</ele><time>2010-10-07T15:26:50Z</time></trkpt>
<trkpt lat="46.42811339" lon="7.16099909"><ele>1489.810059</ele><time>2010-10-07T15:26:54Z</time></trkpt>
<trkpt lat="46.42810542" lon="7.16093807"><ele>1488.963013</ele><time>2010-10-07T15:26:59Z</time></trkpt>
<trkpt lat="46.42806243" lon="7.16085409"><ele>1487.753052</ele><time>2010-10-07T15:27:06Z</time></trkpt>
<trkpt lat="46.42801842" lon="7.16079307"><ele>1486.406006</ele><time>2010-10-07T15:27:12Z</time></trkpt>
<trkpt lat="46.42798137" lon="7.16072007"><ele>1484.430054</ele><time>2010-10-07T15:27:20Z</time></trkpt>
<trkpt lat="46.42797341" lon="7.16068612"><ele>1483.139038</ele><time>2010-10-07T15:27:24Z</time></trkpt>
<trkpt lat="46.42797441" lon="7.16065410"><ele>1482.093018</ele><time>2010-10-07T15:27:27Z</time></trkpt>
<trkpt lat="46.42802244" lon="7.16058211"><ele>1483.25</ele><time>2010-10-07T15:27:35Z</time></trkpt>
<trkpt lat="46.42799839" lon="7.16051011"><ele>1483.682007</ele><time>2010-10-07T15:27:41Z</time></trkpt>
<trkpt lat="46.42796042" lon="7.16049712"><ele>1482.469971</ele><time>2010-10-07T15:27:48Z</time></trkpt>
<trkpt lat="46.42792739" lon="7.16048706"><ele>1481.084961</ele><time>2010-10-07T15:27:57Z</time></trkpt>
<trkpt lat="46.42791440" lon="7.16046510"><ele>1480.60498</ele><time>2010-10-07T15:27:59Z</time></trkpt>
<trkpt lat="46.42789638" lon="7.16036309"><ele>1479.339966</ele><time>2010-10-07T15:28:06Z</time></trkpt>
<trkpt lat="46.42789638" lon="7.16035010"><ele>1479.073975</ele><time>2010-10-07T15:28:08Z</time></trkpt>
<trkpt lat="46.42788641" lon="7.16028313"><ele>1478.625</ele><time>2010-10-07T15:28:15Z</time></trkpt>
<trkpt lat="46.42786537" lon="7.16020812"><ele>1477.477051</ele><time>2010-10-07T15:28:19Z</time></trkpt>
<trkpt lat="46.42785740" lon="7.16015506"><ele>1476.331055</ele><time>2010-10-07T15:28:23Z</time></trkpt>
<trkpt lat="46.42780837" lon="7.16008910"><ele>1473.76001</ele><time>2010-10-07T15:28:32Z</time></trkpt>
<trkpt lat="46.42777937" lon="7.16003713"><ele>1471.145996</ele><time>2010-10-07T15:28:39Z</time></trkpt>
<trkpt lat="46.42777643" lon="7.16003009"><ele>1470.900024</ele><time>2010-10-07T15:28:40Z</time></trkpt>
<trkpt lat="46.42772237" lon="7.15993412"><ele>1469.151978</ele><time>2010-10-07T15:28:47Z</time></trkpt>
<trkpt lat="46.42770242" lon="7.15987813"><ele>1468.245972</ele><time>2010-10-07T15:28:49Z</time></trkpt>
<trkpt lat="46.42767040" lon="7.15982315"><ele>1468.032959</ele><time>2010-10-07T15:28:54Z</time></trkpt>
<trkpt lat="46.42765540" lon="7.15980714"><ele>1467.781982</ele><time>2010-10-07T15:28:55Z</time></trkpt>
<trkpt lat="46.42763042" lon="7.15976314"><ele>1467.275024</ele><time>2010-10-07T15:28:59Z</time></trkpt>
<trkpt lat="46.42761944" lon="7.15975409"><ele>1467.379028</ele><time>2010-10-07T15:29:02Z</time></trkpt>
<trkpt lat="46.42760041" lon="7.15966809"><ele>1467.468994</ele><time>2010-10-07T15:29:09Z</time></trkpt>
<trkpt lat="46.42760142" lon="7.15963415"><ele>1467.145996</ele><time>2010-10-07T15:29:12Z</time></trkpt>
<trkpt lat="46.42760737" lon="7.15943416"><ele>1467.187988</ele><time>2010-10-07T15:29:21Z</time></trkpt>
<trkpt lat="46.42757443" lon="7.15929017"><ele>1465.540039</ele><time>2010-10-07T15:29:26Z</time></trkpt>
<trkpt lat="46.42754937" lon="7.15920417"><ele>1465.620972</ele><time>2010-10-07T15:29:32Z</time></trkpt>
<trkpt lat="46.42753244" lon="7.15915614"><ele>1465.719971</ele><time>2010-10-07T15:29:37Z</time></trkpt>
<trkpt lat="46.42749740" lon="7.15907912"><ele>1466.327026</ele><time>2010-10-07T15:29:44Z</time></trkpt>
<trkpt lat="46.42748340" lon="7.15904517"><ele>1466.912964</ele><time>2010-10-07T15:29:47Z</time></trkpt>
<trkpt lat="46.42744141" lon="7.15896915"><ele>1467.949951</ele><time>2010-10-07T15:29:55Z</time></trkpt>
<trkpt lat="46.42737343" lon="7.15869516"><ele>1467.047974</ele><time>2010-10-07T15:30:48Z</time></trkpt>
<trkpt lat="46.42730043" lon="7.15853415"><ele>1467.050049</ele><time>2010-10-07T15:30:54Z</time></trkpt>
<trkpt lat="46.42728341" lon="7.15848620"><ele>1467.159058</ele><time>2010-10-07T15:30:56Z</time></trkpt>
<trkpt lat="46.42728542" lon="7.15844916"><ele>1467.416016</ele><time>2010-10-07T15:30:59Z</time></trkpt>
<trkpt lat="46.42729942" lon="7.15840817"><ele>1467.984985</ele><time>2010-10-07T15:31:03Z</time></trkpt>
<trkpt lat="46.42730043" lon="7.15838319"><ele>1468.448975</ele><time>2010-10-07T15:31:05Z</time></trkpt>
<trkpt lat="46.42728241" lon="7.15830717"><ele>1468.47998</ele><time>2010-10-07T15:31:10Z</time></trkpt>
<trkpt lat="46.42723840" lon="7.15815119"><ele>1467.043945</ele><time>2010-10-07T15:31:15Z</time></trkpt>
<trkpt lat="46.42719239" lon="7.15795422"><ele>1464.644043</ele><time>2010-10-07T15:31:21Z</time></trkpt>
<trkpt lat="46.42716439" lon="7.15782423"><ele>1462.776001</ele><time>2010-10-07T15:31:26Z</time></trkpt>
<trkpt lat="46.42713539" lon="7.15774720"><ele>1460.590942</ele><time>2010-10-07T15:31:30Z</time></trkpt>
<trkpt lat="46.42714042" lon="7.15755618"><ele>1456.583008</ele><time>2010-10-07T15:31:37Z</time></trkpt>
<trkpt lat="46.42720043" lon="7.15736223"><ele>1454.687012</ele><time>2010-10-07T15:31:42Z</time></trkpt>
<trkpt lat="46.42725039" lon="7.15714624"><ele>1453.649048</ele><time>2010-10-07T15:31:47Z</time></trkpt>
<trkpt lat="46.42725442" lon="7.15710525"><ele>1453.541016</ele><time>2010-10-07T15:31:48Z</time></trkpt>
<trkpt lat="46.42725743" lon="7.15698724"><ele>1451.771973</ele><time>2010-10-07T15:31:52Z</time></trkpt>
<trkpt lat="46.42726137" lon="7.15692723"><ele>1451.026978</ele><time>2010-10-07T15:31:54Z</time></trkpt>
<trkpt lat="46.42726439" lon="7.15690125"><ele>1450.728027</ele><time>2010-10-07T15:31:55Z</time></trkpt>
<trkpt lat="46.42729842" lon="7.15680226"><ele>1448.729004</ele><time>2010-10-07T15:32:00Z</time></trkpt>
<trkpt lat="46.42735542" lon="7.15660622"><ele>1445.353027</ele><time>2010-10-07T15:32:05Z</time></trkpt>
<trkpt lat="46.42736540" lon="7.15652425"><ele>1444.536011</ele><time>2010-10-07T15:32:07Z</time></trkpt>
<trkpt lat="46.42737939" lon="7.15648225"><ele>1443.688965</ele><time>2010-10-07T15:32:09Z</time></trkpt>
<trkpt lat="46.42740446" lon="7.15633926"><ele>1442.108032</ele><time>2010-10-07T15:32:15Z</time></trkpt>
<trkpt lat="46.42741544" lon="7.15630725"><ele>1442.003052</ele><time>2010-10-07T15:32:18Z</time></trkpt>
<trkpt lat="46.42741343" lon="7.15629526"><ele>1441.959961</ele><time>2010-10-07T15:32:20Z</time></trkpt>
<trkpt lat="46.42738342" lon="7.15620725"><ele>1442.087036</ele><time>2010-10-07T15:32:25Z</time></trkpt>
<trkpt lat="46.42736238" lon="7.15615227"><ele>1442.232056</ele><time>2010-10-07T15:32:29Z</time></trkpt>
<trkpt lat="46.42734645" lon="7.15611422"><ele>1440.80896</ele><time>2010-10-07T15:32:34Z</time></trkpt>
<trkpt lat="46.42732542" lon="7.15588129"><ele>1437.270996</ele><time>2010-10-07T15:32:42Z</time></trkpt>
<trkpt lat="46.42732441" lon="7.15584324"><ele>1436.375977</ele><time>2010-10-07T15:32:43Z</time></trkpt>
<trkpt lat="46.42733640" lon="7.15563530"><ele>1433.06604</ele><time>2010-10-07T15:32:49Z</time></trkpt>
<trkpt lat="46.42733145" lon="7.15562029"><ele>1432.897949</ele><time>2010-10-07T15:32:52Z</time></trkpt>
<trkpt lat="46.42732139" lon="7.15560026"><ele>1432.432007</ele><time>2010-10-07T15:32:55Z</time></trkpt>
<trkpt lat="46.42731746" lon="7.15559029"><ele>1431.863037</ele><time>2010-10-07T15:32:56Z</time></trkpt>
<trkpt lat="46.42731544" lon="7.15555031"><ele>1430.522949</ele><time>2010-10-07T15:32:59Z</time></trkpt>
<trkpt lat="46.42734738" lon="7.15551829"><ele>1429.265015</ele><time>2010-10-07T15:33:04Z</time></trkpt>
<trkpt lat="46.42736339" lon="7.15547127"><ele>1427.880981</ele><time>2010-10-07T15:33:09Z</time></trkpt>
<trkpt lat="46.42737445" lon="7.15538930"><ele>1426.17395</ele><time>2010-10-07T15:33:13Z</time></trkpt>
<trkpt lat="46.42737546" lon="7.15535828"><ele>1424.953979</ele><time>2010-10-07T15:33:16Z</time></trkpt>
<trkpt lat="46.42734939" lon="7.15530028"><ele>1423.468994</ele><time>2010-10-07T15:33:22Z</time></trkpt>
<trkpt lat="46.42734244" lon="7.15501330"><ele>1420.258057</ele><time>2010-10-07T15:33:32Z</time></trkpt>
<trkpt lat="46.42732341" lon="7.15495731"><ele>1419.827026</ele><time>2010-10-07T15:33:36Z</time></trkpt>
<trkpt lat="46.42733246" lon="7.15485933"><ele>1419.727051</ele><time>2010-10-07T15:33:53Z</time></trkpt>
<trkpt lat="46.42732743" lon="7.15473729"><ele>1418.387939</ele><time>2010-10-07T15:34:01Z</time></trkpt>
<trkpt lat="46.42734143" lon="7.15471332"><ele>1418.213989</ele><time>2010-10-07T15:34:05Z</time></trkpt>
<trkpt lat="46.42730246" lon="7.15464535"><ele>1419.80896</ele><time>2010-10-07T15:38:38Z</time></trkpt>
<trkpt lat="46.42730438" lon="7.15463328"><ele>1419.340942</ele><time>2010-10-07T15:38:40Z</time></trkpt>
<trkpt lat="46.42736943" lon="7.15443128"><ele>1418.469971</ele><time>2010-10-07T15:38:48Z</time></trkpt>
<trkpt lat="46.42740044" lon="7.15428829"><ele>1417.172974</ele><time>2010-10-07T15:38:52Z</time></trkpt>
<trkpt lat="46.42745543" lon="7.15418637"><ele>1416.510986</ele><time>2010-10-07T15:38:56Z</time></trkpt>
<trkpt lat="46.42745945" lon="7.15418436"><ele>1416.562988</ele><time>2010-10-07T15:38:57Z</time></trkpt>
<trkpt lat="46.42750941" lon="7.15411731"><ele>1416.139038</ele><time>2010-10-07T15:39:03Z</time></trkpt>
<trkpt lat="46.42751846" lon="7.15406233"><ele>1415.944946</ele><time>2010-10-07T15:39:07Z</time></trkpt>
<trkpt lat="46.42751746" lon="7.15402436"><ele>1415.303955</ele><time>2010-10-07T15:39:13Z</time></trkpt>
<trkpt lat="46.42757446" lon="7.15379537"><ele>1413.849976</ele><time>2010-10-07T15:39:22Z</time></trkpt>
<trkpt lat="46.42758041" lon="7.15376436"><ele>1413.786987</ele><time>2010-10-07T15:39:23Z</time></trkpt>
<trkpt lat="46.42767244" lon="7.15362833"><ele>1411.697021</ele><time>2010-10-07T15:39:30Z</time></trkpt>
<trkpt lat="46.42772542" lon="7.15351837"><ele>1409.769043</ele><time>2010-10-07T15:39:36Z</time></trkpt>
<trkpt lat="46.42777043" lon="7.15347135"><ele>1408.459961</ele><time>2010-10-07T15:39:41Z</time></trkpt>
<trkpt lat="46.42777848" lon="7.15345835"><ele>1408.909058</ele><time>2010-10-07T15:39:48Z</time></trkpt>
<trkpt lat="46.42785240" lon="7.15340538"><ele>1405.964966</ele><time>2010-10-07T15:40:07Z</time></trkpt>
<trkpt lat="46.42788644" lon="7.15336138"><ele>1405.223022</ele><time>2010-10-07T15:40:09Z</time></trkpt>
<trkpt lat="46.42795844" lon="7.15325938"><ele>1403.5</ele><time>2010-10-07T15:40:14Z</time></trkpt>
<trkpt lat="46.42799540" lon="7.15322141"><ele>1403.666992</ele><time>2010-10-07T15:40:18Z</time></trkpt>
<trkpt lat="46.42804343" lon="7.15314941"><ele>1402.32605</ele><time>2010-10-07T15:40:23Z</time></trkpt>
<trkpt lat="46.42808543" lon="7.15310935"><ele>1400.781006</ele><time>2010-10-07T15:40:29Z</time></trkpt>
<trkpt lat="46.42809842" lon="7.15309937"><ele>1400.322998</ele><time>2010-10-07T15:40:30Z</time></trkpt>
<trkpt lat="46.42813144" lon="7.15307037"><ele>1398.890991</ele><time>2010-10-07T15:40:33Z</time></trkpt>
<trkpt lat="46.42819045" lon="7.15300936"><ele>1396.970947</ele><time>2010-10-07T15:40:38Z</time></trkpt>
<trkpt lat="46.42822247" lon="7.15294038"><ele>1395.625977</ele><time>2010-10-07T15:40:45Z</time></trkpt>
<trkpt lat="46.42818341" lon="7.15295337"><ele>1394.279053</ele><time>2010-10-07T15:40:51Z</time></trkpt>
<trkpt lat="46.42816246" lon="7.15299435"><ele>1393.203979</ele><time>2010-10-07T15:40:55Z</time></trkpt>
<trkpt lat="46.42812440" lon="7.15298941"><ele>1391.948975</ele><time>2010-10-07T15:40:59Z</time></trkpt>
<trkpt lat="46.42807143" lon="7.15298337"><ele>1391.011963</ele><time>2010-10-07T15:41:04Z</time></trkpt>
<trkpt lat="46.42804544" lon="7.15299636"><ele>1389.630005</ele><time>2010-10-07T15:41:09Z</time></trkpt>
<trkpt lat="46.42804947" lon="7.15300039"><ele>1389.686035</ele><time>2010-10-07T15:41:11Z</time></trkpt>
<trkpt lat="46.42802047" lon="7.15304338"><ele>1388.906982</ele><time>2010-10-07T15:41:20Z</time></trkpt>
<trkpt lat="46.42802441" lon="7.15304640"><ele>1388.744019</ele><time>2010-10-07T15:41:21Z</time></trkpt>
<trkpt lat="46.42798342" lon="7.15306635"><ele>1387.661011</ele><time>2010-10-07T15:41:27Z</time></trkpt>
<trkpt lat="46.42791846" lon="7.15303542"><ele>1386.333984</ele><time>2010-10-07T15:41:31Z</time></trkpt>
<trkpt lat="46.42790940" lon="7.15299142"><ele>1385.781006</ele><time>2010-10-07T15:41:37Z</time></trkpt>
<trkpt lat="46.42791745" lon="7.15297541"><ele>1385.02002</ele><time>2010-10-07T15:41:40Z</time></trkpt>
<trkpt lat="46.42795542" lon="7.15279143"><ele>1382.761963</ele><time>2010-10-07T15:41:55Z</time></trkpt>
<trkpt lat="46.42803547" lon="7.15258743"><ele>1378.922974</ele><time>2010-10-07T15:42:02Z</time></trkpt>
<trkpt lat="46.42805240" lon="7.15251141"><ele>1377.175049</ele><time>2010-10-07T15:42:05Z</time></trkpt>
<trkpt lat="46.42806640" lon="7.15243044"><ele>1375.765015</ele><time>2010-10-07T15:42:09Z</time></trkpt>
<trkpt lat="46.42809842" lon="7.15232039"><ele>1373.732056</ele><time>2010-10-07T15:42:14Z</time></trkpt>
<trkpt lat="46.42812348" lon="7.15221143"><ele>1371.380005</ele><time>2010-10-07T15:42:18Z</time></trkpt>
<trkpt lat="46.42812541" lon="7.15218939"><ele>1371.18103</ele><time>2010-10-07T15:42:19Z</time></trkpt>
<trkpt lat="46.42815944" lon="7.15203944"><ele>1368.784058</ele><time>2010-10-07T15:42:24Z</time></trkpt>
<trkpt lat="46.42819641" lon="7.15193241"><ele>1366.884033</ele><time>2010-10-07T15:42:28Z</time></trkpt>
<trkpt lat="46.42825743" lon="7.15182144"><ele>1364.707031</ele><time>2010-10-07T15:42:33Z</time></trkpt>
<trkpt lat="46.42826841" lon="7.15180040"><ele>1364.254028</ele><time>2010-10-07T15:42:34Z</time></trkpt>
<trkpt lat="46.42828241" lon="7.15167945"><ele>1361.583984</ele><time>2010-10-07T15:42:39Z</time></trkpt>
<trkpt lat="46.42832943" lon="7.15154644"><ele>1359.746948</ele><time>2010-10-07T15:42:43Z</time></trkpt>
<trkpt lat="46.42833547" lon="7.15152842"><ele>1359.447021</ele><time>2010-10-07T15:42:44Z</time></trkpt>
<trkpt lat="46.42834544" lon="7.15145148"><ele>1357.954956</ele><time>2010-10-07T15:42:48Z</time></trkpt>
<trkpt lat="46.42835441" lon="7.15140647"><ele>1356.546997</ele><time>2010-10-07T15:42:50Z</time></trkpt>
<trkpt lat="46.42837847" lon="7.15129147"><ele>1354.609985</ele><time>2010-10-07T15:42:53Z</time></trkpt>
<trkpt lat="46.42839649" lon="7.15123045"><ele>1353.688965</ele><time>2010-10-07T15:42:55Z</time></trkpt>
<trkpt lat="46.42841342" lon="7.15113549"><ele>1352.432007</ele><time>2010-10-07T15:42:59Z</time></trkpt>
<trkpt lat="46.42843245" lon="7.15104648"><ele>1350.640015</ele><time>2010-10-07T15:43:03Z</time></trkpt>
<trkpt lat="46.42843849" lon="7.15103349"><ele>1350.375977</ele><time>2010-10-07T15:43:04Z</time></trkpt>
<trkpt lat="46.42847042" lon="7.15093450"><ele>1347.215942</ele><time>2010-10-07T15:43:08Z</time></trkpt>
<trkpt lat="46.42849045" lon="7.15083945"><ele>1345.516968</ele><time>2010-10-07T15:43:11Z</time></trkpt>
<trkpt lat="46.42850546" lon="7.15079252"><ele>1344.593018</ele><time>2010-10-07T15:43:13Z</time></trkpt>
<trkpt lat="46.42851744" lon="7.15074449"><ele>1344.008057</ele><time>2010-10-07T15:43:15Z</time></trkpt>
<trkpt lat="46.42853848" lon="7.15066847"><ele>1342.732056</ele><time>2010-10-07T15:43:18Z</time></trkpt>
<trkpt lat="46.42854846" lon="7.15057946"><ele>1340.447021</ele><time>2010-10-07T15:43:22Z</time></trkpt>
<trkpt lat="46.42858744" lon="7.15043546"><ele>1337.969971</ele><time>2010-10-07T15:43:28Z</time></trkpt>
<trkpt lat="46.42858643" lon="7.15041049"><ele>1337.515991</ele><time>2010-10-07T15:43:29Z</time></trkpt>
<trkpt lat="46.42859146" lon="7.15033748"><ele>1335.698975</ele><time>2010-10-07T15:43:33Z</time></trkpt>
<trkpt lat="46.42859045" lon="7.15032952"><ele>1335.588989</ele><time>2010-10-07T15:43:35Z</time></trkpt>
<trkpt lat="46.42850445" lon="7.15039045"><ele>1333.718018</ele><time>2010-10-07T15:43:47Z</time></trkpt>
<trkpt lat="46.42840848" lon="7.15045751"><ele>1330.797974</ele><time>2010-10-07T15:43:52Z</time></trkpt>
<trkpt lat="46.42835349" lon="7.15046346"><ele>1329.267944</ele><time>2010-10-07T15:43:55Z</time></trkpt>
<trkpt lat="46.42827847" lon="7.15050352"><ele>1327.333008</ele><time>2010-10-07T15:44:01Z</time></trkpt>
<trkpt lat="46.42825341" lon="7.15051450"><ele>1326.255005</ele><time>2010-10-07T15:44:04Z</time></trkpt>
<trkpt lat="46.42823548" lon="7.15052146"><ele>1325.703003</ele><time>2010-10-07T15:44:08Z</time></trkpt>
<trkpt lat="46.42821846" lon="7.15057049"><ele>1324.647949</ele><time>2010-10-07T15:44:13Z</time></trkpt>
<trkpt lat="46.42812249" lon="7.15064148"><ele>1322.303955</ele><time>2010-10-07T15:44:19Z</time></trkpt>
<trkpt lat="46.42808342" lon="7.15068548"><ele>1320.712036</ele><time>2010-10-07T15:44:22Z</time></trkpt>
<trkpt lat="46.42807848" lon="7.15068548"><ele>1320.365967</ele><time>2010-10-07T15:44:24Z</time></trkpt>
<trkpt lat="46.42805845" lon="7.15073745"><ele>1319.833984</ele><time>2010-10-07T15:44:29Z</time></trkpt>
<trkpt lat="46.42803741" lon="7.15078950"><ele>1319.395996</ele><time>2010-10-07T15:44:34Z</time></trkpt>
<trkpt lat="46.42803045" lon="7.15079444"><ele>1318.968994</ele><time>2010-10-07T15:44:35Z</time></trkpt>
<trkpt lat="46.42799248" lon="7.15081950"><ele>1317.015991</ele><time>2010-10-07T15:44:40Z</time></trkpt>
<trkpt lat="46.42792643" lon="7.15085848"><ele>1315.967041</ele><time>2010-10-07T15:44:44Z</time></trkpt>
<trkpt lat="46.42784747" lon="7.15088245"><ele>1314.404053</ele><time>2010-10-07T15:44:49Z</time></trkpt>
<trkpt lat="46.42783741" lon="7.15089049"><ele>1314.08606</ele><time>2010-10-07T15:44:51Z</time></trkpt>
<trkpt lat="46.42781243" lon="7.15088949"><ele>1313.359009</ele><time>2010-10-07T15:44:56Z</time></trkpt>
<trkpt lat="46.42778846" lon="7.15090047"><ele>1312.142944</ele><time>2010-10-07T15:45:01Z</time></trkpt>
<trkpt lat="46.42778746" lon="7.15090549"><ele>1311.963013</ele><time>2010-10-07T15:45:02Z</time></trkpt>
<trkpt lat="46.42770648" lon="7.15090843"><ele>1310.118042</ele><time>2010-10-07T15:45:10Z</time></trkpt>
<trkpt lat="46.42766147" lon="7.15092150"><ele>1309.147949</ele><time>2010-10-07T15:45:15Z</time></trkpt>
<trkpt lat="46.42761143" lon="7.15094246"><ele>1308.123047</ele><time>2010-10-07T15:45:20Z</time></trkpt>
<trkpt lat="46.42759048" lon="7.15095243"><ele>1307.468994</ele><time>2010-10-07T15:45:22Z</time></trkpt>
<trkpt lat="46.42752342" lon="7.15100247"><ele>1304.97998</ele><time>2010-10-07T15:45:28Z</time></trkpt>
<trkpt lat="46.42751445" lon="7.15100750"><ele>1304.595947</ele><time>2010-10-07T15:45:29Z</time></trkpt>
<trkpt lat="46.42746743" lon="7.15104546"><ele>1303.557983</ele><time>2010-10-07T15:45:34Z</time></trkpt>
<trkpt lat="46.42745041" lon="7.15104949"><ele>1303.014038</ele><time>2010-10-07T15:45:37Z</time></trkpt>
<trkpt lat="46.42744044" lon="7.15106742"><ele>1302.256958</ele><time>2010-10-07T15:45:40Z</time></trkpt>
<trkpt lat="46.42739643" lon="7.15109349"><ele>1300.979004</ele><time>2010-10-07T15:45:46Z</time></trkpt>
<trkpt lat="46.42733742" lon="7.15110447"><ele>1299.046997</ele><time>2010-10-07T15:45:52Z</time></trkpt>
<trkpt lat="46.42730046" lon="7.15113146"><ele>1297.337036</ele><time>2010-10-07T15:45:56Z</time></trkpt>
<trkpt lat="46.42725545" lon="7.15113548"><ele>1296.447998</ele><time>2010-10-07T15:46:00Z</time></trkpt>
<trkpt lat="46.42719644" lon="7.15115845"><ele>1295.355957</ele><time>2010-10-07T15:46:06Z</time></trkpt>
<trkpt lat="46.42713743" lon="7.15119641"><ele>1294.18103</ele><time>2010-10-07T15:46:12Z</time></trkpt>
<trkpt lat="46.42707641" lon="7.15122541"><ele>1292.416016</ele><time>2010-10-07T15:46:18Z</time></trkpt>
<trkpt lat="46.42704347" lon="7.15127947"><ele>1291.144043</ele><time>2010-10-07T15:46:22Z</time></trkpt>
<trkpt lat="46.42699141" lon="7.15130344"><ele>1289.166016</ele><time>2010-10-07T15:46:27Z</time></trkpt>
<trkpt lat="46.42697147" lon="7.15129842"><ele>1288.365967</ele><time>2010-10-07T15:46:29Z</time></trkpt>
<trkpt lat="46.42696744" lon="7.15128643"><ele>1287.953979</ele><time>2010-10-07T15:46:30Z</time></trkpt>
<trkpt lat="46.42701841" lon="7.15102149"><ele>1284.96106</ele><time>2010-10-07T15:46:44Z</time></trkpt>
<trkpt lat="46.42702142" lon="7.15098042"><ele>1284.487061</ele><time>2010-10-07T15:46:46Z</time></trkpt>
<trkpt lat="46.42705143" lon="7.15082150"><ele>1282.621948</ele><time>2010-10-07T15:46:51Z</time></trkpt>
<trkpt lat="46.42709443" lon="7.15070048"><ele>1279.79895</ele><time>2010-10-07T15:46:55Z</time></trkpt>
<trkpt lat="46.42710441" lon="7.15066745"><ele>1279.498047</ele><time>2010-10-07T15:46:56Z</time></trkpt>
<trkpt lat="46.42714246" lon="7.15049546"><ele>1276.307007</ele><time>2010-10-07T15:47:01Z</time></trkpt>
<trkpt lat="46.42715646" lon="7.15044450"><ele>1275.46106</ele><time>2010-10-07T15:47:03Z</time></trkpt>
<trkpt lat="46.42719946" lon="7.15033747"><ele>1274.574951</ele><time>2010-10-07T15:47:08Z</time></trkpt>
<trkpt lat="46.42720147" lon="7.15026547"><ele>1272.948975</ele><time>2010-10-07T15:47:13Z</time></trkpt>
<trkpt lat="46.42715747" lon="7.15020051"><ele>1271.859985</ele><time>2010-10-07T15:47:19Z</time></trkpt>
<trkpt lat="46.42714942" lon="7.15019750"><ele>1271.452026</ele><time>2010-10-07T15:47:20Z</time></trkpt>
<trkpt lat="46.42711447" lon="7.15020253"><ele>1270.422974</ele><time>2010-10-07T15:47:24Z</time></trkpt>
<trkpt lat="46.42709645" lon="7.15017151"><ele>1268.954956</ele><time>2010-10-07T15:47:27Z</time></trkpt>
<trkpt lat="46.42704641" lon="7.15018249"><ele>1266.916016</ele><time>2010-10-07T15:47:33Z</time></trkpt>
<trkpt lat="46.42702545" lon="7.15024351"><ele>1265.930054</ele><time>2010-10-07T15:47:40Z</time></trkpt>
<trkpt lat="46.42697943" lon="7.15025952"><ele>1266.130981</ele><time>2010-10-07T15:48:06Z</time></trkpt>
<trkpt lat="46.42697641" lon="7.15025650"><ele>1266.229004</ele><time>2010-10-07T15:48:07Z</time></trkpt>
<trkpt lat="46.42695144" lon="7.15022549"><ele>1265.041016</ele><time>2010-10-07T15:48:13Z</time></trkpt>
<trkpt lat="46.42691447" lon="7.15019750"><ele>1263.078979</ele><time>2010-10-07T15:48:19Z</time></trkpt>
<trkpt lat="46.42687340" lon="7.15018853"><ele>1260.786011</ele><time>2010-10-07T15:48:26Z</time></trkpt>
<trkpt lat="46.42687441" lon="7.15018853"><ele>1260.516968</ele><time>2010-10-07T15:48:27Z</time></trkpt>
<trkpt lat="46.42692545" lon="7.15003447"><ele>1258.543945</ele><time>2010-10-07T15:48:38Z</time></trkpt>
<trkpt lat="46.42691246" lon="7.14992350"><ele>1255.305054</ele><time>2010-10-07T15:48:44Z</time></trkpt>
<trkpt lat="46.42688145" lon="7.14996147"><ele>1254.633057</ele><time>2010-10-07T15:48:47Z</time></trkpt>
<trkpt lat="46.42686644" lon="7.14998552"><ele>1254.125</ele><time>2010-10-07T15:48:52Z</time></trkpt>
<trkpt lat="46.42688941" lon="7.14990950"><ele>1252.498047</ele><time>2010-10-07T15:48:58Z</time></trkpt>
<trkpt lat="46.42686443" lon="7.14989852"><ele>1250.965942</ele><time>2010-10-07T15:49:03Z</time></trkpt>
<trkpt lat="46.42680442" lon="7.14997052"><ele>1249.029053</ele><time>2010-10-07T15:49:10Z</time></trkpt>
<trkpt lat="46.42677642" lon="7.14996449"><ele>1247.680054</ele><time>2010-10-07T15:49:13Z</time></trkpt>
<trkpt lat="46.42674641" lon="7.14995753"><ele>1246.948975</ele><time>2010-10-07T15:49:15Z</time></trkpt>
<trkpt lat="46.42672244" lon="7.14994546"><ele>1245.862061</ele><time>2010-10-07T15:49:18Z</time></trkpt>
<trkpt lat="46.42669746" lon="7.14994546"><ele>1246.514038</ele><time>2010-10-07T15:49:24Z</time></trkpt>
<trkpt lat="46.42669545" lon="7.14994848"><ele>1246.347046</ele><time>2010-10-07T15:49:25Z</time></trkpt>
<trkpt lat="46.42665941" lon="7.14991554"><ele>1243.94397</ele><time>2010-10-07T15:49:39Z</time></trkpt>
<trkpt lat="46.42663443" lon="7.14991847"><ele>1242.875977</ele><time>2010-10-07T15:49:41Z</time></trkpt>
<trkpt lat="46.42661641" lon="7.14993146"><ele>1242.107056</ele><time>2010-10-07T15:49:43Z</time></trkpt>
<trkpt lat="46.42657944" lon="7.14990146"><ele>1240.116943</ele><time>2010-10-07T15:49:48Z</time></trkpt>
<trkpt lat="46.42654944" lon="7.14989148"><ele>1237.615967</ele><time>2010-10-07T15:49:52Z</time></trkpt>
<trkpt lat="46.42653846" lon="7.14980750"><ele>1236.651001</ele><time>2010-10-07T15:49:57Z</time></trkpt>
<trkpt lat="46.42654047" lon="7.14970549"><ele>1234.437988</ele><time>2010-10-07T15:50:01Z</time></trkpt>
<trkpt lat="46.42654148" lon="7.14968948"><ele>1234.199951</ele><time>2010-10-07T15:50:02Z</time></trkpt>
<trkpt lat="46.42653946" lon="7.14966652"><ele>1233.362061</ele><time>2010-10-07T15:50:05Z</time></trkpt>
<trkpt lat="46.42646646" lon="7.14970046"><ele>1231.759033</ele><time>2010-10-07T15:50:14Z</time></trkpt>
<trkpt lat="46.42646243" lon="7.14970650"><ele>1231.248047</ele><time>2010-10-07T15:50:16Z</time></trkpt>
<trkpt lat="46.42643041" lon="7.14969954"><ele>1230.712036</ele><time>2010-10-07T15:50:20Z</time></trkpt>
<trkpt lat="46.42640041" lon="7.14969250"><ele>1229.140991</ele><time>2010-10-07T15:50:24Z</time></trkpt>
<trkpt lat="46.42638540" lon="7.14970650"><ele>1229.843994</ele><time>2010-10-07T15:50:28Z</time></trkpt>
<trkpt lat="46.42638440" lon="7.14970650"><ele>1229.848022</ele><time>2010-10-07T15:50:29Z</time></trkpt>
<trkpt lat="46.42636344" lon="7.14968353"><ele>1228.646973</ele><time>2010-10-07T15:50:36Z</time></trkpt>
<trkpt lat="46.42634140" lon="7.14965654"><ele>1227.416992</ele><time>2010-10-07T15:50:39Z</time></trkpt>
<trkpt lat="46.42632840" lon="7.14962754"><ele>1226.365967</ele><time>2010-10-07T15:50:43Z</time></trkpt>
<trkpt lat="46.42632941" lon="7.14951649"><ele>1224.978027</ele><time>2010-10-07T15:50:49Z</time></trkpt>
<trkpt lat="46.42626244" lon="7.14920855"><ele>1218.78894</ele><time>2010-10-07T15:50:57Z</time></trkpt>
<trkpt lat="46.42627040" lon="7.14914049"><ele>1217.227051</ele><time>2010-10-07T15:51:00Z</time></trkpt>
<trkpt lat="46.42627040" lon="7.14914250"><ele>1217.249023</ele><time>2010-10-07T15:51:01Z</time></trkpt>
<trkpt lat="46.42618340" lon="7.14916253"><ele>1214.82605</ele><time>2010-10-07T15:51:15Z</time></trkpt>
<trkpt lat="46.42617745" lon="7.14911249"><ele>1213.593994</ele><time>2010-10-07T15:51:21Z</time></trkpt>
<trkpt lat="46.42617644" lon="7.14911249"><ele>1213.56897</ele><time>2010-10-07T15:51:22Z</time></trkpt>
<trkpt lat="46.42615440" lon="7.14909649"><ele>1212.609009</ele><time>2010-10-07T15:51:41Z</time></trkpt>
<trkpt lat="46.42590445" lon="7.14887756"><ele>1205.142944</ele><time>2010-10-07T15:52:14Z</time></trkpt>
<trkpt lat="46.42564444" lon="7.14879156"><ele>1197.662964</ele><time>2010-10-07T15:52:20Z</time></trkpt>
<trkpt lat="46.42545039" lon="7.14874353"><ele>1191.227051</ele><time>2010-10-07T15:52:24Z</time></trkpt>
<trkpt lat="46.42527940" lon="7.14862652"><ele>1186.64502</ele><time>2010-10-07T15:52:28Z</time></trkpt>
<trkpt lat="46.42516943" lon="7.14849451"><ele>1183.720947</ele><time>2010-10-07T15:52:32Z</time></trkpt>
<trkpt lat="46.42516339" lon="7.14840055"><ele>1182.699951</ele><time>2010-10-07T15:52:34Z</time></trkpt>
<trkpt lat="46.42522945" lon="7.14828355"><ele>1182.650024</ele><time>2010-10-07T15:52:38Z</time></trkpt>
<trkpt lat="46.42532844" lon="7.14809153"><ele>1183.062988</ele><time>2010-10-07T15:52:45Z</time></trkpt>
<trkpt lat="46.42534939" lon="7.14805959"><ele>1182.984985</ele><time>2010-10-07T15:52:48Z</time></trkpt>
<trkpt lat="46.42535643" lon="7.14799958"><ele>1182.446045</ele><time>2010-10-07T15:53:42Z</time></trkpt>
<trkpt lat="46.42536741" lon="7.14797452"><ele>1182.439941</ele><time>2010-10-07T15:53:43Z</time></trkpt>
<trkpt lat="46.42547445" lon="7.14776859"><ele>1182.333984</ele><time>2010-10-07T15:53:49Z</time></trkpt>
<trkpt lat="46.42554746" lon="7.14762157"><ele>1182.20105</ele><time>2010-10-07T15:53:53Z</time></trkpt>
<trkpt lat="46.42566540" lon="7.14737055"><ele>1181.147949</ele><time>2010-10-07T15:53:58Z</time></trkpt>
<trkpt lat="46.42569842" lon="7.14730056"><ele>1180.651001</ele><time>2010-10-07T15:53:59Z</time></trkpt>
<trkpt lat="46.42575945" lon="7.14707661"><ele>1178.517944</ele><time>2010-10-07T15:54:02Z</time></trkpt>
<trkpt lat="46.42584243" lon="7.14670664"><ele>1174.045044</ele><time>2010-10-07T15:54:08Z</time></trkpt>
<trkpt lat="46.42576942" lon="7.14665560"><ele>1173.052979</ele><time>2010-10-07T15:54:10Z</time></trkpt>
<trkpt lat="46.42571645" lon="7.14666365"><ele>1172.784058</ele><time>2010-10-07T15:54:11Z</time></trkpt>
<trkpt lat="46.42549147" lon="7.14679364"><ele>1170.526978</ele><time>2010-10-07T15:54:15Z</time></trkpt>
<trkpt lat="46.42534043" lon="7.14684661"><ele>1169.026001</ele><time>2010-10-07T15:54:18Z</time></trkpt>
<trkpt lat="46.42529140" lon="7.14674561"><ele>1167.938965</ele><time>2010-10-07T15:54:20Z</time></trkpt>
<trkpt lat="46.42532744" lon="7.14662458"><ele>1166.901001</ele><time>2010-10-07T15:54:22Z</time></trkpt>
<trkpt lat="46.42544848" lon="7.14649459"><ele>1166.713013</ele><time>2010-10-07T15:54:25Z</time></trkpt>
<trkpt lat="46.42572240" lon="7.14605364"><ele>1166.532959</ele><time>2010-10-07T15:54:32Z</time></trkpt>
<trkpt lat="46.42596741" lon="7.14560070"><ele>1167.435059</ele><time>2010-10-07T15:54:39Z</time></trkpt>
<trkpt lat="46.42600144" lon="7.14554865"><ele>1167.588989</ele><time>2010-10-07T15:54:40Z</time></trkpt>
<trkpt lat="46.42611343" lon="7.14524968"><ele>1168.171021</ele><time>2010-10-07T15:54:45Z</time></trkpt>
<trkpt lat="46.42623849" lon="7.14491073"><ele>1168.850952</ele><time>2010-10-07T15:54:51Z</time></trkpt>
<trkpt lat="46.42635047" lon="7.14464772"><ele>1169.547974</ele><time>2010-10-07T15:54:57Z</time></trkpt>
<trkpt lat="46.42649942" lon="7.14434875"><ele>1168.89502</ele><time>2010-10-07T15:55:02Z</time></trkpt>
<trkpt lat="46.42662750" lon="7.14408775"><ele>1167.480957</ele><time>2010-10-07T15:55:05Z</time></trkpt>
<trkpt lat="46.42687443" lon="7.14380973"><ele>1166.436035</ele><time>2010-10-07T15:55:09Z</time></trkpt>
<trkpt lat="46.42714350" lon="7.14344773"><ele>1165.719971</ele><time>2010-10-07T15:55:14Z</time></trkpt>
<trkpt lat="46.42733344" lon="7.14313879"><ele>1165.921997</ele><time>2010-10-07T15:55:19Z</time></trkpt>
<trkpt lat="46.42737048" lon="7.14308574"><ele>1165.989014</ele><time>2010-10-07T15:55:20Z</time></trkpt>
<trkpt lat="46.42770744" lon="7.14275978"><ele>1164.437012</ele><time>2010-10-07T15:55:27Z</time></trkpt>
<trkpt lat="46.42783351" lon="7.14264881"><ele>1163.636963</ele><time>2010-10-07T15:55:29Z</time></trkpt>
<trkpt lat="46.42805153" lon="7.14250783"><ele>1162.381958</ele><time>2010-10-07T15:55:32Z</time></trkpt>
<trkpt lat="46.42837247" lon="7.14215883"><ele>1161.136963</ele><time>2010-10-07T15:55:37Z</time></trkpt>
<trkpt lat="46.42846853" lon="7.14190285"><ele>1161.218994</ele><time>2010-10-07T15:55:40Z</time></trkpt>
<trkpt lat="46.42859250" lon="7.14143583"><ele>1161.182007</ele><time>2010-10-07T15:55:46Z</time></trkpt>
<trkpt lat="46.42878454" lon="7.14099689"><ele>1160.22998</ele><time>2010-10-07T15:55:52Z</time></trkpt>
<trkpt lat="46.42894548" lon="7.14049191"><ele>1157.937988</ele><time>2010-10-07T15:55:57Z</time></trkpt>
<trkpt lat="46.42897649" lon="7.14037691"><ele>1157.68396</ele><time>2010-10-07T15:55:58Z</time></trkpt>
<trkpt lat="46.42901153" lon="7.14026292"><ele>1157.130981</ele><time>2010-10-07T15:55:59Z</time></trkpt>
<trkpt lat="46.42921353" lon="7.13990092"><ele>1155.485962</ele><time>2010-10-07T15:56:03Z</time></trkpt>
<trkpt lat="46.42955452" lon="7.13945293"><ele>1151.456055</ele><time>2010-10-07T15:56:08Z</time></trkpt>
<trkpt lat="46.42990656" lon="7.13884795"><ele>1145.964966</ele><time>2010-10-07T15:56:14Z</time></trkpt>
<trkpt lat="46.43017152" lon="7.13846400"><ele>1142.026001</ele><time>2010-10-07T15:56:19Z</time></trkpt>
<trkpt lat="46.43026750" lon="7.13832696"><ele>1140.939941</ele><time>2010-10-07T15:56:21Z</time></trkpt>
<trkpt lat="46.43041753" lon="7.13798600"><ele>1137.480957</ele><time>2010-10-07T15:56:25Z</time></trkpt>
<trkpt lat="46.43066154" lon="7.13757103"><ele>1132.740967</ele><time>2010-10-07T15:56:30Z</time></trkpt>
<trkpt lat="46.43070957" lon="7.13731204"><ele>1130.661011</ele><time>2010-10-07T15:56:33Z</time></trkpt>
<trkpt lat="46.43073052" lon="7.13699404"><ele>1127.453979</ele><time>2010-10-07T15:56:36Z</time></trkpt>
<trkpt lat="46.43076858" lon="7.13688902"><ele>1126.828979</ele><time>2010-10-07T15:56:37Z</time></trkpt>
<trkpt lat="46.43105558" lon="7.13616712"><ele>1124.879028</ele><time>2010-10-07T15:56:44Z</time></trkpt>
<trkpt lat="46.43128458" lon="7.13570613"><ele>1121.801025</ele><time>2010-10-07T15:56:48Z</time></trkpt>
<trkpt lat="46.43157653" lon="7.13520710"><ele>1118.276978</ele><time>2010-10-07T15:56:52Z</time></trkpt>
<trkpt lat="46.43199856" lon="7.13450514"><ele>1114.131958</ele><time>2010-10-07T15:56:58Z</time></trkpt>
<trkpt lat="46.43224055" lon="7.13415513"><ele>1109.46106</ele><time>2010-10-07T15:57:02Z</time></trkpt>
<trkpt lat="46.43233058" lon="7.13388919"><ele>1105.776978</ele><time>2010-10-07T15:57:06Z</time></trkpt>
<trkpt lat="46.43232857" lon="7.13382414"><ele>1105.491943</ele><time>2010-10-07T15:57:07Z</time></trkpt>
<trkpt lat="46.43237157" lon="7.13360723"><ele>1104.43396</ele><time>2010-10-07T15:57:10Z</time></trkpt>
<trkpt lat="46.43264155" lon="7.13292724"><ele>1103.418945</ele><time>2010-10-07T15:57:18Z</time></trkpt>
<trkpt lat="46.43298363" lon="7.13203829"><ele>1101.142944</ele><time>2010-10-07T15:57:27Z</time></trkpt>
<trkpt lat="46.43307558" lon="7.13132929"><ele>1099.889038</ele><time>2010-10-07T15:57:33Z</time></trkpt>
<trkpt lat="46.43317659" lon="7.13057034"><ele>1098.707031</ele><time>2010-10-07T15:57:39Z</time></trkpt>
<trkpt lat="46.43327860" lon="7.13008631"><ele>1098.204956</ele><time>2010-10-07T15:57:43Z</time></trkpt>
<trkpt lat="46.43337458" lon="7.12962138"><ele>1097.975952</ele><time>2010-10-07T15:57:47Z</time></trkpt>
<trkpt lat="46.43351959" lon="7.12894843"><ele>1097.406982</ele><time>2010-10-07T15:57:53Z</time></trkpt>
<trkpt lat="46.43369964" lon="7.12843137"><ele>1096.927002</ele><time>2010-10-07T15:57:58Z</time></trkpt>
<trkpt lat="46.43397465" lon="7.12801439"><ele>1096.172974</ele><time>2010-10-07T15:58:03Z</time></trkpt>
<trkpt lat="46.43419560" lon="7.12769748"><ele>1095.97998</ele><time>2010-10-07T15:58:07Z</time></trkpt>
<trkpt lat="46.43437867" lon="7.12720649"><ele>1095.198975</ele><time>2010-10-07T15:58:12Z</time></trkpt>
<trkpt lat="46.43461261" lon="7.12661149"><ele>1094.113037</ele><time>2010-10-07T15:58:18Z</time></trkpt>
<trkpt lat="46.43478662" lon="7.12637546"><ele>1093.917969</ele><time>2010-10-07T15:58:21Z</time></trkpt>
<trkpt lat="46.43535266" lon="7.12596955"><ele>1093.06897</ele><time>2010-10-07T15:58:29Z</time></trkpt>
<trkpt lat="46.43586967" lon="7.12563153"><ele>1092.359985</ele><time>2010-10-07T15:58:36Z</time></trkpt>
<trkpt lat="46.43658164" lon="7.12519754"><ele>1091.310059</ele><time>2010-10-07T15:58:45Z</time></trkpt>
<trkpt lat="46.43708665" lon="7.12509956"><ele>1090.662964</ele><time>2010-10-07T15:58:51Z</time></trkpt>
<trkpt lat="46.43757566" lon="7.12520056"><ele>1089.749023</ele><time>2010-10-07T15:58:57Z</time></trkpt>
<trkpt lat="46.43818570" lon="7.12537155"><ele>1088.812988</ele><time>2010-10-07T15:59:05Z</time></trkpt>
<trkpt lat="46.43848971" lon="7.12542855"><ele>1088.349976</ele><time>2010-10-07T15:59:09Z</time></trkpt>
<trkpt lat="46.43892667" lon="7.12536058"><ele>1087.595947</ele><time>2010-10-07T15:59:15Z</time></trkpt>
<trkpt lat="46.43899574" lon="7.12533761"><ele>1087.407959</ele><time>2010-10-07T15:59:16Z</time></trkpt>
<trkpt lat="46.43922071" lon="7.12510662"><ele>1087.105957</ele><time>2010-10-07T15:59:20Z</time></trkpt>
<trkpt lat="46.43925868" lon="7.12490462"><ele>1086.753052</ele><time>2010-10-07T15:59:22Z</time></trkpt>
<trkpt lat="46.43926472" lon="7.12469458"><ele>1086.322021</ele><time>2010-10-07T15:59:24Z</time></trkpt>
<trkpt lat="46.43936170" lon="7.12430459"><ele>1085.832031</ele><time>2010-10-07T15:59:28Z</time></trkpt>
<trkpt lat="46.43940571" lon="7.12422262"><ele>1085.703003</ele><time>2010-10-07T15:59:29Z</time></trkpt>
<trkpt lat="46.43956572" lon="7.12366767"><ele>1085.29895</ele><time>2010-10-07T15:59:35Z</time></trkpt>
<trkpt lat="46.43956471" lon="7.12356567"><ele>1085.22998</ele><time>2010-10-07T15:59:36Z</time></trkpt>
<trkpt lat="46.43965868" lon="7.12309572"><ele>1084.704956</ele><time>2010-10-07T15:59:41Z</time></trkpt>
<trkpt lat="46.43978273" lon="7.12300570"><ele>1084.32605</ele><time>2010-10-07T15:59:43Z</time></trkpt>
<trkpt lat="46.44019370" lon="7.12294469"><ele>1084.10498</ele><time>2010-10-07T15:59:49Z</time></trkpt>
<trkpt lat="46.44026076" lon="7.12294469"><ele>1084.100952</ele><time>2010-10-07T15:59:50Z</time></trkpt>
<trkpt lat="46.44050870" lon="7.12286071"><ele>1084.110962</ele><time>2010-10-07T15:59:54Z</time></trkpt>
<trkpt lat="46.44068472" lon="7.12274772"><ele>1083.886963</ele><time>2010-10-07T15:59:57Z</time></trkpt>
<trkpt lat="46.44093174" lon="7.12267271"><ele>1083.668945</ele><time>2010-10-07T16:00:01Z</time></trkpt>
<trkpt lat="46.44131773" lon="7.12273373"><ele>1083.495972</ele><time>2010-10-07T16:00:07Z</time></trkpt>
<trkpt lat="46.44177371" lon="7.12286273"><ele>1083.302979</ele><time>2010-10-07T16:00:14Z</time></trkpt>
<trkpt lat="46.44213372" lon="7.12305467"><ele>1082.854004</ele><time>2010-10-07T16:00:20Z</time></trkpt>
<trkpt lat="46.44250672" lon="7.12314369"><ele>1082.593994</ele><time>2010-10-07T16:00:26Z</time></trkpt>
<trkpt lat="46.44289372" lon="7.12307471"><ele>1081.95105</ele><time>2010-10-07T16:00:32Z</time></trkpt>
<trkpt lat="46.44339479" lon="7.12289769"><ele>1080.875977</ele><time>2010-10-07T16:00:40Z</time></trkpt>
<trkpt lat="46.44377173" lon="7.12277876"><ele>1080.385986</ele><time>2010-10-07T16:00:46Z</time></trkpt>
<trkpt lat="46.44409176" lon="7.12288069"><ele>1079.802002</ele><time>2010-10-07T16:00:51Z</time></trkpt>
<trkpt lat="46.44432377" lon="7.12304773"><ele>1079.781006</ele><time>2010-10-07T16:00:55Z</time></trkpt>
<trkpt lat="46.44463281" lon="7.12308772"><ele>1079.383057</ele><time>2010-10-07T16:01:00Z</time></trkpt>
<trkpt lat="46.44469275" lon="7.12305972"><ele>1079.371948</ele><time>2010-10-07T16:01:01Z</time></trkpt>
<trkpt lat="46.44513381" lon="7.12287676"><ele>1078.362061</ele><time>2010-10-07T16:01:08Z</time></trkpt>
<trkpt lat="46.44564679" lon="7.12267477"><ele>1077.41394</ele><time>2010-10-07T16:01:16Z</time></trkpt>
<trkpt lat="46.44576682" lon="7.12260478"><ele>1077.255981</ele><time>2010-10-07T16:01:18Z</time></trkpt>
<trkpt lat="46.44599883" lon="7.12227874"><ele>1076.909058</ele><time>2010-10-07T16:01:23Z</time></trkpt>
<trkpt lat="46.44605281" lon="7.12199980"><ele>1076.405029</ele><time>2010-10-07T16:01:26Z</time></trkpt>
<trkpt lat="46.44615181" lon="7.12152582"><ele>1075.260986</ele><time>2010-10-07T16:01:31Z</time></trkpt>
<trkpt lat="46.44624879" lon="7.12137680"><ele>1075.083984</ele><time>2010-10-07T16:01:33Z</time></trkpt>
<trkpt lat="46.44649480" lon="7.12101883"><ele>1074.942993</ele><time>2010-10-07T16:01:38Z</time></trkpt>
<trkpt lat="46.44661584" lon="7.12066387"><ele>1074.129028</ele><time>2010-10-07T16:01:42Z</time></trkpt>
<trkpt lat="46.44683084" lon="7.12017782"><ele>1073.543945</ele><time>2010-10-07T16:01:48Z</time></trkpt>
<trkpt lat="46.44694182" lon="7.12005989"><ele>1073.508057</ele><time>2010-10-07T16:01:50Z</time></trkpt>
<trkpt lat="46.44727282" lon="7.11993786"><ele>1072.853027</ele><time>2010-10-07T16:01:55Z</time></trkpt>
<trkpt lat="46.44774683" lon="7.11988087"><ele>1072.647949</ele><time>2010-10-07T16:02:02Z</time></trkpt>
<trkpt lat="46.44781187" lon="7.11986386"><ele>1072.484009</ele><time>2010-10-07T16:02:03Z</time></trkpt>
<trkpt lat="46.44820180" lon="7.11966086"><ele>1072.224976</ele><time>2010-10-07T16:02:09Z</time></trkpt>
<trkpt lat="46.44868084" lon="7.11948686"><ele>1071.651978</ele><time>2010-10-07T16:02:16Z</time></trkpt>
<trkpt lat="46.44894185" lon="7.11934689"><ele>1071.339966</ele><time>2010-10-07T16:02:20Z</time></trkpt>
<trkpt lat="46.44911989" lon="7.11917692"><ele>1071.131958</ele><time>2010-10-07T16:02:23Z</time></trkpt>
<trkpt lat="46.44958585" lon="7.11846097"><ele>1070.099976</ele><time>2010-10-07T16:02:32Z</time></trkpt>
<trkpt lat="46.44969984" lon="7.11827892"><ele>1069.521973</ele><time>2010-10-07T16:02:34Z</time></trkpt>
<trkpt lat="46.45008785" lon="7.11785197"><ele>1066.244019</ele><time>2010-10-07T16:02:39Z</time></trkpt>
<trkpt lat="46.45033788" lon="7.11732603"><ele>1064.104004</ele><time>2010-10-07T16:02:43Z</time></trkpt>
<trkpt lat="46.45040788" lon="7.11681106"><ele>1061.650024</ele><time>2010-10-07T16:02:46Z</time></trkpt>
<trkpt lat="46.45040687" lon="7.11663002"><ele>1060.817993</ele><time>2010-10-07T16:02:47Z</time></trkpt>
<trkpt lat="46.45035692" lon="7.11570411"><ele>1055.319946</ele><time>2010-10-07T16:02:52Z</time></trkpt>
<trkpt lat="46.45048986" lon="7.11492613"><ele>1051.376953</ele><time>2010-10-07T16:02:56Z</time></trkpt>
<trkpt lat="46.45050487" lon="7.11473713"><ele>1050.505005</ele><time>2010-10-07T16:02:57Z</time></trkpt>
<trkpt lat="46.45053487" lon="7.11436214"><ele>1048.093994</ele><time>2010-10-07T16:02:59Z</time></trkpt>
<trkpt lat="46.45080587" lon="7.11370611"><ele>1043.641968</ele><time>2010-10-07T16:03:03Z</time></trkpt>
<trkpt lat="46.45117594" lon="7.11314916"><ele>1039.852051</ele><time>2010-10-07T16:03:07Z</time></trkpt>
<trkpt lat="46.45157391" lon="7.11305320"><ele>1036.686035</ele><time>2010-10-07T16:03:10Z</time></trkpt>
<trkpt lat="46.45180894" lon="7.11327221"><ele>1034.779053</ele><time>2010-10-07T16:03:12Z</time></trkpt>
<trkpt lat="46.45213593" lon="7.11368417"><ele>1032.136963</ele><time>2010-10-07T16:03:15Z</time></trkpt>
<trkpt lat="46.45231488" lon="7.11401817"><ele>1029.650024</ele><time>2010-10-07T16:03:17Z</time></trkpt>
<trkpt lat="46.45266290" lon="7.11461209"><ele>1026.182007</ele><time>2010-10-07T16:03:21Z</time></trkpt>
<trkpt lat="46.45328090" lon="7.11531908"><ele>1020.513977</ele><time>2010-10-07T16:03:27Z</time></trkpt>
<trkpt lat="46.45384492" lon="7.11580606"><ele>1015.458008</ele><time>2010-10-07T16:03:32Z</time></trkpt>
<trkpt lat="46.45423192" lon="7.11631206"><ele>1011.55603</ele><time>2010-10-07T16:03:36Z</time></trkpt>
<trkpt lat="46.45497196" lon="7.11760107"><ele>1003.997986</ele><time>2010-10-07T16:03:45Z</time></trkpt>
<trkpt lat="46.45506693" lon="7.11772704"><ele>1002.870972</ele><time>2010-10-07T16:03:46Z</time></trkpt>
<trkpt lat="46.45551193" lon="7.11808201"><ele>999.445007</ele><time>2010-10-07T16:03:50Z</time></trkpt>
<trkpt lat="46.45636396" lon="7.11859497"><ele>993.439026</ele><time>2010-10-07T16:03:57Z</time></trkpt>
<trkpt lat="46.45697098" lon="7.11898698"><ele>988.515991</ele><time>2010-10-07T16:04:02Z</time></trkpt>
<trkpt lat="46.45718296" lon="7.11921303"><ele>986.421021</ele><time>2010-10-07T16:04:04Z</time></trkpt>
<trkpt lat="46.45750298" lon="7.11980394"><ele>982.849976</ele><time>2010-10-07T16:04:08Z</time></trkpt>
<trkpt lat="46.45792895" lon="7.12093193"><ele>977.724976</ele><time>2010-10-07T16:04:15Z</time></trkpt>
<trkpt lat="46.45825098" lon="7.12148688"><ele>974.940979</ele><time>2010-10-07T16:04:19Z</time></trkpt>
<trkpt lat="46.45849993" lon="7.12188190"><ele>972.559998</ele><time>2010-10-07T16:04:22Z</time></trkpt>
<trkpt lat="46.45891199" lon="7.12218390"><ele>970.059021</ele><time>2010-10-07T16:04:26Z</time></trkpt>
<trkpt lat="46.45913696" lon="7.12219085"><ele>969.192017</ele><time>2010-10-07T16:04:28Z</time></trkpt>
<trkpt lat="46.45924995" lon="7.12216487"><ele>968.635986</ele><time>2010-10-07T16:04:29Z</time></trkpt>
<trkpt lat="46.46008597" lon="7.12184294"><ele>961.349976</ele><time>2010-10-07T16:04:36Z</time></trkpt>
<trkpt lat="46.46087598" lon="7.12157692"><ele>954.257019</ele><time>2010-10-07T16:04:42Z</time></trkpt>
<trkpt lat="46.46129902" lon="7.12156393"><ele>950.585999</ele><time>2010-10-07T16:04:45Z</time></trkpt>
<trkpt lat="46.46186597" lon="7.12174992"><ele>945.452026</ele><time>2010-10-07T16:04:49Z</time></trkpt>
<trkpt lat="46.46269001" lon="7.12227688"><ele>937.906982</ele><time>2010-10-07T16:04:55Z</time></trkpt>
<trkpt lat="46.46311304" lon="7.12287692"><ele>933.625977</ele><time>2010-10-07T16:04:59Z</time></trkpt>
<trkpt lat="46.46320801" lon="7.12328485"><ele>931.768005</ele><time>2010-10-07T16:05:01Z</time></trkpt>
<trkpt lat="46.46343801" lon="7.12400483"><ele>926.377991</ele><time>2010-10-07T16:05:05Z</time></trkpt>
<trkpt lat="46.46366499" lon="7.12422485"><ele>924.338013</ele><time>2010-10-07T16:05:07Z</time></trkpt>
<trkpt lat="46.46393104" lon="7.12427581"><ele>922.109985</ele><time>2010-10-07T16:05:09Z</time></trkpt>
<trkpt lat="46.46434804" lon="7.12415688"><ele>918.89502</ele><time>2010-10-07T16:05:12Z</time></trkpt>
<trkpt lat="46.46462499" lon="7.12417390"><ele>915.909973</ele><time>2010-10-07T16:05:14Z</time></trkpt>
<trkpt lat="46.46487401" lon="7.12433089"><ele>913.968018</ele><time>2010-10-07T16:05:16Z</time></trkpt>
<trkpt lat="46.46506001" lon="7.12461486"><ele>912.38501</ele><time>2010-10-07T16:05:18Z</time></trkpt>
<trkpt lat="46.46515799" lon="7.12498985"><ele>910.684021</ele><time>2010-10-07T16:05:20Z</time></trkpt>
<trkpt lat="46.46540903" lon="7.12592180"><ele>905.656006</ele><time>2010-10-07T16:05:25Z</time></trkpt>
<trkpt lat="46.46562101" lon="7.12618281"><ele>903.322998</ele><time>2010-10-07T16:05:27Z</time></trkpt>
<trkpt lat="46.46586602" lon="7.12634675"><ele>902.422974</ele><time>2010-10-07T16:05:29Z</time></trkpt>
<trkpt lat="46.46644907" lon="7.12659778"><ele>900.424011</ele><time>2010-10-07T16:05:34Z</time></trkpt>
<trkpt lat="46.46666800" lon="7.12663877"><ele>899.520996</ele><time>2010-10-07T16:05:36Z</time></trkpt>
<trkpt lat="46.46714201" lon="7.12656577"><ele>900.278992</ele><time>2010-10-07T16:05:41Z</time></trkpt>
<trkpt lat="46.46741107" lon="7.12645581"><ele>900.995972</ele><time>2010-10-07T16:05:45Z</time></trkpt>
<trkpt lat="46.46751501" lon="7.12642882"><ele>901.531982</ele><time>2010-10-07T16:05:47Z</time></trkpt>
<trkpt lat="46.46777401" lon="7.12637879"><ele>903.348022</ele><time>2010-10-07T16:05:54Z</time></trkpt>
<trkpt lat="46.46791005" lon="7.12642681"><ele>904.455994</ele><time>2010-10-07T16:06:00Z</time></trkpt>
<trkpt lat="46.46791106" lon="7.12642782"><ele>904.416992</ele><time>2010-10-07T16:06:02Z</time></trkpt>
<trkpt lat="46.46790502" lon="7.12643578"><ele>904.515991</ele><time>2010-10-07T16:06:10Z</time></trkpt>
</trkseg></trk></gpx>